     2.11           OBSERVATION DATA    G (GPS)             RINEX VERSION / TYPE
teqc 2010Oct21 OPUS Account 20111027 15:34:23UTC            PGM / RUN BY / DATE
U 1524                                                      MARKER NAME
1223                                                        MARKER NUMBER
CSMIDDLETON NGS                                             OBSERVER / AGENCY
4624K01631 TRIMBLE NETR5 4.41                               REC # / TYPE / VERS
12481390 TRM41249.00 NONE                                   ANT # / TYPE
  -761253.9529 -5535599.8504  3065252.7873                  APPROX POSITION XYZ
        2.0000        0.0000        0.0000                  ANTENNA: DELTA H/E/N
     1     1                                                WAVELENGTH FACT L1/2
     5    L1    L2    C1    P1    P2                        # / TYPES OF OBSERV
    15                                                      LEAP SECONDS
  2011     8    15     0     0    0.0000000     GPS         TIME OF FIRST OBS
                                                            END OF HEADER
 11  8 15  0  0  0.0000000  0  8G28G09G02G04G17G10G05G12
 125154164.994 6  97522789.71343  23816058.273                    23816069.070
 118811569.865 7  92580524.93644  22609098.711                    22609109.238
 109390659.842 8  85239663.70746  20816345.484                    20816352.391
 108337831.038 8  84419213.01846  20615981.227                    20615990.309
 117856804.432 7  91836580.397 7  22427397.703                    22427407.582
 111957505.212 8  87239736.48045  21304790.750                    21304800.063
 123821490.664 7  96484360.120 6  23562447.828                    23562458.012
 118634429.438 7  92442492.570 7  22575385.984                    22575394.734
 11  8 15  0  0 30.0000000  0  8G28G09G02G04G17G10G05G12
 125250633.871 6  97597960.19643  23834416.094                    23834426.586
 118865886.472 7  92622849.50845  22619435.133                    22619445.230
 109363078.558 8  85218171.82446  20811096.922                    20811103.438
 108395544.062 8  84464184.18646  20626963.688                    20626972.395
 117899214.882 7  91869627.477 7  22435468.266                    22435477.668
 111908242.022 8  87201349.61145  21295416.461                    21295425.492
 123716479.144 7  96402533.123 6  23542464.172                    23542475.266
 118548210.433 7  92375308.958 7  22558979.523                    22558988.109
 11  8 15  0  1  0.0000000  0  8G28G09G02G04G17G10G05G12
 125347343.659 6  97673318.42643  23852819.359                    23852829.715
 118920636.760 7  92665512.02945  22629853.813                    22629863.699
 109335858.127 8  85196961.12246  20805916.859                    20805923.914
 108453582.886 8  84509409.22346  20638007.664                    20638016.836
 117941733.470 7  91902758.828 7  22443559.727                    22443568.906
 111859493.116 8  87163363.47745  21286139.383                    21286148.707
 123611527.419 7  96320752.702 6  23522492.227                    23522503.492
 118462217.496 7  92308301.501 7  22542614.797                    22542624.121
 11  8 15  0  1 30.0000000  0  8G28G09G02G04G17G10G05G12
 125444292.498 6  97748862.85143  23871268.297                    23871279.809
 118975817.571 7  92708510.02545  22640354.242                    22640364.887
 109308997.756 8  85176030.99146  20800805.781                    20800812.602
 108511945.281 8  84554886.39946  20649113.977                    20649122.863
 117984360.649 7  91935974.803 7  22451671.031                    22451680.504
 111811260.559 8  87125779.69445  21276961.156                    21276970.773
 123506638.232 7  96239020.997 6  23502532.703                    23502543.523
 118376453.158 7  92241472.167 7  22526294.859                    22526303.824
 11  8 15  0  2  0.0000000  0  8G28G09G02G04G17G10G05G12
 125541478.513 6  97824592.10943  23889761.734                    23889773.188
 119031425.823 7  92751841.09345  22650935.984                    22650946.469
 109282496.813 8  85155380.93146  20795763.000                    20795769.840
 108570628.495 8  84600613.55946  20660280.781                    20660290.246
 118027096.861 7  91969275.715 7  22459803.961                    22459812.203
 111763546.457 8  87088599.90646  21267881.695                    21267890.906
 123401814.170 7  96157340.045 6  23482584.805                    23482596.543
 118290919.846 7  92174822.857 7  22510018.445                    22510027.172
 11  8 15  0  2 30.0000000  0  8G28G09G02G04G17G10G05G12
 125638899.433 6  97900504.37343  23908299.945                    23908311.727
 119087458.574 7  92795502.94245  22661598.859                    22661609.180
 109256354.830 8  85135010.57346  20790788.078                    20790795.250
 108629630.117 8  84646588.82346  20671508.758                    20671517.516
 118069942.528 7  92002661.935 7  22467957.117                    22467965.996
 111716353.126 8  87051825.90645  21258901.055                    21258909.883
 123297058.312 7  96075712.255 6  23462650.484                    23462662.234
 118205620.133 7  92108355.575 7  22493786.344                    22493795.180
 11  8 15  0  3  0.0000000  0  8G28G09G02G04G17G10G05G12
 125736553.526 6  97976598.36843  23926883.992                    23926895.316
 119143912.355 7  92839492.86345  22672342.133                    22672352.340
 109230571.241 8  85114919.48946  20785881.672                    20785888.504
 108688947.914 8  84692810.47446  20682796.555                    20682805.629
 118112898.487 7  92036134.090 7  22476131.000                    22476140.191
 111669683.136 8  87015459.71245  21250019.875                    21250029.094
 123192373.523 7  95994139.848 6  23442729.539                    23442740.605
 118120556.825 7  92042072.513 7  22477599.195                    22477607.672
 11  8 15  0  3 30.0000000  0  8G28G09G02G04G17G10G05G12
 125834438.949 6  98052872.58043  23945510.109                    23945522.590
 119200784.281 7  92883808.61245  22683164.148                    22683174.406
 109205145.492 8  85095107.24446  20781043.508                    20781049.934
 108748579.430 8  84739276.57146  20694143.766                    20694152.730
 118155965.228 7  92069692.570 7  22484326.766                    22484335.641
 111623538.909 8  86979503.19545  21241238.891                    21241247.977
 123087762.762 7  95912625.118 6  23422822.164                    23422833.898
 118035732.374 7  91975975.564 7  22461457.648                    22461466.125
 11  8 15  0  4  0.0000000  0  8G28G09G02G04G17G10G05G12
 125932554.064 6  98129325.76443  23964180.875                    23964193.203
 119258071.868 7  92928448.25245  22694065.352                    22694076.055
 109180077.656 8  85075573.88746  20776273.078                    20776279.715
 108808522.591 8  84785985.50946  20705550.828                    20705559.797
 118199143.406 7  92103337.876 7  22492543.438                    22492552.078
 111577923.236 8  86943958.53045  21232558.500                    21232567.703
 122983229.015 7  95831170.395 6  23402930.258                    23402942.160
 117951149.415 8  91910066.799 7  22445362.383                    22445370.855
 11  8 15  0  4 30.0000000  0  8G28G09G02G04G17G10G05G12
 126030896.900 6  98205956.41943  23982895.984                    23982907.250
 119315771.751 7  92973409.15545  22705045.164                    22705055.508
 109155367.041 8  85056318.89046  20771571.063                    20771577.852
 108868774.878 8  84832935.33246  20717016.367                    20717025.090
 118242433.638 7  92137070.496 7  22500780.828                    22500790.000
 111532838.032 8  86908827.23045  21223979.016                    21223987.863
 122878775.409 7  95749778.103 6  23383053.805                    23383064.844
 117866810.639 7  91844348.313 7  22429313.133                    22429321.797
 11  8 15  0  5  0.0000000  0  8G28G09G02G04G17G10G05G12
 126129465.360 6  98282762.87143  24001653.070                    24001663.527
 119373880.408 7  93018688.58245  22716103.008                    22716114.031
 109131012.625 8  85037341.44146  20766936.070                    20766943.121
 108929333.490 8  84880123.84846  20728540.461                    20728548.887
 118285836.405 7  92170890.803 7  22509040.453                    22509049.672
 111488285.100 8  86874110.68145  21215500.867                    21215509.902
 122774404.221 7  95668450.019 6  23363192.477                    23363203.258
 117782718.288 7  91778821.837 7  22413310.391                    22413319.477
 11  8 15  0  5 30.0000000  0  8G28G09G02G04G17G10G05G12
 126228257.622 6  98359743.72743  24020453.359                    24020462.781
 119432395.177 7  93064284.46145  22727238.039                    22727248.152
 109107014.439 8  85018641.57446  20762369.383                    20762376.285
 108990196.773 8  84927549.75646  20740122.055                    20740131.387
 118329352.372 7  92204799.324 7  22517321.367                    22517330.273
 111444267.300 8  86839811.12946  21207124.219                    21207133.969
 122670118.854 7  95587188.811 6  23343347.680                    23343358.574
 117698875.485 7  91713489.838 7  22397356.148                    22397364.801
 11  8 15  0  6  0.0000000  0  8G28G09G02G04G17G10G05G12
 126327271.741 6  98436897.48743  24039294.141                    24039304.680
 119491312.603 7  93110194.11644  22738449.625                    22738460.188
 109083371.215 8  85000218.30246  20757870.039                    20757877.324
 109051361.872 8  84975210.86346  20751761.422                    20751770.492
 118372981.760 7  92238796.217 7  22525623.633                    22525633.090
 111400786.286 8  86805929.85045  21198850.148                    21198859.473
 122565922.378 7  95505996.903 7  23323519.242                    23323530.535
 117615284.039 7  91648353.687 7  22381448.805                    22381457.582
 11  8 15  0  6 30.0000000  0  8G28G09G02G04G17G10G05G12
 126426506.128 6  98514222.89942  24058178.258                    24058188.828
 119550629.870 6  93156415.32045  22749737.555                    22749748.266
 109060083.194 8  84982071.80446  20753439.008                    20753445.707
 109112826.600 8  85023105.44246  20763457.977                    20763466.855
 118416725.909 7  92272882.520 7  22533948.609                    22533957.016
 111357844.655 8  86772468.86845  21190679.156                    21190688.215
 122461817.027 7  95424875.988 7  23303708.711                    23303719.730
 117531947.083 7  91583415.833 7  22365590.336                    22365599.004
 11  8 15  0  7  0.0000000  0  8G28G09G02G04G17G10G05G12
 126525958.149 6  98591717.87042  24077102.898                    24077114.059
 119610343.623 7  93202945.47344  22761100.891                    22761111.086
 109037148.857 8  84964200.91046  20749074.102                    20749080.930
 109174588.089 8  85071231.25646  20775210.930                    20775220.020
 118460584.421 7  92307057.939 7  22542294.242                    22542303.031
 111315444.270 8  86739429.62745  21182610.391                    21182619.605
 122357806.074 7  95343828.609 6  23283915.773                    23283926.723
 117448866.686 7  91518677.904 7  22349780.641                    22349789.727
 11  8 15  0  7 30.0000000  0  8G28G09G02G04G17G10G05G12
 126625626.225 6  98669381.21842  24096069.914                    24096080.430
 119670451.046 7  93249782.36545  22772539.258                    22772548.988
 109014568.427 8  84946605.78746  20744777.844                    20744784.254
 109236644.743 8  85119587.07746  20787019.609                    20787028.883
 118504558.476 7  92341323.388 7  22550661.555                    22550671.250
 111273587.898 8  86706814.28645  21174645.352                    21174653.898
 122253893.164 7  95262857.621 6  23264142.156                    23264152.184
 117366046.113 7  91454142.432 7  22334020.375                    22334029.094
 11  8 15  0  8  0.0000000  0  8G28G09G02G04G17G10G05G12
 126725508.753 6  98747211.63942  24115076.594                    24115088.094
 119730948.931 7  93296923.52645  22784051.367                    22784061.918
 108992341.013 8  84929285.74246  20740547.695                    20740554.660
 109298993.901 8  85168170.82346  20798884.492                    20798893.543
 118548648.752 7  92375679.399 7  22559052.117                    22559061.035
 111232277.477 8  86674624.36245  21166784.492                    21166793.496
 122150080.397 7  95181964.679 6  23244386.922                    23244398.090
 117283487.628 7  91389811.179 7  22318309.805                    22318318.852
 11  8 15  0  8 30.0000000  0  8G28G09G02G04G17G10G05G12
 126825603.366 6  98825207.29642  24134125.023                    24134135.867
 119791834.103 7  93344366.46145  22795637.117                    22795647.758
 108970465.903 8  84912240.21646  20736384.938                    20736391.879
 109361633.097 8  85216980.56246  20810804.445                    20810813.410
 118592855.433 7  92410126.112 7  22567464.695                    22567473.914
 111191515.175 8  86642861.53945  21159027.203                    21159036.340
 122046370.944 7  95101152.234 6  23224651.938                    23224662.203
 117201193.997 7  91325686.302 7  22302649.742                    22302659.082
 11  8 15  0  9  0.0000000  0  8G28G09G02G04G17G10G05G12
 126925907.650 6  98903366.36543  24153211.195                    24153223.605
 119853103.215 7  93392108.57244  22807296.609                    22807307.250
 108948942.379 8  84895468.64546  20732289.438                    20732296.039
 109424559.573 8  85266014.16446  20822778.766                    20822787.695
 118637179.277 7  92444664.120 7  22575899.406                    22575908.832
 111151302.430 8  86611526.95046  21151375.102                    21151384.266
 121942767.755 7  95020422.563 6  23204936.273                    23204946.859
 117119167.261 7  91261769.408 7  22287040.977                    22287049.813
 11  8 15  0  9 30.0000000  0  8G28G09G02G04G17G10G05G12
 127026420.260 6  98981687.75943  24172338.375                    24172349.918
 119914753.215 7  93440147.48944  22819028.023                    22819039.000
 108927769.991 8  84878970.69046  20728260.320                    20728267.324
 109487771.528 8  85315270.21346  20834807.750                    20834817.125
 118681620.930 7  92479293.928 7  22584356.344                    22584365.762
 111111641.889 8  86580622.64846  21143828.023                    21143837.227
 121839273.600 7  94939777.860 6  23185242.000                    23185253.043
 117037410.363 8  91198062.756 7  22271482.859                    22271491.699
 11  8 15  0 10  0.0000000  0  8G28G09G02G04G17G10G05G12
 127127139.104 6  99060169.86743  24191505.086                    24191515.992
 119976780.674 6  93488480.52344  22830831.266                    22830841.961
 108906948.060 8  84862745.82546  20724298.117                    20724304.590
 109551266.349 8  85364746.68246  20846890.273                    20846899.348
 118726181.037 7  92514016.028 7  22592835.336                    22592844.949
 111072535.279 8  86550149.98446  21136386.406                    21136395.582
 121735891.652 7  94859220.604 6  23165568.852                    23165580.012
 116955925.903 8  91134568.405 7  22255976.961                    22255985.930
 11  8 15  0 10 30.0000000  0  8G28G09G02G04G17G10G05G12
 127228062.145 6  99138811.07743  24210709.672                    24210721.547
 120039182.840 7  93537105.52944  22842706.023                    22842716.934
 108886475.799 8  84846793.42146  20720402.305                    20720409.254
 109615041.737 8  85414441.76746  20859026.570                    20859035.887
 118770860.028 7  92548830.781 7  22601337.445                    22601347.563
 111033984.881 8  86520110.73646  21129050.188                    21129059.578
 121632624.759 7  94778752.976 6  23145918.164                    23145928.633
 116874716.245 7  91071288.163 7  22240523.461                    22240532.063
 11  8 15  0 11  0.0000000  0  8G28G09G02G04G17G10G05G12
 127329188.072 6  99217610.42843  24229954.578                    24229964.832
 120101956.886 7  93586020.31744  22854652.117                    22854663.035
 108866353.311 8  84831113.57146  20716573.320                    20716579.742
 109679095.877 8  85464354.06946  20871215.422                    20871224.746
 118815659.554 7  92583739.462 7  22609863.125                    22609872.770
 110995993.486 8  86490507.07546  21121821.078                    21121829.660
 121529476.577 7  94698377.861 7  23126289.273                    23126300.656
 116793784.737 7  91008224.674 7  22225122.789                    22225131.441
 11  8 15  0 11 30.0000000  0  8G28G09G02G04G17G10G05G12
 127430514.292 6  99296565.84343  24249235.820                    24249246.883
 120165098.891 7  93635221.80844  22866667.281                    22866677.883
 108846579.198 8  84815705.18246  20712810.375                    20712817.016
 109743425.852 8  85514481.30646  20883457.258                    20883466.453
 118860579.166 7  92618741.717 7  22618410.922                    22618420.008
 110958562.176 8  86461339.83946  21114697.781                    21114706.660
 121426449.408 7  94618097.084 7  23106683.891                    23106694.953
 116713133.429 7  90945379.513 7  22209775.219                    22209783.992
 11  8 15  0 12  0.0000000  0  8G28G09G02G04G17G10G05G12
 127532038.931 6  99375675.83343  24268555.078                    24268566.336
 120228605.970 7  93684707.77944  22878752.656                    22878763.570
 108827153.179 8  84800568.04046  20709113.703                    20709120.184
 109808029.803 8  85564822.03146  20895750.734                    20895760.258
 118905619.531 7  92653838.074 7  22626981.758                    22626990.750
 110921693.374 8  86432610.92245  21107681.531                    21107690.695
 121323546.490 7  94537913.092 7  23087102.094                    23087112.535
 116632765.055 7  90882754.824 7  22194481.289                    22194489.875
 11  8 15  0 12 30.0000000  0  8G28G09G02G04G17G10G05G12
 127633759.733 6  99454938.65942  24287911.438                    24287923.938
 120292474.091 7  93734475.07044  22890905.891                    22890917.191
 108808073.907 8  84785701.09646  20705483.023                    20705489.504
 109872904.616 8  85615373.81046  20908096.539                    20908105.594
 118950781.014 7  92689028.783 7  22635575.680                    22635584.789
 110885387.905 8  86404320.96446  21100773.055                    21100782.375
 121220770.037 7  94457827.631 7  23067544.586                    23067555.141
 116552681.864 7  90820352.346 7  22179241.945                    22179251.117
 11  8 15  0 13  0.0000000  0  8G28G09G02G04G17G10G05G12
 127735674.269 6  99534352.54942  24307305.484                    24307317.430
 120356700.543 7  93784521.59344  22903128.148                    22903138.727
 108789340.896 8  84771103.95846  20701918.219                    20701924.934
 109938047.981 8  85666134.86146  20920492.758                    20920501.836
 118996064.378 7  92724314.467 7  22644192.953                    22644202.695
 110849648.044 8  86376471.74546  21093972.047                    21093981.441
 121118123.751 7  94377843.619 7  23048011.148                    23048022.176
 116472886.553 7  90758174.196 7  22164057.570                    22164066.348
 11  8 15  0 13 30.0000000  0  8G30G09G02G04G17G10G05G12
 128048349.04116                  24366796.031
 120421282.390 7  93834845.05444  22915418.008                    22915428.223
 108770953.760 8  84756776.33346  20698419.188                    20698425.844
 110003458.133 8  85717103.78746  20932939.836                    20932949.164
 119041470.823 7  92759696.067 7  22652833.680                    22652842.645
 110814476.564 8  86349065.42446  21087278.984                    21087288.434
 121015610.803 7  94297963.506 7  23028503.766                    23028514.059
 116393381.978 7  90696222.587 7  22148928.508                    22148936.824
 11  8 15  0 14  0.0000000  0  8G30G09G02G04G17G10G05G12
 127941986.552 6  99695115.31153  24346556.539                    24346565.723
 120486216.352 7  93885442.88844  22927774.023                    22927784.473
 108752911.853 8  84742717.73246  20694985.992                    20694992.699
 110069132.681 8  85768278.73946  20945437.336                    20945446.332
 119087000.728 7  92795173.878 7  22661497.391                    22661507.016
 110779875.133 8  86322103.28146  21080695.039                    21080704.367
 120913233.722 7  94218189.263 7  23009021.688                    23009032.633
 116314170.833 7  90634499.618 7  22133854.938                    22133863.852
 11  8 15  0 14 30.0000000  0  8G30G09G02G04G17G10G05G12
 127835774.038 6  99612352.31243  24326344.539                    24326353.949
 120551498.955 7  93936312.38744  22940197.336                    22940207.363
 108735214.277 8  84728927.42746  20691618.047                    20691624.973
 110135069.105 8  85819657.75046  20957984.352                    20957993.879
 119132654.420 7  92830748.159 7  22670185.375                    22670194.828
 110745845.274 8  86295586.52646  21074219.438                    21074228.586
 120810995.532 7  94138523.252 7  22989566.414                    22989577.348
 116235255.635 7  90573007.268 7  22118837.961                    22118846.563
 11  8 15  0 15  0.0000000  0  8G30G09G02G04G17G10G05G12
 127729713.692 6  99529707.89242  24306162.000                    24306171.859
 120617126.361 7  93987450.56644  22952685.570                    22952696.418
 108717859.683 8  84715404.38846  20688315.703                    20688322.578
 110201264.461 8  85871238.52846  20970581.258                    20970589.895
 119178432.411 7  92866419.289 7  22678896.508                    22678905.902
 110712388.348 8  86269516.21746  21067852.172                    21067861.727
 120708898.826 7  94058967.494 7  22970137.656                    22970148.422
 116156638.261 7  90511746.984 7  22103877.633                    22103886.086
 11  8 15  0 15 30.0000000  0  8G30G09G02G04G17G10G05G12
 127623809.208 6  99447184.97342  24286009.008                    24286019.301
 120683096.001 7  94038855.39444  22965239.594                    22965250.188
 108700848.338 8  84702148.81746  20685078.461                    20685085.285
 110267717.217 8  85923019.88146  20983226.672                    20983236.332
 119224335.526 7  92902187.941 7  22687631.641                    22687641.430
 110679507.028 8  86243894.42446  21061595.336                    21061604.711
 120606947.217 7  93979524.788 7  22950737.297                    22950747.848
 116078322.327 7  90450721.594 7  22088974.273                    22088983.285
 11  8 15  0 16  0.0000000  0  8G30G09G02G04G17G10G05G12
 127518062.339 5                  24265885.359
 120749404.125 7  94090523.98844  22977857.188                    22977868.480
 108684178.524 8  84689159.36746  20681906.461                    20681913.184
 110334424.551 8  85974999.60046  20995920.719                    20995929.852
 119270364.205 7  92938054.418 7  22696390.664                    22696400.277
 110647202.167 8  86218721.82146  21055447.922                    21055457.000
 120505143.136 7  93900197.040 7  22931364.273                    22931375.020
 116000309.317 7  90389932.253 7  22074129.523                    22074137.875
 11  8 15  0 16 30.0000000  0  8G30G09G02G04G17G10G05G12
 127412476.38015                  24245790.070
 120816047.685 7  94142453.96544  22990540.063                    22990550.625
 108667849.982 8  84676435.84246  20678798.891                    20678805.746
 110401384.405 8  86027176.09746  21008662.641                    21008671.969
 119316519.064 7  92974019.233 7  22705173.242                    22705183.184
 110615476.288 7  86194000.37546  21049410.469                    21049419.648
 120403490.004 7  93820986.897 7  22912020.234                    22912030.875
 115922602.581 7  90329381.560 7  22059342.445                    22059350.969
 11  8 15  0 17  0.0000000  0  8G30G09G02G04G17G10G05G12
 127307053.66515  99200353.68452  24225731.320                    24225741.184
 120883023.366 7  94194642.74244  23003284.734                    23003295.754
 108651861.757 8  84663977.50246  20675756.602                    20675763.375
 110468594.311 8  86079547.43546  21021452.328                    21021461.570
 119362800.678 7  93010082.807 7  22713980.313                    22713990.012
 110584330.619 8  86169731.04546  21043483.531                    21043492.809
 120301990.504 7  93741896.474 7  22892705.281                    22892716.211
 115845204.419 7  90269071.314 7  22044613.234                    22044621.922
 11  8 15  0 17 30.0000000  0  8G30G09G02G04G17G10G05G12
 127201797.121 5  99118335.72043  24205701.641                    24205712.555
 120950327.791 7  94247087.69944  23016092.039                    23016102.770
 108636212.965 8  84651783.65146  20672778.742                    20672785.641
 110536051.903 8  86132111.78246  21034289.438                    21034298.777
 119409209.584 7  93046245.561 7  22722811.813                    22722821.164
 110553766.952 8  86145915.21246  21037667.453                    21037677.039
 120200647.585 7  93662928.045 7  22873420.164                    22873430.961
 115768117.645 7  90209003.715 7  22029944.469                    22029953.301
 11  8 15  0 18  0.0000000  0  8G30G09G02G04G17G10G05G12
 127096709.582 6  99036449.41043  24185704.633                    24185715.461
 121017957.913 7  94299786.43244  23028961.820                    23028972.297
 108620903.124 8  84639853.91346  20669865.563                    20669872.262
 110603755.068 8  86184867.47946  21047172.359                    21047181.867
 119455746.654 7  93082508.177 6  22731667.523                    22731677.035
 110523787.101 8  86122554.30846  21031962.602                    21031972.164
 120099464.347 7  93584084.039 7  22854165.969                    22854176.563
 115691344.552 7  90149180.543 7  22015334.961                    22015343.762
 11  8 15  0 18 30.0000000  0  8G30G09G02G04G17G10G05G12
 126991793.414 7  98954696.61844  24165740.117                    24165750.570
 121085909.646 7  94352735.77744  23041892.492                    23041903.164
 108605930.806 8  84628187.18046  20667016.203                    20667023.367
 110671701.097 8  86237812.42846  21060102.219                    21060111.250
 119502412.176 7  93118870.887 7  22740547.289                    22740556.770
 110494392.325 8  86099649.30746  21026368.680                    21026378.125
 119998443.715 7  93505366.708 7  22834942.383                    22834953.023
 115614887.645 8  90089603.752 7  22000785.508                    22000794.516
 11  8 15  0 19  0.0000000  0  8G30G09G02G04G17G10G05G12
 126887051.993 7  98873080.00644  24145808.203                    24145818.883
 121154180.521 7  94405933.81144  23054884.273                    23054895.051
 108591296.124 8  84616783.54546  20664231.555                    20664237.832
 110739888.520 8  86290945.47846  21073078.031                    21073087.000
 119549207.254 7  93155334.559 6  22749452.531                    22749462.074
 110465584.734 8  86077201.85546  21020887.125                    21020896.059
 119897589.020 7  93426778.748 7  22815750.398                    22815760.727
 115538749.939 8  90030275.688 7  21986297.047                    21986305.922
 11  8 15  0 19 30.0000000  0  8G30G09G02G04G17G10G05G12
 126782487.684 7  98791601.36244  24125910.500                    24125921.008
 121222766.824 7  94459377.62844  23067935.734                    23067946.086
 108576997.997 8  84605642.16046  20661510.594                    20661517.105
 110808314.286 8  86344264.25846  21086099.094                    21086108.055
 119596132.289 7  93191899.485 6  22758382.227                    22758391.641
 110437365.685 8  86055213.00646  21015517.008                    21015526.293
 119796903.018 7  93348322.204 7  22796590.656                    22796600.594
 115462934.021 7  89971198.362 7  21971869.695                    21971878.281
 11  8 15  0 20  0.0000000  0  8G30G09G02G04G17G10G05G12
 126678102.486 7  98710262.28144  24106046.211                    24106056.914
 121291664.417 7  94513064.01344  23081046.406                    23081057.512
 108563033.964 8  84594761.10146  20658852.984                    20658859.672
 110876975.664 8  86397766.62446  21099164.945                    21099174.059
 119643187.172 7  93228565.570 7  22767336.992                    22767346.184
 110409735.860 8  86033683.28746  21010259.172                    21010268.074
 119696388.086 7  93269998.971 7  22777462.984                    22777473.563
 115387441.506 8  89912373.038 7  21957504.086                    21957512.805
 11  8 15  0 20 30.0000000  0  8G30G09G02G04G17G10G05G12
 126573900.154 7  98629065.70944  24086216.969                    24086227.234
 121360871.059 7  94566991.20444  23094216.445                    23094227.305
 108549405.159 8  84584141.26246  20656259.547                    20656266.145
 110945871.232 8  86451451.47946  21112274.969                    21112284.520
 119690373.388 7  93265334.004 6  22776316.219                    22776325.465
 110382697.802 8  86012614.68746  21005114.508                    21005123.297
 119596048.038 7  93191812.010 7  22758369.000                    22758379.082
 115312275.802 7  89853802.380 7  21943200.359                    21943209.348
 11  8 15  0 21  0.0000000  0  8G30G09G02G04G17G10G05G12
 126469883.473 6  98548013.78744  24066423.797                    24066433.852
 121430383.461 7  94621156.64444  23107443.984                    23107455.547
 108536110.700 8  84573781.94046  20653729.664                    20653736.402
 111014998.812 8  86505317.11546  21125429.953                    21125438.977
 119737691.518 7  93302205.229 7  22785320.141                    22785330.172
 110356253.116 7  85992008.46246  21000081.836                    21000090.926
 119495885.924 7  93113763.694 7  22739308.914                    22739318.930
 115237439.711 8  89795488.564 7  21928959.641                    21928968.211
 11  8 15  0 21 30.0000000  0  8G30G09G02G04G17G10G05G12
 126366055.188 6  98467108.63743  24046664.914                    24046675.391
 121500198.265 7  94675557.72944  23120729.227                    23120740.672
 108523149.774 8  84563682.51746  20651263.367                    20651270.180
 111084356.079 8  86559361.73746  21138627.852                    21138637.313
 119785142.133 7  93339179.681 7  22794349.930                    22794359.547
 110330403.466 8  85971865.89646  20995162.742                    20995172.113
 119395904.551 7  93035856.216 7  22720282.594                    22720293.367
 115162936.012 8  89737433.746 7  21914782.047                    21914790.820
 11  8 15  0 22  0.0000000  0  8G30G09G02G04G17G10G05G12
 126262417.218 6  98386351.83443  24026943.547                    24026954.117
 121570311.567 7  94730191.40444  23134071.414                    23134083.105
 108510520.052 8  84553841.17646  20648860.133                    20648866.906
 111153939.832 8  86613582.82646  21151869.617                    21151878.945
 119832725.212 7  93376257.380 7  22803404.758                    22803414.520
 110305148.985 8  85952187.09246  20990356.688                    20990366.266
 119296106.116 7  92958091.284 7  22701291.633                    22701302.031
 115088765.912 7  89679638.881 7  21900667.797                    21900676.016
 11  8 15  0 22 30.0000000  0  8G30G09G02G04G17G10G05G12
 126158973.171 6  98305746.17842  24007258.922                    24007268.961
 121640720.439 7  94785055.39444  23147469.953                    23147480.922
 108498221.890 8  84544258.19146  20646519.930                    20646526.414
 111223748.519 8  86667979.19146  21165153.773                    21165163.000
 119880442.143 7  93413439.355 7  22812485.102                    22812495.223
 110280492.333 8  85932974.12046  20985664.984                    20985674.305
 119196494.491 7  92880471.922 7  22682336.391                    22682346.504
 115014932.905 8  89622106.678 7  21886618.102                    21886626.527
 11  8 15  0 23  0.0000000  0  8G30G09G02G04G17G10G05G12
 126055725.656 6  98225293.56142  23987610.836                    23987621.711
 121711421.260 7  94840146.88944  23160923.820                    23160934.680
 108486253.986 8  84534932.55146  20644242.125                    20644249.117
 111293779.660 8  86722548.90146  21178479.961                    21178489.375
 119928292.976 7  93450725.669 7  22821590.461                    22821600.805
 110256434.666 8  85914227.90846  20981086.813                    20981096.320
 119097072.577 7  92803000.366 7  22663416.313                    22663426.914
 114941439.632 8  89564839.216 7  21872632.633                    21872641.191
 11  8 15  0 23 30.0000000  0  8G30G09G02G04G17G10G05G12
 125952677.333 6  98144996.15742  23968001.992                    23968011.641
 121782410.360 7  94895463.00244  23174432.617                    23174443.594
 108474615.354 8  84525863.48846  20642027.344                    20642034.473
 111364031.086 8  86777290.25946  21191848.711                    21191857.805
 119976278.732 7  93488117.123 7  22830722.461                    22830731.938
 110232977.010 8  85895949.22046  20976623.008                    20976632.602
 118997842.968 7  92725678.663 7  22644534.281                    22644543.750
 114868288.486 7  89507838.342 7  21858712.688                    21858721.445
 11  8 15  0 24  0.0000000  0  8G30G09G02G04G17G10G05G12
 125849831.280 6  98064856.40842  23948431.422                    23948441.051
 121853684.956 7  94951001.58544  23187995.891                    23188007.113
 108463305.595 8  84517050.68646  20639875.656                    20639882.477
 111434500.612 8  86832201.55746  21205258.188                    21205267.230
 120024399.781 7  93525613.998 7  22839878.867                    22839889.016
 110210121.017 8  85878139.37446  20972273.789                    20972282.738
 118898809.318 7  92648509.668 7  22625688.383                    22625698.449
 114795481.925 8  89451105.981 7  21844857.773                    21844866.582
 11  8 15  0 24 30.0000000  0  8G30G09G02G04G17G10G05G12
 125747189.779 6  97984876.02743  23928898.781                    23928908.715
 121925241.267 7  95006759.67444  23201612.844                    23201623.582
 108452323.226 8  84508492.99446  20637785.609                    20637792.477
 111505185.694 8  86887280.82946  21218709.266                    21218718.582
 120072656.598 7  93563216.686 6  22849061.695                    22849071.965
 110187867.549 8  85860799.02746  20968039.031                    20968048.289
 118799974.019 7  92571495.223 7  22606880.680                    22606890.719
 114723022.524 8  89394644.119 7  21831069.273                    21831077.996
 11  8 15  0 25  0.0000000  0  8G30G09G02G04G17G10G05G12
 125644756.478 6  97905057.95543  23909406.672                    23909416.609
 121997076.559 7  95062735.14744  23215282.641                    23215294.129
 108441668.130 8  84500190.32146  20635757.906                    20635764.848
 111576084.842 8  86942526.89846  21232200.703                    21232210.004
 120121050.449 7  93600926.130 7  22858271.055                    22858281.086
 110166218.977 8  85843930.02046  20963919.563                    20963928.629
 118701340.438 7  92494637.964 7  22588111.414                    22588121.523
 114650913.004 8  89338454.887 7  21817347.484                    21817355.695
 11  8 15  0 25 30.0000000  0  8G30G09G02G04G17G10G05G12
 125542533.249 6  97825403.54543  23889954.086                    23889964.258
 122069186.513 7  95118924.65344  23229005.172                    23229016.172
 108431338.467 8  84492141.23746  20633792.453                    20633798.883
 111647194.968 8  86997937.36745  21245733.023                    21245741.836
 120169581.307 7  93638742.341 6  22867506.430                    22867515.770
 110145175.465 7  85827532.48146  20959914.945                    20959924.352
 118602911.058 7  92417939.804 7  22569380.813                    22569390.770
 114579155.636 8  89282540.076 7  21803692.297                    21803701.160
 11  8 15  0 26  0.0000000  0  8G30G09G02G04G17G10G05G12
 125440523.254 6  97745915.31943  23870542.383                    23870552.379
 122141568.014 7  95175325.74044  23242778.289                    23242790.172
 108421333.636 8  84484345.26346  20631888.555                    20631895.527
 111718514.018 8  87053510.62646  21259304.117                    21259313.605
 120218249.926 7  93676665.901 6  22876767.898                    22876776.926
 110124738.642 7  85811607.70046  20956025.859                    20956035.156
 118504689.411 7  92341403.521 7  22550689.477                    22550699.719
 114507753.158 7  89226901.786 7  21790105.031                    21790113.305
 11  8 15  0 26 30.0000000  0  9G30G25G09G02G04G17G10G05G12
 125338729.582 6  97666595.59443  23851171.633                    23851181.172
 129673633.32716 101044451.59716  24676084.148
 122214217.975 7  95231936.03044  23256603.578                    23256614.895
 108411653.154 8  84476802.03146  20630046.102                    20630053.063
 111790040.054 8  87109245.17146  21272915.219                    21272924.641
 120267057.084 7  93714697.406 6  22886055.766                    22886064.555
 110104909.744 8  85796156.61746  20952252.594                    20952262.277
 118406678.200 7  92265031.220 7  22532038.477                    22532048.922
 114436708.237 8  89171542.130 7  21776585.398                    21776594.035
 11  8 15  0 27  0.0000000  0  9G30G25G09G02G04G17G10G05G12
 125237154.203 6  97587446.03744  23831842.320                    23831852.496
 129570257.082 7 100963898.726 6  24656411.742                    24656424.648
 122287132.348 6  95288752.36544  23270478.359                    23270489.621
 108402295.344 8  84469510.23546  20628265.234                    20628272.340
 111861770.315 8  87165138.85146  21286565.188                    21286574.500
 120316002.873 7  93752836.941 7  22895369.836                    22895379.523
 110085689.225 8  85781179.60246  20948595.453                    20948604.465
 118308880.092 7  92188824.964 7  22513428.359                    22513438.445
 114366022.837 8  89116462.609 7  21763134.547                    21763142.941
 11  8 15  0 27 30.0000000  0  9G30G25G09G02G04G17G10G05G12
 125135799.835 6  97508468.64743  23812555.266                    23812565.277
 129466982.753 6 100883425.271 6  24636759.828                    24636772.289
 122360307.915 7  95345772.22644  23284403.508                    23284414.566
 108393258.951 8  84462468.90046  20626546.148                    20626553.070
 111933702.291 8  87221189.71546  21300253.164                    21300262.523
 120365087.464 7  93791084.642 7  22904710.047                    22904719.203
 110067078.134 8  85766677.46546  20945053.516                    20945062.273
 118211297.696 7  92112786.789 7  22494859.063                    22494868.848
 114295699.060 7  89061664.872 7  21749752.172                    21749760.637
 11  8 15  0 28  0.0000000  0  9G30G25G09G02G04G17G10G05G12
 125034670.293 6  97429666.46144  23793311.461                    23793321.426
 129363813.759 6 100803033.841 5  24617127.148                    24617139.508
 122433741.762 7  95402993.34644  23298377.648                    23298388.328
 108384544.109 8  84455678.11546  20624887.430                    20624894.086
 112005834.708 8  87277396.75546  21313979.570                    21313988.891
 120414312.540 7  93829441.810 6  22914077.391                    22914086.531
 110049078.786 8  85752652.00546  20941628.375                    20941637.473
 118113935.112 7  92036919.901 7  22476331.461                    22476341.645
 114225740.396 7  89007151.638 7  21736439.430                    21736447.934
 11  8 15  0 28 30.0000000  0  9G30G25G09G02G04G17G10G05G12
 124933768.084 6  97351041.41243  23774109.672                    23774120.082
 129260752.304 6 100722726.249 6  24597515.656                    24597527.445
 122507430.461 7  95460413.05744  23312400.039                    23312411.117
 108376149.428 8  84449136.81046  20623290.102                    20623296.523
 112078164.991 8  87333757.97945  21327743.859                    21327753.172
 120463678.524 7  93867908.776 6  22923470.922                    22923481.289
 110031691.960 8  85739103.83346  20938319.352                    20938328.672
 118016795.002 7  91961226.373 7  22457845.875                    22457856.133
 114156149.200 8  88952924.737 7  21723196.766                    21723205.383
 11  8 15  0 29  0.0000000  0  9G30G25G09G02G04G17G10G05G12
 124833096.110 6  97272595.72744  23754952.242                    23754962.883
 129157800.843 6 100642504.382 5  24577924.070                    24577936.719
 122581370.427 7  95518028.55744  23326470.281                    23326481.844
 108368074.002 8  84442844.28046  20621753.531                    20621760.219
 112150691.172 8  87390271.85245  21341544.852                    21341554.059
 120513186.080 7  93906486.062 6  22932892.008                    22932902.559
 110014918.642 8  85726033.72646  20935127.773                    20935136.938
 117919880.394 7  91885708.556 7  22439403.875                    22439414.102
 114086928.229 7  88898986.329 7  21710024.445                    21710033.250
 11  8 15  0 29 30.0000000  0  9G30G25G09G02G04G17G10G05G12
 124732657.054 6  97194331.56444  23735840.016                    23735849.891
 129054961.835 5 100562370.105 5  24558355.117                    24558367.367
 122655558.273 7  95575837.21844  23340587.773                    23340599.281
 108360316.947 8  84436799.82446  20620277.336                    20620283.914
 112223410.963 8  87446936.59046  21355383.078                    21355392.559
 120562835.842 7  93945174.155 6  22942340.430                    22942350.203
 109998759.841 8  85713442.46346  20932053.063                    20932062.305
 117823194.291 7  91810368.806 7  22421004.883                    22421015.328
 114018079.724 8  88845338.156 7  21696923.328                    21696931.555
 11  8 15  0 30  0.0000000  0  9G30G25G09G02G04G17G10G05G12
 124632454.071 6  97116251.33844  23716771.789                    23716782.340
 128952237.935 5 100482325.567 6  24538805.813                    24538819.652
 122729990.865 7  95633836.57444  23354751.945                    23354763.980
 108352877.327 8  84431002.73046  20618861.305                    20618868.113
 112296322.498 8  87503750.73145  21369258.133                    21369267.270
 120612628.232 7  93983973.392 6  22951815.766                    22951825.531
 109983216.647 8  85701330.88446  20929094.789                    20929104.215
 117726739.688 7  91735209.437 7  22402650.297                    22402660.738
 113949606.469 8  88791982.383 7  21683893.031                    21683901.465
 11  8 15  0 30 30.0000000  0  9G30G25G09G02G04G17G10G05G12
 124532489.797 6  97038357.11143  23697748.813                    23697759.395
 128849631.639 6 100402372.712 6  24519280.344                    24519293.852
 122804664.767 7  95692023.96344  23368961.508                    23368973.191
 108345754.046 8  84425452.12846  20617505.891                    20617512.914
 112369423.330 7  87560712.38045  21383168.727                    21383177.789
 120662563.979 7  94022884.313 7  22961318.008                    22961328.379
 109968290.296 8  85689699.96946  20926254.602                    20926264.098
 117630519.510 7  91660232.733 7  22384340.406                    22384350.297
 113881510.822 8  88738920.846 7  21670934.844                    21670943.324
 11  8 15  0 31  0.0000000  0  9G30G25G09G02G04G17G10G05G12
 124432767.255 6  96960651.25644  23678772.695                    23678782.320
 128747145.429 6 100322513.437 6  24499778.320                    24499791.344
 122879576.364 7  95750396.58844  23383217.047                    23383229.047
 108338946.352 8  84420147.43746  20616210.914                    20616217.441
 112442711.310 8  87617819.86645  21397114.813                    21397124.008
 120712643.638 7  94061907.391 6  22970848.148                    22970857.492
 109953981.572 8  85678550.32846  20923531.820                    20923540.945
 117534536.868 7  91585441.110 7  22366075.180                    22366085.031
 113813795.371 8  88686155.575 7  21658048.797                    21658057.672
 11  8 15  0 31 30.0000000  0  9G30G25G09G02G04G17G10G05G12
 124333289.250 6  96883135.93344  23659841.727                    23659852.555
 128644781.939 7 100242749.726 7  24480299.516                    24480312.348
 122954722.275 6  95808951.77144  23397517.289                    23397528.309
 108332453.460 8  84415088.05546  20614975.031                    20614981.488
 112516184.509 8  87675071.67545  21411095.945                    21411105.520
 120762867.868 7  94101043.122 7  22980405.391                    22980415.332
 109940291.186 8  85667882.50246  20920926.484                    20920935.945
 117438794.714 7  91510836.896 7  22347856.242                    22347866.348
 113746462.547 8  88633688.459 7  21645236.102                    21645244.660
 11  8 15  0 32  0.0000000  0  9G30G25G09G02G04G17G10G05G12
 124234058.338 6  96805813.16243  23640959.625                    23640969.363
 128542543.335 7 100163083.352 7  24460843.703                    24460857.469
 123030098.974 7  95867686.79944  23411860.750                    23411872.008
 108326273.910 8  84410272.82746  20613799.313                    20613805.715
 112589840.317 8  87732465.76845  21425112.305                    21425122.012
 120813237.139 7  94140291.850 6  22989990.484                    22989999.527
 109927220.055 8  85657697.21846  20918439.508                    20918448.520
 117343295.898 7  91436422.289 7  22329683.070                    22329692.922
 113679514.695 8  88581521.306 7  21632496.406                    21632504.656
 11  8 15  0 32 30.0000000  0  9G30G25G09G02G04G17G10G05G12
 124135077.512 6  96728685.25443  23622123.805                    23622134.184
 128440432.295 7 100083516.335 7  24441413.672                    24441425.664
 123105703.390 6  95926599.28844  23426247.781                    23426259.699
 108320406.731 8  84405701.00946  20612682.695                    20612689.297
 112663676.783 8  87790000.63845  21439163.281                    21439172.680
 120863751.958 7  94179653.988 6  22999603.578                    22999612.438
 109914769.014 8  85647995.11746  20916070.109                    20916079.074
 117248043.176 7  91362199.450 7  22311557.016                    22311567.059
 113612954.348 8  88529656.105 7  21619830.305                    21619838.898
 11  8 15  0 33  0.0000000  0  9G30G25G09G02G04G17G10G05G12
 124036349.209 6  96651754.16143  23603336.367                    23603346.906
 128338450.816 7 100004050.287 7  24422006.461                    24422019.609
 123181531.639 6  95985686.19044  23440677.328                    23440688.996
 108314850.404 8  84401371.40346  20611625.484                    20611632.012
 112737691.356 8  87847674.29145  21453248.000                    21453257.105
 120914412.811 7  94219129.926 6  23009243.945                    23009253.188
 109902938.416 8  85638776.48046  20913818.578                    20913827.965
 117153039.313 7  91288170.516 7  22293478.359                    22293488.313
 113546783.311 8  88478094.276 7  21607238.414                    21607246.730
 11  8 15  0 33 30.0000000  0  9G30G25G09G02G04G17G10G05G12
 123937876.364 6  96575022.11743  23584597.375                    23584607.836
 128236601.648 7  99924687.339 7  24402625.148                    24402638.438
 123257580.545 7  96044945.01144  23455149.047                    23455160.813
 108309603.964 8  84397283.27046  20610627.148                    20610633.566
 112811882.246 8  87905485.33845  21467365.922                    21467375.012
 120965220.438 7  94258720.231 6  23018912.063                    23018921.879
 109891729.438 8  85630042.23446  20911685.227                    20911694.809
 117058287.498 7  91214337.986 7  22275448.070                    22275457.293
 113481004.504 8  88426838.081 7  21594720.625                    21594729.680
 11  8 15  0 34  0.0000000  0  9G30G25G09G02G04G17G10G05G12
 123839662.137 6  96498491.57543  23565907.938                    23565919.223
 128134887.603 7  99845429.671 7  24383269.805                    24383282.840
 123333846.511 7  96104372.96944  23469661.648                    23469673.941
 108304667.135 8  84393436.40746  20609687.711                    20609694.129
 112886247.440 8  87963432.20145  21481517.039                    21481526.273
 121016175.477 7  94298425.381 7  23028608.398                    23028618.148
 109881143.220 8  85621793.24246  20909671.352                    20909680.652
 116963791.000 7  91140704.401 7  22257465.313                    22257475.211
 113415621.061 8  88375889.956 7  21582278.781                    21582287.461
 11  8 15  0 34 30.0000000  0  9G30G25G09G02G04G17G10G05G12
 123741709.640 6  96422165.03843  23547268.883                    23547278.688
 128033311.488 6  99766279.476 6  24363940.734                    24363953.684
 123410326.657 6  96163967.81444  23484215.914                    23484227.277
 108300038.983 8  84389830.05946  20608807.047                    20608813.938
 112960784.951 8  88021513.34245  21495701.406                    21495710.363
 121067278.653 7  94338245.976 6  23038333.234                    23038342.855
 109871180.815 7  85614030.34346  20907775.352                    20907784.586
 116869552.752 7  91067272.059 7  22239532.531                    22239542.328
 113350635.158 8  88325251.597 7  21569912.242                    21569921.160
 11  8 15  0 35  0.0000000  0  9G30G25G09G02G04G17G10G05G12
 123644021.016 6  96346044.07444  23528679.320                    23528688.797
 127931875.080 6  99687238.147 6  24344637.352                    24344649.938
 123487016.844 7  96223726.33344  23498809.469                    23498821.301
 108295717.626 8  84386462.77246  20607984.359                    20607991.051
 113035491.949 8  88079726.55345  21509917.148                    21509926.914
 121118530.039 7  94378182.062 6  23048086.203                    23048095.719
 109861841.959 8  85606753.32146  20905998.133                    20906008.172
 116775575.310 7  90994042.941 7  22221649.148                    22221659.480
 113286048.185 8  88274924.102 7  21557621.914                    21557630.688
 11  8 15  0 35 30.0000000  0  9G30G25G09G02G04G17G10G05G12
 123546599.165 6  96270130.99943  23510139.906                    23510149.680
 127830581.050 6  99608307.762 6  24325361.648                    24325374.496
 123563913.710 7  96283645.89944  23513442.789                    23513454.215
 108291702.347 8  84383333.99046  20607220.227                    20607227.059
 113110366.741 8  88138070.51045  21524165.297                    21524174.773
 121169930.393 7  94418234.239 6  23057867.000                    23057876.738
 109853127.545 8  85599962.87846  20904340.453                    20904349.363
 116681861.486 7  90921019.233 7  22203816.156                    22203826.219
 113221863.086 8  88224909.750 7  21545407.961                    21545416.586
 11  8 15  0 36  0.0000000  0  9G30G25G09G02G04G17G10G05G12
 123449447.073 6  96194428.12443  23491652.500                    23491662.652
 127729432.141 6  99529490.471 6  24306113.656                    24306126.895
 123641013.996 7  96343723.97144  23528114.609                    23528125.980
 108287991.837 8  84380442.68646  20606514.109                    20606521.000
 113185407.134 8  88196543.51145  21538445.148                    21538454.609
 121221480.317 7  94458402.952 7  23067676.594                    23067686.934
 109845038.544 8  85593659.77046  20902800.789                    20902810.160
 116588414.478 7  90848203.438 7  22186033.688                    22186043.762
 113158082.411 8  88175210.544 7  21533271.344                    21533279.797
 11  8 15  0 36 30.0000000  0  9G30G25G09G02G04G17G10G05G12
 123352567.772 6  96118937.84044  23473216.672                    23473227.078
 127628431.001 6  99450788.242 5  24286894.047                    24286906.090
 123718314.536 7  96403958.12144  23542823.820                    23542836.031
 108284585.457 8  84377788.36646  20605866.234                    20605873.301
 113260611.051 8  88255143.92045  21552756.352                    21552765.453
 121273180.583 7  94498688.817 7  23077515.117                    23077525.512
 109837575.523 7  85587844.43946  20901380.492                    20901389.832
 116495237.508 7  90775598.067 7  22168302.594                    22168312.664
 113094708.753 8  88125828.482 7  21521211.102                    21521219.984
 11  8 15  0 37  0.0000000  0  9G30G25G09G02G04G17G10G05G12
 123255964.202 7  96043662.34843  23454833.891                    23454843.824
 127527580.327 6  99372203.275 5  24267703.469                    24267714.762
 123795811.912 7  96464345.63944  23557571.797                    23557582.844
 108281482.250 8  84375370.28446  20605275.438                    20605282.258
 113335976.892 8  88313870.51645  21567097.758                    21567107.781
 121325031.685 7  94539092.247 6  23087381.539                    23087392.348
 109830739.110 8  85582517.36946  20900079.281                    20900088.859
 116402333.107 7  90703205.084 7  22150623.641                    22150633.602
 113031744.578 8  88076765.502 7  21509229.391                    21509237.953
 11  8 15  0 37 30.0000000  0  9G30G25G09G02G04G17G10G05G12
 123159639.268 7  95968604.04143  23436504.078                    23436514.043
 127426882.721 6  99293737.602 5  24248540.945                    24248552.563
 123873502.560 7  96524883.72244  23572355.625                    23572366.941
 108278681.209 8  84373187.66346  20604742.602                    20604748.840
 113411502.330 8  88372721.45945  21581469.734                    21581479.484
 121377034.374 7  94579613.754 6  23097277.727                    23097288.223
 109824529.964 8  85577679.08746  20898897.703                    20898907.402
 116309704.723 7  90631027.182 7  22132996.641                    22133006.488
 112969192.309 8  88028023.492 7  21497326.289                    21497335.172
 11  8 15  0 38  0.0000000  0  9G30G25G09G02G04G17G10G05G12
 123063595.218 6  95893764.56443  23418227.156                    23418236.902
 127326340.342 7  99215392.891 6  24229408.281                    24229420.461
 123951382.908 6  96585569.62744  23587175.773                    23587187.586
 108276180.594 7  84371239.13846  20604266.781                    20604273.133
 113487184.841 7  88431694.80945  21595872.000                    21595881.328
 121429188.846 7  94620253.552 6  23107202.570                    23107212.535
 109818948.211 7  85573329.68246  20897835.891                    20897845.125
 116217354.603 7  90559066.104 7  22115423.133                    22115433.316
 112907053.798 7  87979603.890 7  21485501.617                    21485510.449
 11  8 15  0 38 30.0000000  0  9G30G25G09G02G04G17G10G05G12
 122967835.494 6  95819146.65943  23400004.039                    23400014.004
 127225956.218 7  99137171.539 6  24210305.539                    24210318.613
 124029450.158 7  96646401.17844  23602031.422                    23602042.965
 108273980.015 8  84369524.39346  20603848.070                    20603854.688
 113563023.074 8  88490789.51445  21610303.484                    21610313.230
 121481495.936 7  94661012.292 6  23117157.070                    23117165.930
 109813995.065 8  85569470.08746  20896893.219                    20896902.641
 116125286.208 7  90487324.561 7  22097902.852                    22097912.910
 112845331.938 7  87931508.964 7  21473756.367                    21473764.906
 11  8 15  0 39  0.0000000  0  9G30G25G09G02G04G17G10G05G12
 122872362.529 7  95744752.15744  23381836.875                    23381845.996
 127125732.460 7  99059075.149 6  24191233.852                    24191246.324
 124107700.219 7  96707375.19544  23616922.266                    23616933.539
 108272077.974 8  84368042.28446  20603486.180                    20603492.383
 113639014.395 8  88550003.49745  21624764.211                    21624773.805
 121533956.075 7  94701890.266 6  23127139.516                    23127148.953
 109809670.413 8  85566100.23446  20896070.188                    20896079.676
 116033502.046 7  90415804.490 7  22080437.055                    22080446.973
 112784028.622 7  87883740.164 7  21462090.508                    21462099.168
 11  8 15  0 39 30.0000000  0  9G30G25G09G02G04G17G10G05G12
 122777179.306 6  95670583.46244  23363724.336                    23363734.508
 127025671.939 7  98981105.969 6  24172192.664                    24172204.906
 124186129.889 7  96768489.13944  23631847.063                    23631858.336
 108270473.675 8  84366792.18746  20603180.477                    20603187.387
 113715156.980 8  88609335.34945  21639253.578                    21639263.102
 121586569.902 7  94742888.000 6  23137151.664                    23137161.230
 109805974.720 7  85563220.48846  20895367.086                    20895376.516
 115942005.351 7  90344508.420 7  22063025.539                    22063035.672
 112723146.686 7  87836299.716 7  21450505.359                    21450513.797
 11  8 15  0 40  0.0000000  0  9G30G25G09G02G04G17G10G05G12
 122682288.762 6  95596642.84544  23345667.070                    23345676.969
 126925777.204 7  98903265.936 6  24153183.875                    24153196.152
 124264735.670 6  96829740.30244  23646805.242                    23646816.727
 108269165.672 8  84365772.95446  20602931.891                    20602938.113
 113791448.701 8  88668783.42945  21653771.117                    21653780.914
 121639337.858 7  94784005.831 6  23147192.852                    23147202.199
 109802908.571 7  85560831.28746  20894783.883                    20894793.207
 115850798.953 7  90273438.551 7  22045669.758                    22045679.398
 112662688.295 8  87789189.303 7  21439000.047                    21439008.914
 11  8 15  0 40 30.0000000  0  9G30G25G09G02G04G17G10G05G12
 122587693.685 6  95522932.43743  23327665.266                    23327675.898
 126826050.899 7  98825557.245 6  24134205.867                    24134219.137
 124343514.324 7  96891126.19044  23661796.055                    23661807.680
 108268153.220 8  84364984.03146  20602738.719                    20602745.480
 113867887.661 8  88728346.22545  21668317.070                    21668326.375
 121692260.607 7  94825244.301 6  23157263.859                    23157273.656
 109800472.280 7  85558932.88546  20894319.992                    20894329.410
 115759885.574 7  90202597.010 7  22028369.375                    22028379.277
 112602656.023 7  87742410.932 7  21427576.469                    21427584.852
 11  8 15  0 41  0.0000000  0  9G30G25G09G02G04G17G10G05G12
 122493396.738 6  95449454.32744  23309721.563                    23309731.535
 126726495.361 7  98747981.516 6  24115261.602                    24115273.805
 124422462.164 7  96952643.91144  23676820.055                    23676831.070
 108267434.848 8  84364424.25846  20602602.555                    20602609.195
 113944471.587 8  88788021.98045  21682890.492                    21682900.004
 121745338.583 7  94866603.718 6  23167364.461                    23167373.566
 109798666.174 7  85557525.53646  20893976.203                    20893985.656
 115669268.032 7  90131985.985 7  22011125.727                    22011134.820
 112543051.394 7  87695965.790 7  21416233.969                    21416242.922
 11  8 15  0 41 30.0000000  0  9G30G25G09G02G04G17G10G05G12
 122399401.225 6  95376211.08744  23291835.352                    23291844.695
 126627113.596 7  98670541.277 6  24096349.328                    24096362.555
 124501576.268 6  97014291.18444  23691874.383                    23691886.125
 108267009.833 8  84364093.07346  20602521.641                    20602528.293
 114021198.793 8  88847809.39045  21697491.359                    21697500.832
 121798572.484 7  94908084.635 6  23177494.133                    23177503.801
 109797490.854 8  85556609.69846  20893752.672                    20893762.137
 115578949.773 8  90061608.164 7  21993938.641                    21993948.188
 112483877.748 7  87649856.470 7  21404973.930                    21404982.512
 11  8 15  0 42  0.0000000  0  9G30G25G09G02G04G17G10G05G12
 122305709.470 6  95303204.56144  23274005.969                    23274016.273
 126527907.945 7  98593238.217 6  24077471.516                    24077483.859
 124580852.932 6  97076065.11043  23706960.375                    23706972.090
 108266876.891 8  84363989.47146  20602496.031                    20602502.520
 114098067.113 8  88907706.74245  21712119.219                    21712128.359
 121851962.549 7  94949687.235 6  23187654.305                    23187664.023
 109796946.144 8  85556185.25446  20893648.852                    20893658.336
 115488933.000 7  89991465.269 7  21976808.727                    21976818.121
 112425136.627 7  87604084.193 7  21393795.922                    21393804.422
 11  8 15  0 42 30.0000000  0  9G30G25G09G02G04G17G10G05G12
 122212324.614 7  95230437.21044  23256235.508                    23256245.805
 126428881.134 7  98516074.522 7  24058627.164                    24058639.848
 124660289.001 6  97137963.25244  23722077.172                    23722088.754
 108267035.107 8  84364112.75946  20602526.469                    20602532.906
 114175074.739 8  88967712.65245  21726773.586                    21726783.219
 121905509.524 7  94991412.117 6  23197843.094                    23197853.781
 109797032.713 8  85556252.71546  20893665.109                    20893674.633
 115399221.093 7  89921559.945 7  21959736.945                    21959746.398
 112366830.735 7  87558651.038 7  21382700.344                    21382708.797
 11  8 15  0 43  0.0000000  0  9G30G25G09G02G04G17G10G05G12
 122119249.276 6  95157911.02844  23238523.711                    23238534.137
 126330035.577 7  98439052.054 6  24039817.234                    24039830.004
 124739880.662 6  97199982.63244  23737222.750                    23737234.547
 108267483.134 8  84364461.87246  20602611.516                    20602618.102
 114252219.240 8  89027825.22445  21741453.258                    21741462.914
 121959214.380 6  95033260.017 6  23208063.125                    23208073.383
 109797750.732 8  85556812.21246  20893802.359                    20893811.117
 115309816.447 7  89851894.038 7  21942723.992                    21942733.711
 112308962.102 7  87513558.606 7  21371688.617                    21371697.301
 11  8 15  0 43 30.0000000  0  9G30G25G09G02G04G17G10G05G12
 122026486.563 7  95085628.41744  23220872.031                    23220881.297
 126231374.086 7  98362173.011 6  24021042.797                    24021055.336
 124819624.729 7  97262120.78644  23752397.305                    23752409.523
 108268219.711 8  84365035.82646  20602751.820                    20602758.711
 114329499.083 8  89088043.25645  21756159.398                    21756168.980
 122013076.894 7  95075230.764 6  23218313.219                    23218323.359
 109799100.392 8  85557863.89146  20894059.000                    20894068.320
 115220722.189 7  89782469.995 7  21925769.711                    21925779.602
 112251533.087 7  87468808.733 7  21360759.898                    21360768.715
 11  8 15  0 44  0.0000000  0  9G30G25G09G02G04G17G10G05G12
 121934039.206 6  95013591.54844  23203279.109                    23203289.152
 126132899.365 7  98285439.515 6  24002303.406                    24002316.078
 124899518.187 6  97324375.34744  23767600.602                    23767612.621
 108269244.107 8  84365834.06046  20602946.930                    20602953.563
 114406912.107 8  89148365.08045  21770890.664                    21770899.945
 122067097.905 7  95117325.002 6  23228593.117                    23228602.793
 109801082.103 8  85559408.08546  20894435.906                    20894445.480
 115131941.392 7  89713290.204 7  21908875.523                    21908885.020
 112194546.238 7  87424403.399 7  21349915.875                    21349924.391
 11  8 15  0 44 30.0000000  0  9G30G25G09G02G04G17G10G05G12
 121841909.966 7  94941802.54944  23185747.953                    23185757.535
 126034613.838 6  98208853.425 7  23983600.734                    23983612.613
 124979557.164 6  97386743.30744  23782831.000                    23782843.508
 108270554.973 8  84366855.51146  20603196.258                    20603203.047
 114484456.256 8  89208789.08245  21785646.805                    21785656.367
 122121278.055 7  95159543.264 6  23238903.414                    23238913.832
 109803695.767 8  85561444.70846  20894933.195                    20894942.656
 115043476.652 7  89644356.685 7  21892040.828                    21892050.500
 112138003.559 7  87380344.160 7  21339155.781                    21339164.781
 11  8 15  0 45  0.0000000  0  9G30G25G09G02G04G17G10G05G12
 121750101.764 6  94870263.73644  23168277.102                    23168287.340
 125936520.246 7  98132416.931 6  23964933.500                    23964946.684
 125059738.249 6  97449221.99044  23798089.969                    23798101.684
 108272151.202 8  84368099.32746  20603500.063                    20603506.672
 114562130.002 8  89269314.06045  21800427.500                    21800436.758
 122175617.700 7  95201885.812 6  23249244.203                    23249253.719
 109806941.261 8  85563973.66146  20895551.031                    20895560.316
 114955331.089 7  89575671.870 7  21875267.578                    21875276.832
 112081907.563 8  87336632.993 7  21328481.445                    21328490.023
 11  8 15  0 45 30.0000000  0  9G30G25G09G02G04G17G10G05G12
 121658617.489 6  94798977.31544  23150868.516                    23150878.703
 125838621.313 7  98056132.100 6  23946304.094                    23946316.570
 125140058.307 6  97511808.97944  23813373.586                    23813386.051
 108274032.053 7  84369564.92446  20603857.625                    20603864.508
 114639931.126 8  89329938.29345  21815232.586                    21815242.043
 122230117.481 7  95244353.138 6  23259615.102                    23259625.305
 109810819.036 8  85566995.30646  20896289.016                    20896297.984
 114867507.587 7  89507238.021 7  21858555.539                    21858565.125
 112026260.192 7  87293271.390 7  21317892.328                    21317900.539
 11  8 15  0 46  0.0000000  0  9G30G25G09G02G04G17G10G05G12
 121567459.700 7  94727945.31144  23133521.320                    23133531.645
 125740919.347 7  97980000.743 6  23927711.438                    23927724.301
 125220513.867 6  97574501.56444  23828684.117                    23828696.461
 108276195.581 8  84371250.78446  20604269.313                    20604276.047
 114717857.361 8  89390660.01045  21830061.477                    21830071.051
 122284777.960 7  95286945.658 6  23270016.328                    23270026.105
 109815328.688 8  85570509.32246  20897147.094                    20897156.438
 114780008.239 7  89439056.763 7  21841904.656                    21841914.148
 111971063.447 7  87250260.944 7  21307388.539                    21307396.730
 11  8 15  0 46 30.0000000  0  9G30G25G09G02G04G17G10G05G12
 121476631.300 7  94657169.98044  23116237.156                    23116247.215
 125643417.175 7  97904025.048 6  23909157.656                    23909170.297
 125301101.330 6  97637296.91444  23844020.016                    23844032.090
 108278640.939 8  84373156.26446  20604734.742                    20604740.980
 114795907.010 8  89451477.88245  21844914.219                    21844923.195
 122339599.604 7  95329663.763 6  23280448.602                    23280458.793
 109820470.423 8  85574515.87346  20898125.422                    20898134.754
 114692836.373 7  89371130.677 7  21825316.117                    21825325.656
 111916319.904 8  87207603.621 7  21296970.969                    21296979.301
 11  8 15  0 47  0.0000000  0  9G30G25G09G02G04G17G10G05G12
 121386135.255 6  94586653.59644  23099016.531                    23099026.711
 125546117.452 6  97828207.130 6  23890642.367                    23890654.250
 125381817.478 6  97700192.55144  23859380.180                    23859391.621
 108281367.085 7  84375280.53746  20605253.633                    20605260.422
 114874078.316 7  89512390.53845  21859789.422                    21859798.664
 122394582.862 7  95372507.812 6  23290911.336                    23290921.648
 109826244.529 7  85579015.17546  20899224.164                    20899233.742
 114605994.783 7  89303461.950 7  21808790.945                    21808800.645
 111862032.126 7  87165301.448 7  21286640.250                    21286648.898
 11  8 15  0 47 30.0000000  0  9G30G25G09G02G04G17G10G05G12
 121295974.193 7  94516398.19544  23081859.078                    23081869.563
 125449022.738 7  97752548.956 6  23872165.414                    23872178.105
 125462658.983 7  97763185.89044  23874764.055                    23874775.207
 108284372.909 7  84377622.73346  20605825.555                    20605832.160
 114952369.184 8  89573396.37845  21874687.688                    21874697.027
 122449728.372 7  95415478.267 6  23301405.539                    23301415.406
 109832650.854 7  85584007.11146  20900443.063                    20900452.367
 114519486.252 7  89236052.758 7  21792328.750                    21792338.520
 111808201.523 8  87123355.511 7  21276396.766                    21276405.578
 11  8 15  0 48  0.0000000  0  9G30G25G09G02G04G17G10G05G12
 121206151.062 7  94446406.17544  23064766.203                    23064776.688
 125352135.809 7  97677052.701 6  23853728.766                    23853741.531
 125543622.473 6  97826274.27244  23890169.859                    23890182.156
 108287657.277 8  84380181.98846  20606450.539                    20606457.426
 115030777.797 7  89634493.96845  21889608.445                    21889617.770
 122505036.345 7  95458575.332 6  23311930.453                    23311940.391
 109839689.357 8  85589491.65846  20901782.867                    20901792.168
 114433313.664 7  89168905.334 7  21775930.633                    21775940.469
 111754830.282 7  87081767.522 7  21266240.555                    21266249.254
 11  8 15  0 48 30.0000000  0  9G30G25G09G02G04G17G10G05G12
 121116668.677 7  94376679.66744  23047738.367                    23047748.969
 125255459.318 7  97601720.411 6  23835332.547                    23835344.344
 125624704.704 7  97889455.17444  23905598.945                    23905611.840
 108291219.045 7  84382957.38746  20607128.492                    20607134.973
 115109302.467 8  89695681.98545  21904551.297                    21904560.688
 122560507.471 7  95501799.533 6  23322486.344                    23322495.816
 109847360.034 8  85595468.80946  20903242.461                    20903251.668
 114347479.675 7  89102021.747 7  21759596.820                    21759606.754
 111701921.140 7  87040539.622 7  21256172.195                    21256180.867
 11  8 15  0 49  0.0000000  0  9G30G25G09G02G04G17G10G05G12
 121027529.878 7  94307220.87544  23030776.109                    23030785.664
 125158995.944 7  97526554.186 6  23816975.516                    23816987.422
 125705902.267 7  97952725.93444  23921051.102                    23921063.066
 108295057.147 8  84385948.12046  20607859.000                    20607865.617
 115187941.072 7  89756958.80145  21919515.133                    21919525.281
 122616142.220 7  95545151.203 6  23333073.297                    23333082.910
 109855662.593 8  85601938.33846  20904822.219                    20904831.711
 114261987.422 7  89035404.464 7  21743328.625                    21743337.680
 111649476.148 8  86999673.389 7  21246192.703                    21246201.277
 11  8 15  0 49 30.0000000  0  9G30G25G09G02G04G17G10G05G12
 120938737.223 7  94238031.79544  23013879.852                    23013889.184
 125062748.096 7  97451555.897 6  23798660.164                    23798672.164
 125787211.454 6  98016083.67844  23936523.570                    23936535.641
 108299170.263 8  84389153.15046  20608641.320                    20608648.395
 115266691.753 8  89818322.93545  21934501.305                    21934510.637
 122671941.456 7  95588631.106 6  23343691.523                    23343701.117
 109864596.880 8  85608900.11546  20906522.508                    20906532.031
 114176839.019 7  88969055.108 7  21727125.188                    21727134.648
 111597497.100 8  86959170.233 7  21236300.906                    21236309.359
 11  8 15  0 50  0.0000000  0  9G30G25G09G02G04G17G10G05G12
 120850293.831 7  94169114.86544  22997049.133                    22997058.813
 124966718.803 7  97376727.935 6  23780385.984                    23780398.555
 125868629.512 7  98079526.25644  23952017.234                    23952029.293
 108303557.286 8  84392571.60646  20609476.508                    20609483.043
 115345552.810 8  89879773.09045  21949507.992                    21949517.754
 122727905.170 6  95632239.143 6  23354340.742                    23354350.559
 109874162.796 8  85616354.07346  20908342.727                    20908352.129
 114092038.046 8  88902976.472 7  21710987.719                    21710997.215
 111545986.536 8  86919032.135 7  21226498.891                    21226507.684
 11  8 15  0 50 30.0000000  0  9G30G25G09G02G04G17G10G05G12
 120762202.376 6  94100472.18244  22980286.016                    22980296.004
 124870910.568 7  97302072.199 6  23762154.813                    23762166.480
 125950152.898 7  98143050.95743  23967531.000                    23967542.172
 108308217.099 8  84396202.63746  20610363.031                    20610369.934
 115424522.352 8  89941307.76345  21964535.680                    21964545.215
 122784033.684 7  95675975.604 6  23365021.898                    23365031.918
 109884359.987 8  85624299.93446  20910283.359                    20910292.375
 114007587.133 7  88837170.605 7  21694917.375                    21694926.750
 111494946.219 8  86879260.468 7  21216786.195                    21216794.715
 11  8 15  0 51  0.0000000  0  9G30G25G09G02G04G17G10G05G12
 120674465.503 6  94032105.79344  22963590.109                    22963600.090
 124775325.848 7  97227590.642 6  23743966.078                    23743978.074
 126031778.041 7  98206654.91743  23983063.438                    23983075.086
 108313148.179 8  84400045.03046  20611301.266                    20611308.223
 115503598.210 8  90002925.29045  21979583.258                    21979592.629
 122840327.814 6  95719841.132 6  23375734.602                    23375743.730
 109895188.093 8  85632737.41446  20912343.867                    20912352.766
 113923488.387 7  88771639.172 7  21678914.070                    21678923.594
 111444378.261 8  86839856.873 7  21207163.398                    21207172.293
 11  8 15  0 51 30.0000000  0  9G30G25G09G02G04G17G10G05G12
 120587086.035 7  93964017.88844  22946962.297                    22946972.313
 124679967.417 7  97153285.396 6  23725819.383                    23725831.668
 126113501.687 7  98270335.60243  23998614.992                    23998626.730
 108318349.750 8  84404098.20146  20612291.578                    20612298.086
 115582778.747 7  90064624.37745  21994650.625                    21994660.633
 122896788.104 7  95763836.134 6  23386478.492                    23386488.055
 109906647.401 8  85641666.74246  20914524.523                    20914533.711
 113839744.800 7  88706384.473 7  21662977.906                    21662987.453
 111394284.806 8  86800823.020 7  21197631.023                    21197639.688
 11  8 15  0 52  0.0000000  0  9G30G25G09G02G04G17G10G05G12
 120500066.918 7  93896210.78344  22930403.695                    22930413.313
 124584838.044 7  97079158.665 6  23707716.602                    23707728.676
 126195320.702 7  98334090.63243  24014184.602                    24014196.016
 108323820.582 8  84408361.19146  20613332.125                    20613338.711
 115662062.293 7  90126403.73745  22009737.531                    22009747.613
 122953415.083 6  95807960.995 6  23397254.414                    23397264.445
 109918737.449 8  85651087.56046  20916825.133                    20916834.074
 113756359.432 7  88641408.908 7  21647110.227                    21647119.715
 111344668.192 8  86762160.739 7  21188189.430                    21188198.074
 11  8 15  0 52 30.0000000  0  9G30G25G09G02G04G17G10G05G12
 120413410.860 7  93828686.61244  22913913.203                    22913923.395
 124489940.344 7  97005212.410 6  23689658.336                    23689669.789
 126277231.775 6  98397917.40043  24029771.617                    24029783.977
 108329559.400 8  84412832.99046  20614424.133                    20614431.008
 115741446.997 7  90188261.90545  22024843.969                    22024853.887
 123010208.703 6  95852215.696 6  23408060.977                    23408071.859
 109931457.791 8  85660999.51946  20919245.477                    20919254.871
 113673334.776 8  88576714.415 7  21631311.203                    21631320.738
 111295530.074 8  86723871.314 7  21178838.672                    21178847.043
 11  8 15  0 53  0.0000000  0  9G30G25G09G02G04G17G10G05G12
 120327120.608 6  93761447.45744  22897492.414                    22897503.020
 124395277.012 7  96931448.774 6  23671644.711                    23671656.648
 126359231.338 6  98461813.03043  24045375.344                    24045387.551
 108335564.995 8  84417512.67446  20615567.242                    20615574.199
 115820931.011 8  90250197.46445  22039969.719                    22039979.457
 123067169.977 6  95896601.072 6  23418901.375                    23418911.055
 109944808.177 7  85671402.41646  20921786.133                    20921795.492
 113590673.375 8  88512302.969 7  21615581.023                    21615590.785
 111246872.803 7  86685956.562 7  21169579.406                    21169587.777
 11  8 15  0 53 30.0000000  0  9G30G25G09G02G04G17G10G05G12
 120241198.887 6  93694495.50344  22881142.219                    22881152.813
 124300850.680 7  96857869.840 6  23653675.813                    23653687.910
 126441315.916 6  98525774.94043  24060997.148                    24061007.684
 108341836.048 8  84422399.20846  20616760.531                    20616767.672
 115900512.490 8  90312208.96245  22055113.320                    22055123.238
 123124299.011 6  95941117.175 6  23429771.773                    23429782.418
 109958788.048 8  85682295.81546  20924446.297                    20924455.398
 113508378.304 8  88448176.992 7  21599921.141                    21599930.633
 111198698.160 8  86648417.880 7  21160412.109                    21160420.320
 11  8 15  0 54  0.0000000  0  9G30G25G09G02G04G17G10G05G12
 120155648.632 7  93627832.98644  22864862.195                    22864872.449
 124206664.090 7  96784477.732 6  23635752.383                    23635765.727
 126523482.522 6  98589800.80043  24076632.703                    24076643.691
 108348371.704 8  84427491.92746  20618004.469                    20618011.188
 115980189.703 7  90374295.06045  22070275.695                    22070285.254
 123181596.448 7  95985764.479 6  23440675.789                    23440686.703
 109973396.998 8  85693679.41446  20927226.406                    20927235.473
 113426452.189 8  88384338.506 7  21584331.109                    21584340.297
 111151008.218 8  86611256.893 7  21151337.266                    21151345.387
 11  8 15  0 54 30.0000000  0  9G30G25G09G02G04G17G10G05G12
 120070472.532 7  93561462.01944  22848654.172                    22848663.742
 124112719.871 7  96711274.474 7  23617875.344                    23617888.043
 126605727.604 6  98653887.81943  24092282.492                    24092294.383
 108355170.711 8  84432789.84346  20619297.914                    20619304.832
 116059960.845 7  90436454.35545  22085455.594                    22085465.348
 123239063.008 7  96030543.575 6  23451611.508                    23451621.438
 109988634.646 8  85705552.90746  20930126.141                    20930135.094
 113344897.654 8  88320789.548 7  21568811.539                    21568820.773
 111103805.071 8  86574475.227 7  21142354.805                    21142363.016
 11  8 15  0 55  0.0000000  0  9G30G25G09G02G04G17G10G05G12
 119985672.978 7  93495384.47444  22832517.133                    22832526.961
 124019020.619 7  96638262.074 7  23600044.906                    23600057.563
 126688048.274 6  98718033.68043  24107947.555                    24107959.828
 108362231.896 8  84438292.06646  20620641.797                    20620648.797
 116139824.064 7  90498685.40145  22100652.992                    22100662.945
 123296698.744 7  96075454.513 6  23462580.094                    23462588.809
 110004500.592 8  85717915.98046  20933145.055                    20933154.305
 113263717.278 8  88257532.154 7  21553363.164                    21553372.656
 111057090.562 8  86538074.317 7  21133464.914                    21133473.641
 11  8 15  0 55 30.0000000  0  9G30G25G09G02G04G17G10G05G12
 119901252.881 7  93429602.60144  22816452.070                    22816462.613
 123925568.962 7  96565442.595 6  23582262.148                    23582273.449
 126770440.891 6  98782235.61843  24123626.953                    24123638.578
 108369553.744 8  84443997.39946  20622035.195                    20622041.953
 116219777.664 7  90560986.87945  22115867.625                    22115877.555
 123354503.828 7  96120497.375 6  23473579.328                    23473589.719
 110020994.232 7  85730768.16846  20936283.602                    20936292.973
 113182913.617 8  88194568.309 7  21537987.000                    21537996.395
 111010866.514 8  86502055.579 7  21124669.109                    21124677.809
 11  8 15  0 56  0.0000000  0  9G30G25G09G02G04G17G10G05G12
 119817215.340 7  93364118.83044  22800461.219                    22800470.633
 123832367.875 7  96492818.387 7  23564525.969                    23564539.340
 126852902.255 7  98846491.10943  24139318.734                    24139330.770
 108377135.632 8  84449905.35246  20623477.805                    20623484.781
 116299819.938 7  90623357.45245  22131098.836                    22131109.137
 123412479.061 7  96165672.823 6  23484612.352                    23484621.031
 110038115.181 8  85744109.16845  20939542.063                    20939550.852
 113102489.915 8  88131900.530 7  21522682.664                    21522692.414
 110965135.541 8  86466421.047 7  21115966.820                    21115975.141
 11  8 15  0 56 30.0000000  0  9G30G25G09G02G04G17G10G05G12
 119733562.531 7  93298934.85244  22784541.984                    22784552.191
 123739419.660 7  96420391.238 7  23546838.773                    23546851.699
 126935428.994 7  98910797.56344  24155023.922                    24155035.473
 108384975.817 8  84456014.58646  20624969.773                    20624976.953
 116379949.158 7  90685795.78645  22146346.953                    22146357.020
 123470624.823 7  96210981.171 6  23495676.430                    23495685.746
 110055862.738 8  85757938.43746  20942918.922                    20942928.191
 113022448.368 8  88069530.543 7  21507451.391                    21507460.809
 110919898.653 8  86431171.526 7  21107358.250                    21107366.926
 11  8 15  0 57  0.0000000  0  9G30G25G09G02G04G17G10G05G12
 119650297.586 7  93234053.09344  22768697.617                    22768707.344
 123646727.362 7  96348163.495 7  23529200.805                    23529212.523
 127018017.884 7  98975152.45144  24170739.758                    24170751.332
 108393073.496 8  84462324.46246  20626510.711                    20626517.988
 116460163.575 7  90748300.49745  22161611.625                    22161621.035
 123528941.827 6  96256422.932 6  23506773.906                    23506783.727
 110074236.399 7  85772255.57746  20946415.203                    20946424.273
 112942791.482 8  88007460.280 7  21492293.109                    21492302.375
 110875158.242 8  86396308.854 7  21098844.594                    21098853.172
 11  8 15  0 57 30.0000000  0  9G30G25G09G02G04G17G10G05G12
 119567423.189 7  93169475.67244  22752926.969                    22752936.820
 123554293.472 7  96276137.110 7  23511610.703                    23511622.262
 127100665.825 7  99039553.35244  24186466.953                    24186478.902
 108401427.399 8  84468833.98546  20628100.375                    20628107.289
 116540461.409 7  90810870.19445  22176891.984                    22176901.285
 123587430.047 7  96301998.135 6  23517903.797                    23517913.074
 110093235.474 8  85787060.05146  20950030.977                    20950039.859
 112863522.217 8  87945692.064 7  21477208.719                    21477218.090
 110830916.119 8  86361834.463 7  21090425.445                    21090434.063
 11  8 15  0 58  0.0000000  0  9G30G25G09G02G04G17G10G05G12
 119484941.940 7  93105204.58144  22737231.258                    22737241.309
 123462120.711 7  96204314.187 7  23494070.477                    23494082.777
 127183369.405 7  99103997.58844  24202204.836                    24202217.215
 108410036.398 8  84475542.28546  20629738.766                    20629746.066
 116620840.793 7  90873503.43945  22192188.289                    22192197.465
 123646090.216 6  96347707.307 6  23529066.719                    23529076.137
 110112859.172 8  85802351.24546  20953765.414                    20953774.340
 112784643.091 8  87884227.849 7  21462198.344                    21462207.789
 110787174.298 8  86327749.925 7  21082101.891                    21082109.984
 11  8 15  0 58 30.0000000  0  9G30G25G09G02G04G17G10G05G12
 119402856.631 7  93041242.04344  22721611.023                    22721621.125
 123370211.789 7  96132696.862 7  23476580.930                    23476592.980
 127266125.478 7  99168482.71044  24217953.094                    24217965.770
 108418899.200 8  84482448.35846  20631424.859                    20631431.797
 116701300.405 7  90936199.18445  22207498.898                    22207508.254
 123704922.674 6  96393550.707 6  23540262.164                    23540271.996
 110133106.848 8  85818128.65446  20957618.063                    20957627.277
 112706156.634 8  87823069.612 7  21447263.023                    21447272.883
 110743934.862 8  86294056.847 7  21073873.234                    21073882.113
 11  8 15  0 59  0.0000000  0  9G30G25G09G02G04G17G10G05G12
 119321169.982 7  92977590.12844  22706066.406                    22706076.551
 123278569.382 7  96061287.212 7  23459141.875                    23459154.441
 127348930.763 7  99233006.20644  24233710.758                    24233722.996
 108428014.719 8  84489551.34846  20633159.828                    20633167.051
 116781838.571 7  90998956.15445  22222824.672                    22222834.316
 123763927.714 7  96439528.601 6  23551490.352                    23551500.648
 110153978.114 8  85834391.97346  20961589.898                    20961599.160
 112628065.214 8  87762219.210 7  21432402.547                    21432412.184
 110701199.688 8  86260756.697 7  21065741.203                    21065750.066
 11  8 15  0 59 30.0000000  0  9G30G25G09G02G04G17G10G05G12
 119239884.408 7  92914250.74944  22690598.328                    22690608.063
 123187196.034 7  95990087.236 7  23441754.477                    23441767.176
 127431782.005 7  99297565.51944  24249476.492                    24249488.926
 108437381.415 8  84496850.05846  20634942.484                    20634949.016
 116862453.187 7  91061772.70245  22238164.727                    22238174.859
 123823105.569 6  96485641.177 6  23562751.586                    23562761.383
 110175472.051 8  85851140.48846  20965679.961                    20965689.309
 112550371.829 8  87701678.947 7  21417617.977                    21417627.551
 110658969.981 8  86227850.421 7  21057705.445                    21057714.105
 11  8 15  1  0  0.0000000  0  9G30G25G09G02G04G17G10G05G12
 119159002.922 7  92851226.23244  22675207.281                    22675216.672
 123096094.586 7  95919099.128 7  23424418.117                    23424430.406
 127514675.859 7  99362158.03744  24265250.797                    24265262.824
 108446998.314 8  84504343.73446  20636772.227                    20636779.129
 116943143.039 7  91124647.87145  22253519.492                    22253529.449
 123882457.038 6  96531889.048 6  23574046.289                    23574055.992
 110197588.250 8  85868373.89446  20969888.680                    20969897.477
 112473079.255 8  87641451.010 7  21402909.688                    21402919.109
 110617248.260 8  86195339.980 7  21049765.766                    21049774.289
 11  8 15  1  0 30.0000000  0  9G30G25G09G02G04G17G10G05G12
 119078527.769 7  92788518.33644  22659893.086                    22659902.965
 123005267.347 7  95848324.675 6  23407134.180                    23407146.199
 127597608.889 7  99426781.06644  24281032.820                    24281044.707
 108456863.917 8  84512031.21346  20638649.578                    20638656.547
 117023906.036 7  91187580.05045  22268888.914                    22268898.516
 123941982.245 7  96578272.302 6  23585372.938                    23585383.242
 110220325.272 8  85886091.04946  20974215.180                    20974224.340
 112396189.395 8  87581536.877 7  21388277.852                    21388287.344
 110576035.350 8  86163226.012 7  21041923.711                    21041932.105
 11  8 15  1  1  0.0000000  0  9G30G25G09G02G04G17G10G05G12
 118998462.189 7  92726129.59344  22644656.984                    22644666.578
 122914717.587 7  95777766.438 6  23389902.938                    23389914.559
 127680578.464 6  99491432.58544  24296821.016                    24296833.563
 108466977.814 8  84519912.15546  20640574.242                    20640580.770
 117104740.981 7  91250568.27745  22284270.445                    22284280.793
 124001681.779 7  96624791.360 6  23596733.516                    23596743.859
 110243683.042 8  85904291.90546  20978660.109                    20978668.984
 112319705.195 8  87521938.837 7  21373723.344                    21373733.109
 110535333.994 8  86131510.660 7  21034178.305                    21034186.672
 11  8 15  1  1 30.0000000  0  9G30G25G09G02G04G17G10G05G12
 118918808.540 7  92664061.84145  22629499.641                    22629509.398
 122824447.749 7  95707426.306 7  23372726.039                    23372737.188
 127763581.039 6  99556109.80843  24312615.656                    24312628.590
 108477338.252 8  84527985.21346  20642545.844                    20642552.820
 117185646.035 7  91313611.13145  22299666.898                    22299676.504
 124061555.882 7  96671446.496 6  23608126.883                    23608137.180
 110267660.136 8  85922975.35146  20983222.938                    20983231.980
 112243629.741 8  87462659.304 7  21359246.750                    21359256.391
 110495145.716 8  86100195.108 7  21026530.352                    21026538.938
 11  8 15  1  2  0.0000000  0  9G30G25G09G02G04G17G10G05G12
 118839569.368 7  92602317.06344  22614420.398                    22614430.734
 122734460.322 7  95637306.271 6  23355601.563                    23355613.266
 127846613.374 6  99620810.22844  24328416.930                    24328429.781
 108487944.165 8  84536249.54946  20644563.820                    20644570.977
 117266619.591 7  91376707.35445  22315075.828                    22315085.141
 124121604.928 6  96718237.945 6  23619554.148                    23619564.211
 110292255.747 8  85942140.75446  20987903.453                    20987912.813
 112167964.243 8  87403699.207 7  21344847.891                    21344857.730
 110455472.029 8  86069280.533 7  21018981.227                    21018989.570
 11  8 15  1  2 30.0000000  0  9G30G25G09G02G04G17G10G05G12
 118760747.467 7  92540897.42044  22599421.648                    22599431.434
 122644758.143 7  95567408.511 6  23338531.070                    23338543.516
 127929672.287 6  99685531.34443  24344222.375                    24344235.230
 108498794.278 8  84544704.16546  20646628.805                    20646635.594
 117347659.933 7  91439855.63245  22330497.234                    22330506.668
 124181829.308 7  96765166.040 6  23631014.547                    23631024.512
 110317469.167 8  85961787.55946  20992701.164                    20992710.547
 112092711.835 8  87345061.004 7  21330527.797                    21330537.570
 110416314.934 8  86038768.503 7  21011529.242                    21011537.828
 11  8 15  1  3  0.0000000  0  9G30G25G09G02G04G17G10G05G12
 118682345.312 7  92479804.86244  22584501.953                    22584511.387
 122555343.803 7  95497735.028 6  23321515.961                    23321528.895
 128012754.528 6  99750270.66743  24360031.688                    24360045.391
 108509887.302 8  84553348.06346  20648739.508                    20648746.664
 117428765.431 7  91503054.66545  22345931.063                    22345941.145
 124242229.385 7  96812231.006 6  23642508.391                    23642518.434
 110343299.294 8  85981914.92646  20997616.375                    20997625.504
 112017875.236 8  87286746.813 7  21316287.102                    21316296.398
 110377676.021 8  86008660.251 7  21004176.922                    21004185.445
 11  8 15  1  3 30.0000000  0  9G30G25G09G02G04G17G10G05G12
 118604365.611 7  92419041.46645  22569662.641                    22569672.496
 122466220.076 7  95428287.967 6  23304556.711                    23304568.270
 128095857.248 5  99815025.94942  24375846.047                    24375858.848
 108521222.244 8  84562180.47846  20650896.758                    20650903.414
 117509934.713 7  91566303.41945  22361376.508                    22361386.922
 124302805.324 7  96859433.039 6  23654036.055                    23654045.742
 110369745.275 8  86002522.18146  21002648.688                    21002657.883
 111943456.800 8  87228758.462 7  21302125.195                    21302135.031
 110339557.067 8  85978957.172 7  20996923.266                    20996931.578
 11  8 15  1  4  0.0000000  0  9G30G25G09G02G04G17G10G05G12
 118526810.959 7  92358609.29845  22554904.828                    22554914.434
 122377389.536 7  95359069.369 6  23287652.500                    23287664.766
 128178976.818 5  99879794.34142  24391662.492                    24391676.223
 108532797.771 8  84571200.35146  20653099.781                    20653106.410
 117591165.947 7  91629600.45544  22376834.922                    22376845.063
 124363557.692 7  96906772.517 6  23665596.523                    23665607.211
 110396806.277 8  86023608.66346  21007798.617                    21007807.680
 111869458.835 8  87171097.749 7  21288043.867                    21288053.609
 110301959.578 8  85949660.426 7  20989768.656                    20989777.250
 11  8 15  1  4 30.0000000  0  9G30G25G09G02G04G17G10G05G12
 118449683.835 7  92298510.28644  22540227.891                    22540237.828
 122288854.697 7  95290081.199 6  23270804.813                    23270817.539
 128262110.293 6  99944573.54042  24407483.664                    24407496.457
 108544612.624 8  84580406.71446  20655348.086                    20655354.336
 117672457.604 7  91692944.57544  22392303.953                    22392314.320
 124424486.902 6  96954249.797 6  23677191.195                    23677201.566
 110424481.213 7  86045173.53746  21013065.031                    21013074.133
 111795883.885 8  87113766.657 7  21274043.172                    21274052.438
 110264885.289 8  85920771.373 7  20982713.563                    20982722.441
 11  8 15  1  5  0.0000000  0  9G30G25G09G02G04G17G10G05G12
 118372987.266 7  92238746.74045  22525632.727                    22525642.824
 122200618.698 7  95221325.904 6  23254014.172                    23254026.605
 128345254.579 6 100009361.27942  24423305.039                    24423318.332
 108556665.916 8  84589798.87446  20657641.766                    20657648.430
 117753808.368 7  91756334.72644  22407784.625                    22407794.367
 124485592.845 7  97001864.814 6  23688820.039                    23688830.336
 110452769.195 8  86067216.09946  21018448.125                    21018457.230
 111722734.590 8  87056767.249 7  21260123.445                    21260132.777
 110228336.025 8  85892291.424 7  20975758.258                    20975767.363
 11  8 15  1  5 30.0000000  0  9G30G25G09G02G04G17G10G05G12
 118296723.364 7  92179320.34345  22511120.555                    22511130.723
 122112683.783 7  95152805.210 6  23237281.305                    23237293.391
 128428406.211 5 100074154.62342  24439126.648                    24439141.375
 108568956.259 8  84599375.75346  20659980.242                    20659987.313
 117835216.493 7  91819769.57645  22423276.633                    22423285.914
 124546876.344 7  97049618.157 6  23700481.086                    23700491.309
 110481668.985 8  86089735.40346  21023947.648                    21023956.691
 111650013.211 8  87000101.275 7  21246284.852                    21246294.789
 110192313.046 8  85864221.574 7  20968903.547                    20968912.148
 11  8 15  1  6  0.0000000  0  9G30G25G09G02G04G17G10G05G12
 118220894.840 7  92120233.20645  22496690.969                    22496700.398
 122025052.774 7  95084521.326 6  23220605.313                    23220617.035
 128511562.322 5 100138951.57742  24454952.711                    24454965.699
 108581482.402 8  84609136.37646  20662363.680                    20662370.668
 117916680.279 7  91883247.79545  22438778.680                    22438787.426
 124608337.523 7  97097509.983 6  23712176.781                    23712186.832
 110511179.279 8  86112730.42546  21029563.031                    21029572.023
 111577722.174 8  86943770.642 7  21232528.391                    21232538.438
 110156818.123 8  85836563.189 7  20962149.148                    20962157.648
 11  8 15  1  6 30.0000000  0  9G30G25G09G02G04G17G10G05G12
 118145504.422 7  92061487.45544  22482344.461                    22482354.387
 121937728.452 7  95016476.408 6  23203987.586                    23203999.625
 128594719.707 6 100203749.44542  24470776.352                    24470789.324
 108594243.451 8  84619080.02946  20664792.219                    20664799.266
 117998198.487 7  91946768.42844  22454290.906                    22454300.559
 124669976.999 6  97145540.685 6  23723905.844                    23723916.457
 110541299.249 8  86136200.52546  21035294.961                    21035304.059
 111505864.093 8  86887777.356 7  21218854.398                    21218863.715
 110121853.619 8  85809318.123 7  20955495.352                    20955503.891
 11  8 15  1  7  0.0000000  0  9G30G25G09G02G04G17G10G05G12
 118070554.350 7  92003084.81845  22468082.156                    22468092.102
 121850713.204 7  94948672.347 6  23187429.508                    23187441.789
 128677874.995 6 100268545.70642  24486600.547                    24486613.715
 108607237.568 8  84629205.30146  20667265.148                    20667271.668
 118079769.496 7  92010330.20944  22469813.445                    22469822.758
 124731794.649 6  97193710.264 6  23735669.938                    23735679.641
 110572027.543 8  86160144.64945  21041142.445                    21041151.133
 111434441.246 8  86832123.231 7  21205263.195                    21205272.684
 110087419.766 8  85782486.555 7  20948942.914                    20948951.430
 11  8 15  1  7 30.0000000  0  9G30G25G09G02G04G17G10G05G12
 117996047.276 7  91945027.37345  22453903.672                    22453913.320
 121764009.756 7  94881111.238 6  23170930.594                    23170942.434
 128761025.051 6 100333337.84043  24502424.313                    24502436.805
 108620463.901 8  84639511.53446  20669781.672                    20669788.566
 118161391.457 7  92073931.71545  22485345.391                    22485355.668
 124793790.928 6  97242019.041 6  23747466.484                    23747476.816
 110603363.085 8  86184561.94446  21047104.984                    21047114.160
 111363455.781 8  86776809.927 7  21191755.102                    21191764.004
 110053518.336 8  85756069.865 7  20942492.063                    20942500.156
 11  8 15  1  8  0.0000000  0  9G30G25G09G02G04G17G10G05G12
 117921985.880 7  91887317.21945  22439810.398                    22439820.059
 121677620.954 7  94813795.326 7  23154491.289                    23154503.945
 128844167.152 6 100398123.84143  24518245.750                    24518257.754
 108633921.418 8  84649997.90046  20672342.883                    20672349.402
 118243063.365 7  92137572.14445  22500887.063                    22500897.242
 124855966.092 6  97290467.195 6  23759298.461                    23759308.582
 110635304.926 7  86209451.68246  21053183.430                    21053192.145
 111292909.940 8  86721839.166 7  21178330.305                    21178339.852
 110020151.470 8  85730069.708 7  20936142.258                    20936150.500
 11  8 15  1  8 30.0000000  0  9G30G25G09G02G04G17G10G05G12
 117848372.435 7  91829956.10645  22425802.125                    22425812.023
 121591549.164 7  94746726.421 7  23138112.250                    23138124.270
 128927297.831 6 100462900.94243  24534064.461                    24534077.090
 108647608.845 8  84660663.42746  20674947.484                    20674954.102
 118324783.492 7  92201250.13344  22516437.781                    22516447.965
 124918320.624 6  97339055.113 6  23771164.703                    23771174.328
 110667851.419 7  86234812.56846  21059376.914                    21059386.227
 111222806.357 8  86667213.035 7  21164990.125                    21164999.789
 109987320.489 8  85704487.124 7  20929894.773                    20929903.230
 11  8 15  1  9  0.0000000  0  9G30G25G09G02G04G17G10G05G12
 117775209.781 7  91772946.25645  22411879.703                    22411889.359
 121505797.395 7  94679906.879 6  23121793.961                    23121806.102
 129010414.236 6 100527666.88943  24549880.758                    24549894.262
 108661525.056 8  84671507.22346  20677595.602                    20677602.336
 118406550.586 7  92264964.72845  22531998.047                    22532008.051
 124980854.657 6  97387782.912 6  23783063.898                    23783073.605
 110701001.772 8  86260644.00446  21065685.344                    21065694.227
 111153147.797 8  86612933.677 7  21151734.250                    21151743.855
 109955027.110 8  85679323.464 7  20923749.406                    20923757.980
 11  8 15  1  9 30.0000000  0  9G30G25G09G02G04G17G10G05G12
 117702500.092 7  91716289.36145  22398043.289                    22398053.402
 121420368.019 7  94613338.571 6  23105537.688                    23105549.277
 129093513.079 6 100592419.13743  24565694.805                    24565707.867
 108675668.799 8  84682528.32546  20680286.766                    20680293.484
 118488362.919 7  92328714.58145  22547565.891                    22547576.449
 125043568.447 6  97436650.805 6  23794998.289                    23795007.098
 110734754.397 8  86286944.73845  21072108.102                    21072117.125
 111083935.780 8  86559002.264 7  21138563.781                    21138573.449
 109923272.377 8  85654579.520 7  20917706.977                    20917715.188
 11  8 15  1 10  0.0000000  0  9G30G25G09G02G04G17G10G05G12
 117630246.173 7  91659987.60145  22384294.156                    22384304.160
 121335263.832 7  94547023.647 7  23089342.523                    23089354.781
 129176591.374 6 100657155.36243  24581504.188                    24581517.133
 108690038.988 8  84693725.87246  20683021.305                    20683028.641
 118570219.273 7  92392498.73444  22563142.344                    22563152.941
 125106462.452 6  97485659.116 6  23806966.375                    23806976.484
 110769108.159 8  86313713.90045  21078645.344                    21078654.652
 111015172.937 8  86505420.859 7  21125478.656                    21125488.180
 109892058.170 8  85630256.767 7  20911766.992                    20911775.496
 11  8 15  1 10 30.0000000  0  9G30G25G09G02G04G17G10G05G12
 117558450.208 7  91604042.70045  22370631.914                    22370642.188
 121250487.435 7  94480964.154 6  23073210.383                    23073222.344
 129259645.916 7 100721873.07144  24597308.961                    24597322.090
 108704634.231 8  84705098.80046  20685799.234                    20685805.469
 118652117.961 7  92456315.84244  22578727.711                    22578737.363
 125169536.858 6  97534807.974 6  23818968.195                    23818978.980
 110804061.782 8  86340950.47346  21085296.617                    21085305.746
 110946861.742 8  86452191.392 7  21112479.359                    21112489.078
 109861385.496 8  85606355.985 7  20905930.000                    20905938.734
 11  8 15  1 11  0.0000000  0  9G30G25G09G02G04G17G10G05G12
 117487114.593 7  91548456.51145  22357056.805                    22357066.922
 121166041.254 7  94415161.960 6  23057140.641                    23057152.688
 129342673.566 7 100786569.82244  24613109.180                    24613121.402
 108719453.254 8  84716646.09746  20688618.883                    20688625.988
 118734057.432 7  92520164.77044  22594320.414                    22594330.293
 125232792.074 6  97584097.794 6  23831006.133                    23831016.180
 110839613.876 8  86368653.39746  21092061.969                    21092071.484
 110879004.105 8  86399315.346 7  21099566.539                    21099576.070
 109831255.554 8  85582878.119 7  20900196.461                    20900205.422
 11  8 15  1 11 30.0000000  0  9G30G25G09G02G04G17G10G05G12
 117416242.107 7  91493231.20745  22343570.539                    22343580.582
 121081928.211 7  94349619.371 7  23041134.430                    23041146.445
 129425671.566 6 100851243.49643  24628902.555                    24628915.047
 108734495.239 8  84728367.13846  20691481.102                    20691488.355
 118816036.606 7  92584044.61744  22609920.203                    22609930.508
 125296228.111 6  97633528.453 6  23843077.406                    23843088.230
 110875763.219 8  86396821.70445  21098941.156                    21098950.262
 110811602.849 8  86346794.923 7  21086740.797                    21086749.777
 109801670.284 8  85559824.663 7  20894566.789                    20894575.199
 11  8 15  1 12  0.0000000  0  9G30G25G09G02G04G17G10G05G12
 117345835.143 7  91438368.62045  22330172.445                    22330182.289
 120998150.938 7  94284338.409 7  23025191.930                    23025204.254
 129508636.901 6 100915891.70843  24644689.875                    24644703.543
 108749758.911 8  84740260.91246  20694385.781                    20694392.730
 118898053.936 7  92647954.20044  22625527.500                    22625537.633
 125359845.462 6  97683100.407 6  23855183.789                    23855193.945
 110912508.228 8  86425454.16446  21105933.609                    21105943.102
 110744660.030 8  86294631.722 7  21074001.555                    21074010.762
 109772630.978 8  85537196.642 7  20889040.938                    20889049.625
 11  8 15  1 12 30.0000000  0  9G30G25G09G02G04G17G10G05G12
 117275895.846 7  91383870.46245  22316863.711                    22316873.336
 120914711.856 7  94219320.959 7  23009314.492                    23009326.133
 129591566.335 6 100980511.92443  24660470.609                    24660484.824
 108765242.797 8  84752326.29146  20697332.344                    20697339.133
 118980107.906 7  92711892.36144  22641141.656                    22641152.512
 125423644.230 6  97732813.694 6  23867324.102                    23867334.746
 110949847.611 8  86454549.77745  21113038.984                    21113048.145
 110678177.386 8  86242827.099 7  21061351.008                    21061359.926
 109744138.699 8  85514994.872 7  20883618.641                    20883627.527
 11  8 15  1 13  0.0000000  0  9G30G25G09G02G04G17G10G05G12
 117206426.564 7  91329738.56045  22303643.492                    22303653.508
 120831613.439 7  94154568.959 7  22993501.219                    22993512.621
 129674456.695 6 101045101.68043  24676245.445                    24676258.320
 108780945.695 8  84764562.32846  20700320.281                    20700327.402
 119062197.143 7  92775857.99944  22656762.992                    22656773.203
 125487624.477 6  97782668.416 6  23879499.422                    23879510.645
 110987779.655 8  86484107.20245  21120257.273                    21120266.242
 110612157.217 8  86191382.848 7  21048786.906                    21048796.844
 109716194.793 8  85493220.402 7  20878301.117                    20878309.551
 11  8 15  1 13 30.0000000  0  9G30G25G09G02G04G17G10G05G12
 117137429.865 7  91275974.90845  22290513.672                    22290523.848
 120748858.535 7  94090084.633 7  22977752.844                    22977765.328
 129757305.140 6 101109658.80843  24692010.820                    24692023.832
 108796866.600 8  84776968.24246  20703350.273                    20703357.215
 119144320.119 7  92839849.91944  22672389.961                    22672400.527
 125551786.547 6  97832664.806 6  23891709.781                    23891720.051
 111026302.941 8  86514125.34546  21127587.703                    21127597.340
 110546602.089 8  86140300.962 7  21036312.492                    21036321.980
 109688800.483 8  85471874.189 7  20873088.438                    20873097.164
 11  8 15  1 14  0.0000000  0  9G30G25G09G02G04G17G10G05G12
 117068908.074 7  91222581.30745  22277475.445                    22277484.836
 120666449.657 7  94025869.945 7  22962071.773                    22962083.250
 129840108.508 6 101174180.83743  24707767.344                    24707781.078
 108813004.482 8  84789543.22446  20706421.289                    20706428.066
 119226475.728 7  92903867.27044  22688024.219                    22688034.629
 125616130.767 6  97882803.161 6  23903953.641                    23903964.020
 111065416.113 8  86544603.12145  21135031.320                    21135040.078
 110481513.873 8  86089582.909 7  21023926.523                    21023935.879
 109661957.227 8  85450957.367 7  20867979.930                    20867988.758
 11  8 15  1 14 30.0000000  0  9G30G25G09G02G04G17G10G05G12
 117000863.416 7  91169559.50045  22264526.188                    22264535.918
 120584389.258 7  93961926.793 7  22946455.859                    22946468.094
 129922863.814 6 101238665.38943  24723515.164                    24723528.656
 108829357.488 8  84802285.83646  20709533.055                    20709539.773
 119308662.238 7  92967908.70244  22703663.789                    22703674.277
 125680656.898 6  97933083.214 6  23916232.383                    23916243.082
 111105117.340 8  86575539.12845  21142585.586                    21142595.125
 110416894.528 8  86039230.203 7  21011629.383                    21011638.746
 109635666.121 8  85430470.794 7  20862976.922                    20862985.375
 11  8 15  1 15  0.0000000  0  9G30G25G09G02G04G17G10G05G12
 116933298.578 7  91116911.58545  22251669.391                    22251678.938
 120502680.243 7  93898257.442 7  22930907.008                    22930919.215
 130005568.097 6 101303110.20443  24739253.789                    24739266.828
 108845925.216 8  84815195.75946  20712686.039                    20712692.383
 119390878.555 7  93031973.35144  22719309.102                    22719319.176
 125745365.752 7  97983505.701 6  23928545.820                    23928556.574
 111145405.423 8  86606932.42345  21150252.703                    21150261.605
 110352746.779 8  85989244.983 7  20999422.445                    20999431.859
 109609928.696 8  85410415.655 7  20858079.445                    20858088.188
 11  8 15  1 15 30.0000000  0  9G30G25G09G02G04G17G10G05G12
 116866215.963 7  91064639.41545  22238903.891                    22238913.570
 120421325.308 7  93834863.988 7  22915425.805                    22915437.879
 130088218.501 6 101367513.01043  24754981.570                    24754994.570
 108862706.628 8  84828272.19646  20715878.898                    20715885.801
 119473123.476 7  93096060.28644  22734960.344                    22734970.102
 125810257.583 6  98034070.747 6  23940894.531                    23940905.301
 111186279.025 8  86638781.97746  21158030.180                    21158039.227
 110289072.769 8  85939628.910 7  20987305.719                    20987315.023
 109584746.615 8  85390793.261 7  20853287.641                    20853296.344
 11  8 15  1 16  0.0000000  0  9G30G25G09G02G04G17G10G05G12
 116799617.581 7  91012744.58745  22226230.555                    22226240.418
 120340326.755 7  93771748.233 7  22900012.266                    22900024.461
 130170811.742 6 101431871.27943  24770698.594                    24770711.914
 108879699.950 8  84841513.74046  20719112.883                    20719119.641
 119555395.422 7  93160168.27644  22750615.438                    22750625.363
 125875332.201 6  98084778.214 7  23953278.000                    23953289.488
 111227736.150 8  86671086.22045  21165919.414                    21165928.512
 110225874.130 8  85890383.255 7  20975279.609                    20975289.285
 109560120.013 8  85371603.696 7  20848601.000                    20848609.914
 11  8 15  1 16 30.0000000  0  9G30G25G09G02G04G17G10G05G12
 116733505.840 7  90961228.95345  22213649.578                    22213659.883
 120259687.184 7  93708912.214 7  22884667.461                    22884678.785
 130253345.021 6 101496182.83343  24786403.977                    24786417.480
 108896904.094 8  84854919.57446  20722386.508                    20722393.082
 119637693.257 7  93224296.42644  22766276.422                    22766286.625
 125940589.851 6  98135628.301 6  23965696.313                    23965707.422
 111269775.551 8  86703844.19245  21173919.297                    21173928.270
 110163153.059 8  85841509.729 7  20963344.352                    20963353.602
 109536050.387 8  85352848.149 7  20844020.695                    20844029.488
 11  8 15  1 17  0.0000000  0  9G30G25G09G02G04G17G10G05G12
 116667882.935 7  90910094.23045  22201162.617                    22201172.301
 120179409.223 7  93646357.964 7  22869390.992                    22869402.805
 130335815.258 6 101560445.26642  24802098.336                    24802111.199
 108914318.077 8  84868488.91146  20725700.344                    20725707.180
 119720015.591 7  93288443.67344  22781942.063                    22781952.512
 126006030.917 7  98186621.298 6  23978149.242                    23978160.281
 111312395.257 8  86737054.34846  21182029.656                    21182038.836
 110100911.718 8  85793010.017 7  20951500.297                    20951509.559
 109512538.997 8  85334527.588 7  20839546.305                    20839554.949
 11  8 15  1 17 30.0000000  0  9G30G25G09G02G04G17G10G05G12
 116602751.285 7  90859342.31045  22188767.891                    22188777.727
 120099495.503 7  93584087.533 7  22854183.664                    22854195.879
 130418219.693 6 101624656.40643  24817779.258                    24817792.453
 108931940.701 8  84882220.83346  20729053.813                    20729060.680
 119802360.979 7  93352608.88844  22797611.516                    22797622.324
 126071655.315 6  98237757.174 6  23990637.211                    23990647.910
 111355593.629 8  86770715.41045  21190249.602                    21190259.047
 110039152.291 8  85744885.825 7  20939747.594                    20939757.090
 109489586.911 8  85316642.839 7  20835179.227                    20835187.363
 11  8 15  1 18  0.0000000  0  9G30G25G09G02G04G17G10G05G12
 116538112.901 7  90808974.74545  22176467.820                    22176477.730
 120019948.305 7  93522102.706 7  22839045.953                    22839058.074
 130500555.451 6 101688814.05542  24833447.102                    24833459.961
 108949770.513 8  84896114.19346  20732446.680                    20732453.766
 119884728.086 7  93416791.02544  22813285.438                    22813296.316
 126137463.325 6  98289036.144 6  24003159.672                    24003170.344
 111399368.723 8  86804825.86746  21198580.164                    21198589.445
 109977876.357 8  85697138.380 7  20928087.297                    20928096.199
 109467195.362 8  85299194.873 7  20830918.148                    20830926.570
 11  8 15  1 18 30.0000000  0  9G30G25G09G02G04G17G10G05G12
 116473970.117 7  90758993.35745  22164261.781                    22164271.508
 119940770.312 7  93460405.571 7  22823978.648                    22823991.230
 130582819.206 6 101752915.62443  24849100.742                    24849114.422
 108967806.533 8  84910168.22646  20735878.914                    20735885.609
 119967115.707 7  93480989.14044  22828963.844                    22828974.223
 126203455.147 6  98340458.320 6  24015717.664                    24015728.461
 111443719.238 8  86839384.70845  21207019.664                    21207029.398
 109917086.184 8  85649769.448 7  20916519.305                    20916528.238
 109445365.059 8  85282184.242 7  20826764.008                    20826772.438
 11  8 15  1 19  0.0000000  0  8G30G25G02G04G17G10G05G12
 116410325.674 7  90709400.29245  22152150.578                    22152160.621
 119861964.588 7  93398998.532 7  22808982.563                    22808994.953
 108986048.401 8  84924382.66946  20739350.188                    20739356.617
 120049523.072 7  93545202.63344  22844645.531                    22844655.664
 126269631.286 6  98392024.140 6  24028310.633                    24028321.211
 111488643.711 8  86874390.77045  21215568.516                    21215577.949
 109856784.291 8  85602780.995 7  20905043.844                    20905053.316
 109424097.695 8  85265612.263 7  20822716.891                    20822725.152
 11  8 15  1 19 30.0000000  0  8G30G25G02G04G17G10G05G12
 116347181.573 7  90660197.10545  22140134.852                    22140144.730
 119783533.439 7  93337883.360 7  22794057.961                    22794069.859
 109004494.413 8  84938756.17346  20742860.602                    20742867.508
 120131948.599 7  93609430.30044  22860330.523                    22860340.352
 126335991.876 6  98443733.706 6  24040938.625                    24040948.250
 111534140.512 8  86909842.82145  21224226.344                    21224235.648
 109796972.471 8  85556174.412 7  20893662.352                    20893671.766
 109403394.590 8  85249479.964 7  20818777.172                    20818785.977
 11  8 15  1 20  0.0000000  0  8G30G25G02G04G17G10G05G12
 116284539.848 7  90611385.37845  22128214.383                    22128224.340
 119705479.166 8  93277061.856 7  22779204.867                    22779217.016
 109023142.864 8  84953287.42946  20746409.266                    20746415.863
 120214390.877 7  93673671.00444  22876018.719                    22876028.324
 126402536.493 6  98495586.662 6  24053601.070                    24053611.980
 111580207.221 8  86945738.95745  21232992.430                    21233001.969
 109737652.404 8  85509951.015 7  20882373.758                    20882383.453
 109383255.680 8  85233787.296 7  20814945.039                    20814953.824
 11  8 15  1 20 30.0000000  0  8G30G25G02G04G17G10G05G12
 116222402.653 7  90562966.79245  22116389.969                    22116400.047
 119627804.444 7  93216536.124 7  22764424.133                    22764436.070
 109041993.373 8  84967976.12246  20749996.336                    20750003.219
 120296848.769 7  93737923.86744  22891709.813                    22891719.242
 126469265.445 6  98547583.185 6  24066298.836                    24066310.578
 111626841.948 8  86982077.69546  21241867.023                    21241875.875
 109678826.080 8  85464112.357 7  20871179.672                    20871189.031
 109363682.216 8  85218535.231 7  20811220.445                    20811228.645
 11  8 15  1 21  0.0000000  0  8G30G25G02G04G17G10G05G12
 116160772.047 7  90514942.94945  22104662.156                    22104672.254
 119550511.528 7  93156307.881 7  22749715.195                    22749727.219
 109061044.227 8  84982820.94046  20753621.609                    20753628.313
 120379320.804 7  93802187.74844  22907404.133                    22907413.000
 126536178.749 6  98599723.442 6  24079032.211                    24079042.648
 111674043.222 7  87018857.92045  21250848.563                    21250858.082
 109620495.285 8  85418659.822 8  20860079.766                    20860089.043
 109344675.309 8  85203724.648 7  20807603.375                    20807612.227
 11  8 15  1 21 30.0000000  0  8G30G25G02G04G17G10G05G12
 116099650.244 7  90467315.56345  22093031.258                    22093040.730
 119473603.106 7  93096379.260 7  22735080.680                    22735092.914
 109080294.297 8  84997820.98546  20757284.914                    20757291.188
 120461805.834 7  93866461.78544  22923100.148                    22923109.785
 126603276.733 6  98652007.526 6  24091801.023                    24091811.598
 111721809.311 8  87056078.23945  21259938.508                    21259947.824
 109562662.014 8  85373594.968 7  20849074.438                    20849083.684
 109326235.958 8  85189356.305 7  20804094.586                    20804103.070
 11  8 15  1 22  0.0000000  0  8G30G25G02G04G17G10G05G12
 116039039.414 7  90420086.35245  22081497.125                    22081507.051
 119397081.661 7  93036752.178 7  22720518.898                    22720530.875
 109099742.615 8  85012975.50346  20760985.695                    20760992.340
 120544302.667 7  93930744.99444  22938798.875                    22938808.613
 126670559.464 6  98704435.625 5  24104603.672                    24104614.695
 111770137.964 8  87093736.92445  21269135.078                    21269144.543
 109505328.075 8  85328919.205 7  20838164.148                    20838173.293
 109308364.934 8  85175430.831 7  20800693.898                    20800702.238
 11  8 15  1 22 30.0000000  0  8G30G25G02G04G17G10G05G12
 115978941.643 7  90373256.91545  22070061.219                    22070070.855
 119320949.617 7  92977428.525 7  22706031.188                    22706043.176
 109119388.059 8  85028283.63646  20764723.680                    20764730.633
 120626810.257 7  93995036.59144  22954499.773                    22954509.633
 126738027.029 6  98757007.741 5  24117441.977                    24117452.891
 111819027.319 8  87131832.52746  21278438.859                    21278448.359
 109448495.368 8  85284634.008 7  20827349.008                    20827358.641
 109291063.171 8  85161948.925 7  20797401.336                    20797410.188
 11  8 15  1 23  0.0000000  0  8G30G25G02G04G17G10G05G12
 115919359.035 7  90326828.91445  22058723.000                    22058732.754
 119245209.559 8  92918410.320 7  22691618.797                    22691630.359
 109139229.437 8  85043744.44546  20768499.570                    20768506.453
 120709327.346 7  94059335.59444  22970202.578                    22970211.855
 126805679.540 6  98809723.959 6  24130316.539                    24130327.148
 111868475.933 8  87170363.90745  21287848.453                    21287857.871
 109392165.811 8  85240740.883 7  20816630.117                    20816638.969
 109274331.471 8  85148911.232 7  20794217.367                    20794226.184
 11  8 15  1 23 30.0000000  0  8G30G25G02G04G17G10G05G12
 115860293.740 7  90280804.00845  22047483.297                    22047493.172
 119169864.026 7  92859699.532 7  22677280.734                    22677292.758
 109159265.624 8  85059357.05046  20772312.406                    20772319.199
 120791852.759 6  94123641.07944  22985906.250                    22985916.145
 126873517.094 6  98862584.356 5  24143226.031                    24143235.512
 111918481.679 8  87209329.41946  21297364.031                    21297373.254
 109336341.246 8  85197241.265 7  20806006.688                    20806015.863
 109258170.918 8  85136318.587 7  20791142.367                    20791150.988
 11  8 15  1 24  0.0000000  0  8G30G25G02G04G17G10G05G12
 115801747.520 7  90235183.58045  22036342.172                    22036352.043
 119094915.170 8  92801297.834 7  22663018.563                    22663029.988
 109179495.377 8  85075120.48346  20776162.383                    20776169.121
 120874385.026 7  94187951.90644  23001611.453                    23001621.852
 126941539.739 6  98915589.016 6  24156169.859                    24156179.891
 111969042.352 8  87248727.33646  21306985.391                    21306994.500
 109281023.226 8  85154136.350 7  20795480.305                    20795489.262
 109242582.571 8  85124171.815 7  20788175.852                    20788184.477
 11  8 15  1 24 30.0000000  0  8G30G25G02G04G17G10G05G12
 115743722.895 7  90189969.57545  22025300.500                    22025310.195
 119020365.905 8  92743207.505 7  22648832.438                    22648844.004
 109199917.947 8  85091034.16946  20780048.539                    20780055.313
 120956923.342 6  94252267.43044  23017318.039                    23017328.527
 127009747.531 6  98968737.953 6  24169150.453                    24169159.707
 112020156.439 8  87288556.49145  21316711.859                    21316721.336
 109226213.889 8  85111427.808 7  20785050.367                    20785059.164
 109227566.430 8  85112470.920 7  20785318.586                    20785326.742
 11  8 15  1 25  0.0000000  0  8G30G25G02G04G17G10G05G12
 115686221.735 7  90145163.48145  22014358.273                    22014368.277
 118946218.545 8  92685430.353 7  22634722.234                    22634734.516
 109220532.128 8  85107097.17446  20783971.055                    20783977.656
 121039466.727 7  94316586.91444  23033025.055                    23033035.848
 127078140.565 6  99022031.171 6  24182164.969                    24182174.840
 112071821.941 8  87328815.32445  21326543.797                    21326553.027
 109171915.184 8  85069117.160 8  20774717.531                    20774726.750
 109213123.661 8  85101216.808 7  20782570.258                    20782578.516
 11  8 15  1 25 30.0000000  0  8G30G25G02G04G17G10G05G12
 115629245.939 7  90100766.76145  22003515.977                    22003526.020
 118872475.422 7  92627968.185 7  22620689.625                    22620701.352
 109241336.461 8  85123308.33846  20787929.922                    20787936.738
 121122013.713 7  94380909.19644  23048733.641                    23048743.352
 127146718.841 6  99075468.747 6  24195214.281                    24195225.402
 112124036.522 8  87369502.01245  21336480.250                    21336488.953
 109118128.510 8  85027205.503 7  20764482.180                    20764491.273
 109199255.010 8  85090410.063 7  20779930.602                    20779939.668
 11  8 15  1 26  0.0000000  0  8G30G25G02G04G17G10G05G12
 115572797.426 7  90056780.89245  21992774.500                    21992784.320
 118799139.042 7  92570822.967 7  22606733.891                    22606745.871
 109262329.970 8  85139666.90846  20791925.016                    20791931.844
 121204563.109 7  94445233.35244  23064442.156                    23064451.883
 127215482.488 6  99129050.826 6  24208300.086                    24208309.355
 112176798.117 8  87410614.93545  21346520.094                    21346529.543
 109064855.337 8  84985693.976 7  20754344.773                    20754353.785
 109185961.423 8  85080051.422 7  20777400.992                    20777409.488
 11  8 15  1 26 30.0000000  0  8G30G25G02G04G17G10G05G12
 115516878.421 7  90013207.64045  21982133.406                    21982143.188
 118726211.863 7  92513996.592 7  22592856.156                    22592868.250
 109283511.574 8  85156172.04946  20795955.750                    20795962.551
 121287114.007 7  94509558.68044  23080151.422                    23080161.320
 127284431.592 6  99182777.350 6  24221420.898                    24221430.191
 112230105.155 7  87452152.87945  21356663.883                    21356673.527
 109012097.728 8  84944584.180 7  20744305.242                    20744314.023
 109173243.502 8  85070141.345 7  20774981.023                    20774989.883
 11  8 15  1 27  0.0000000  0  8G30G25G02G04G17G10G05G12
 115461490.560 8  89970048.25845  21971593.125                    21971603.422
 118653696.100 8  92457490.798 7  22579056.961                    22579068.699
 109304879.830 8  85172822.63446  20800021.922                    20800028.926
 121369665.308 7  94573884.32744  23095860.211                    23095870.758
 127353565.858 6  99236648.161 6  24234576.656                    24234586.813
 112283955.152 7  87494113.90745  21366911.508                    21366921.059
 108959857.397 8  84903877.457 8  20734364.172                    20734373.598
 109161101.229 8  85060679.827 7  20772670.469                    20772678.859
 11  8 15  1 27 30.0000000  0  8G30G25G02G04G17G10G05G12
 115406636.218 8  89927304.62645  21961154.969                    21961164.738
 118581594.585 7  92401307.798 7  22565336.563                    22565349.219
 109326434.538 8  85189618.50346  20804123.391                    20804130.133
 121452215.874 7  94638209.41244  23111568.977                    23111579.148
 127422885.858 7  99290663.734 6  24247767.750                    24247777.793
 112338346.339 7  87536496.63545  21377261.578                    21377270.852
 108908136.107 8  84863575.186 7  20724521.813                    20724530.813
 109149536.229 8  85051668.135 7  20770469.742                    20770478.367
 11  8 15  1 28  0.0000000  0  8G30G25G02G04G17G10G05G12
 115352317.006 7  89884977.97945  21950817.797                    21950828.047
 118509909.429 7  92345449.234 7  22551695.461                    22551707.344
 109348173.931 8  85206558.28746  20808260.594                    20808267.172
 121534764.650 6  94702533.11844  23127277.563                    23127287.926
 127492391.438 6  99344823.905 6  24260993.969                    24261004.000
 112393276.431 7  87579299.30545  21387714.609                    21387723.945
 108856935.560 8  84823678.686 8  20714778.625                    20714787.625
 109138548.788 8  85043106.487 7  20768378.891                    20768387.406
 11  8 15  1 28 30.0000000  0  9G30G25G29G02G04G17G10G05G12
 115298534.933 7  89843069.87845  21940583.422                    21940593.559
 118438643.073 7  92289917.010 7  22538133.523                    22538145.676
 129590839.58717 100979923.43016  24660325.617
 109370097.151 8  85223641.31146  20812432.406                    20812438.984
 121617310.405 7  94766854.44144  23142985.445                    23142995.211
 127562082.343 6  99399128.464 6  24274256.820                    24274266.305
 112448743.288 8  87622520.22445  21398269.688                    21398278.602
 108806257.104 8  84784189.015 7  20705134.813                    20705144.195
 109128139.797 8  85034995.571 7  20766398.359                    20766406.832
 11  8 15  1 29  0.0000000  0  9G30G25G29G02G04G17G10G05G12
 115245291.809 7  89801581.73045  21930452.125                    21930461.773
 118367797.902 7  92234712.973 7  22524652.648                    22524664.207
 129511291.170 7 100917937.657 6  24645187.680                    24645198.133
 109392202.901 8  85240866.56546  20816638.867                    20816645.465
 121699852.202 6  94831172.68644  23158692.758                    23158702.477
 127631958.825 6  99453577.617 6  24287552.727                    24287563.121
 112504744.898 8  87666157.83645  21408925.953                    21408934.938
 108756102.364 8  84745107.432 8  20695591.016                    20695600.117
 109118309.050 8  85027335.235 7  20764527.352                    20764536.020
 11  8 15  1 29 30.0000000  0  9G30G25G29G02G04G17G10G05G12
 115192589.826 7  89760515.25845  21920423.500                    21920433.414
 118297376.598 7  92179839.214 7  22511251.734                    22511263.730
 129431667.245 7 100855893.028 6  24630035.938                    24630046.715
 109414490.625 8  85258233.61646  20820879.992                    20820886.703
 121782389.181 6  94895487.18844  23174398.156                    23174409.539
 127702021.309 7  99508171.728 6  24300885.352                    24300895.547
 112561279.350 7  87710210.63745  21419684.578                    21419693.762
 108706473.076 8  84706435.295 8  20686146.844                    20686155.813
 109109057.713 8  85020126.387 7  20762766.727                    20762774.930
 11  8 15  1 30  0.0000000  0  9G30G25G29G02G04G17G10G05G12
 115140430.545 7  89719871.67845  21910497.984                    21910507.203
 118227381.286 7  92125297.400 7  22497931.922                    22497943.949
 129351967.853 7 100793789.578 6  24614869.273                    24614880.602
 109436958.904 8  85275741.35746  20825155.758                    20825162.789
 121864920.241 7  94959797.07444  23190104.578                    23190114.465
 127772269.321 7  99562910.424 6  24314254.078                    24314263.574
 112618344.403 7  87754676.90245  21430543.352                    21430552.965
 108657370.782 8  84668173.791 8  20676803.055                    20676811.914
 109100386.343 8  85013369.449 7  20761117.031                    20761125.684
 11  8 15  1 30 30.0000000  0  9G30G25G29G02G04G17G10G05G12
 115088815.729 7  89679652.38045  21900675.539                    21900685.414
 118157814.208 7  92071089.280 7  22484693.859                    22484705.934
 129272193.861 7 100731628.010 6  24599688.875                    24599699.762
 109459606.296 8  85293388.66546  20829465.563                    20829472.148
 121947444.178 7  95024101.40644  23205808.516                    23205818.797
 127842702.714 6  99617793.555 6  24327656.508                    24327666.703
 112675937.843 7  87799554.89345  21441503.125                    21441512.430
 108608797.048 8  84630324.164 8  20667559.633                    20667568.262
 109092295.224 8  85007064.672 7  20759577.156                    20759585.730
 11  8 15  1 31  0.0000000  0  9G30G25G29G02G04G17G10G05G12
 115037747.037 7  89639858.62845  21890957.258                    21890967.406
 118088677.642 7  92017216.616 7  22471537.992                    22471549.883
 129192345.860 6 100669408.747 5  24584493.992                    24584505.531
 109482431.876 8  85311174.82446  20833809.086                    20833815.711
 122029959.995 7  95088399.43044  23221510.609                    23221520.918
 127913321.389 6  99672821.044 6  24341094.250                    24341105.801
 112734057.286 8  87844842.75245  21452563.344                    21452572.586
 108560753.155 8  84592887.392 8  20658417.203                    20658425.902
 109084784.655 8  85001212.261 7  20758147.797                    20758156.414
 11  8 15  1 31 30.0000000  0  9G30G25G29G02G04G17G10G05G12
 114987226.510 7  89600492.01345  21881344.141                    21881353.926
 118019974.121 7  91963681.410 7  22458463.875                    22458475.992
 129112424.166 6 100607132.026 5  24569285.242                    24569296.750
 109505434.881 8  85329099.24146  20838186.305                    20838192.484
 122112466.553 7  95152690.22444  23237210.938                    23237221.438
 127984125.528 6  99727993.084 6  24354567.961                    24354579.563
 112792700.306 7  87890538.60245  21463722.281                    21463731.301
 108513240.785 8  84555864.802 8  20649375.352                    20649384.664
 109077855.384 8  84995812.812 7  20756829.555                    20756837.957
 11  8 15  1 32  0.0000000  0  9G30G25G29G02G04G17G10G05G12
 114937255.776 8  89561553.81745  21871834.625                    21871844.313
 117951705.752 7  91910485.279 7  22445472.523                    22445484.629
 129032429.483 6 100544798.370 4  24554063.672                    24554074.383
 109528613.973 8  85347160.86846  20842597.234                    20842603.703
 122194962.907 7  95216973.05944  23252909.609                    23252919.160
 128055115.074 6  99783309.577 6  24368077.109                    24368088.184
 112851864.755 8  87936640.76945  21474981.031                    21474990.340
 108466261.205 8  84519257.368 8  20640435.719                    20640444.785
 109071507.527 8  84990866.412 7  20755621.695                    20755629.859
 11  8 15  1 32 30.0000000  0  9G30G25G29G02G04G17G10G05G12
 114887836.407 8  89523045.24345  21862430.469                    21862440.406
 117883874.847 7  91857630.026 7  22432564.563                    22432576.641
 128952362.147 6 100482408.185 5  24538826.727                    24538838.375
 109551967.903 8  85365358.73346  20847041.352                    20847048.199
 122277448.037 6  95281247.16944  23268605.563                    23268616.695
 128126289.850 6  99838770.391 6  24381621.961                    24381632.344
 112911548.400 7  87983147.49645  21486338.039                    21486347.461
 108419815.991 8  84483066.321 8  20631597.563                    20631606.383
 109065741.666 8  84986373.510 7  20754524.391                    20754532.699
 11  8 15  1 33  0.0000000  0  9G30G25G29G02G04G17G10G05G12
 114838970.381 8  89484967.86045  21853131.414                    21853140.941
 117816483.934 7  91805117.636 7  22419741.266                    22419752.906
 128872223.006 5 100419962.075 5  24523576.992                    24523588.781
 109575496.174 8  85383692.45046  20851518.203                    20851525.375
 122359921.126 6  95345511.90844  23284299.594                    23284310.379
 128197649.842 6  99894375.570 6  24395199.516                    24395211.336
 112971749.292 7  88030057.27145  21497794.266                    21497803.754
 108373906.577 8  84447292.781 8  20622861.219                    20622870.207
 109060557.992 8  84982334.271 7  20753537.953                    20753546.547
 11  8 15  1 33 30.0000000  0  9G30G25G29G02G04G17G10G05G12
 114790659.184 8  89447322.81345  21843938.148                    21843948.094
 117749535.012 7  91752949.659 7  22407001.070                    22407012.363
 128792012.340 5 100357460.301 5  24508312.609                    24508325.168
 109599197.216 8  85402160.79346  20856028.367                    20856035.723
 122442380.917 6  95409766.31544  23299991.430                    23300002.133
 128269194.947 5  99950124.912 5  24408815.211                    24408825.586
 113032464.792 8  88077368.02745  21509348.242                    21509357.820
 108328534.268 8  84411937.764 8  20614226.891                    20614235.965
 109055956.856 8  84978748.946 7  20752662.266                    20752671.109
 11  8 15  1 34  0.0000000  0  9G30G25G29G02G04G17G10G05G12
 114742904.916 7  89410111.72845  21834850.859                    21834860.371
 117683030.731 7  91701128.173 7  22394345.641                    22394357.477
 128711731.040 6 100294903.485 6  24493036.430                    24493048.105
 109623070.463 7  85420763.32146  20860571.297                    20860578.320
 122524826.912 7  95474009.93344  23315680.617                    23315691.559
 128340925.361 6 100006018.737 6  24422464.805                    24422476.492
 113093692.939 7  88125078.25545  21520999.211                    21521009.016
 108283701.127 8  84377002.877 8  20605695.492                    20605704.477
 109051939.197 7  84975618.292 7  20751897.977                    20751906.488
 11  8 15  1 34 30.0000000  0  9G30G25G29G02G04G17G10G05G12
 114695708.533 7  89373335.36545  21825869.719                    21825879.160
 117616972.786 7  91649654.475 7  22381774.844                    22381787.047
 128631379.325 6 100232291.793 6  24477746.188                    24477757.902
 109647114.262 8  85439498.74446  20865146.820                    20865153.793
 122607257.524 6  95538241.57744  23331366.438                    23331377.434
 128412840.800 6 100062056.759 6  24436150.195                    24436161.586
 113155430.714 7  88173185.59245  21532747.648                    21532756.820
 108239407.305 8  84342488.240 8  20597266.898                    20597276.016
 109048504.562 8  84972941.937 7  20751244.172                    20751252.777
 11  8 15  1 35  0.0000000  0  9G30G25G29G02G04G17G10G05G12
 114649072.185 8  89336995.37145  21816995.047                    21817004.500
 117551363.931 7  91598530.736 7  22369290.016                    22369301.848
 128550958.180 6 100169626.038 6  24462441.422                    24462453.641
 109671328.280 8  85458366.81246  20869754.664                    20869761.859
 122689672.520 7  95602461.04944  23347049.852                    23347060.035
 128484941.231 6 100118238.897 6  24449870.344                    24449881.387
 113217676.671 7  88221688.93245  21544592.492                    21544601.742
 108195655.294 8  84308395.794 8  20588940.930                    20588949.980
 109045653.637 8  84970720.427 7  20750701.828                    20750710.188
 11  8 15  1 35 30.0000000  0  9G30G25G29G02G04G17G10G05G12
 114602997.244 7  89301092.84845  21808227.797                    21808236.992
 117486206.130 7  91547758.450 7  22356890.797                    22356902.742
 128470468.087 6 100106906.547 6  24447124.906                    24447136.535
 109695710.991 8  85477366.32646  20874394.711                    20874401.891
 122772070.392 7  95666667.19744  23362729.617                    23362739.910
 128557226.254 6 100174564.864 6  24463626.359                    24463637.328
 113280427.833 7  88270585.92145  21556534.008                    21556542.750
 108152445.719 8  84274726.023 8  20580718.391                    20580727.332
 109043386.300 8  84968953.651 7  20750270.242                    20750278.973
 11  8 15  1 36  0.0000000  0  9G30G25G29G02G04G17G10G05G12
 114557485.339 8  89265629.03245  21799566.320                    21799575.859
 117421501.618 7  91497339.397 7  22344578.180                    22344589.559
 128389909.508 7 100044133.660 6  24431795.602                    24431807.223
 109720261.135 8  85496496.30246  20879066.531                    20879073.555
 122854450.473 6  95730859.44343  23378405.797                    23378416.027
 128629696.007 6 100231034.820 6  24477416.813                    24477427.816
 113343682.019 7  88319874.88545  21568570.883                    21568580.082
 108109780.057 8  84241480.080 8  20572599.547                    20572608.500
 109041703.107 8  84967642.071 7  20749949.984                    20749958.488
 11  8 15  1 36 30.0000000  0  9G30G25G29G02G04G17G10G05G12
 114512538.049 7  89230605.18145  21791013.250                    21791023.074
 117357252.734 7  91447275.374 7  22332351.961                    22332364.043
 128309283.191 7  99981307.990 6  24416453.578                    24416464.250
 109744978.055 8  85515756.24646  20883769.703                    20883776.637
 122936811.641 6  95795037.03344  23394078.320                    23394088.621
 128702350.332 6 100287648.563 6  24491242.133                    24491252.512
 113407436.974 7  88369554.05545  21580703.266                    21580712.129
 108067659.562 8  84208658.940 8  20564584.086                    20564592.828
 109040603.913 8  84966785.549 7  20749740.914                    20749749.590
 11  8 15  1 37  0.0000000  0  8G30G25G29G02G04G10G05G12
 114468156.844 7  89196022.43645  21782567.953                    21782577.938
 117293461.515 7  91397567.973 7  22320212.828                    22320224.977
 128228589.854 7  99918430.085 6  24401098.125                    24401108.605
 109769860.816 8  85535145.40146  20888505.031                    20888511.613
 123019153.303 6  95859199.32743  23409747.719                    23409757.258
 113471690.065 7  88419621.38545  21592929.773                    21592939.055
 108026085.411 8  84176263.529 8  20556672.664                    20556681.262
 109040089.225 8  84966384.493 7  20749643.000                    20749651.852
 11  8 15  1 37 30.0000000  0  8G30G25G29G02G04G10G05G12
 114424343.136 7  89161881.88445  21774230.367                    21774240.125
 117230129.987 7  91348218.775 7  22308160.914                    22308172.957
 128147829.836 7  99855500.233 6  24385729.344                    24385740.543
 109794908.079 8  85554662.74546  20893271.422                    20893277.980
 123101474.113 6  95923345.42544  23425413.141                    23425423.031
 113536438.843 7  88470074.96845  21605251.125                    21605260.242
 107985058.802 8  84144294.770 8  20548865.961                    20548874.730
 109040158.884 8  84966438.780 7  20749655.992                    20749664.574
 11  8 15  1 38  0.0000000  0  8G30G25G29G02G04G10G05G12
 114381098.758 7  89128184.96845  21766000.953                    21766010.719
 117167260.755 7  91299229.802 7  22296197.453                    22296209.648
 128067004.386 7  99792519.366 6  24370349.430                    24370360.586
 109820119.243 8  85574307.81246  20898068.633                    20898075.352
 123183773.609 6  95987474.90843  23441074.359                    23441083.953
 113601681.231 7  88520913.17145  21617666.406                    21617675.414
 107944581.179 8  84112753.793 8  20541163.117                    20541171.734
 109040813.671 8  84966949.003 7  20749780.656                    20749789.410
 11  8 15  1 38 30.0000000  0  8G30G25G29G02G04G10G05G12
 114338424.819 8  89094932.54845  21757880.461                    21757890.461
 117104855.531 7  91250602.386 7  22284322.328                    22284334.305
 127986113.574 7  99729487.568 6  24354956.117                    24354966.891
 109845492.862 8  85594079.45646  20902897.086                    20902904.234
 123266050.700 6  96051586.91743  23456730.875                    23456740.793
 113667414.401 7  88572133.82045  21630175.023                    21630184.098
 107904653.681 8  84081641.483 8  20533565.406                    20533574.191
 109042052.698 8  84967914.478 7  20750016.477                    20750025.344
 11  8 15  1 39  0.0000000  0  8G30G25G29G02G04G10G05G12
 114296323.176 7  89062126.07445  21749869.023                    21749878.746
 117042916.870 7  91202338.520 7  22272535.438                    22272547.746
 127905158.388 6  99666405.623 6  24339550.047                    24339561.797
 109871028.409 8  85613977.28546  20907756.359                    20907763.469
 123348304.759 6  96115680.97244  23472383.094                    23472394.133
 113733636.412 7  88623735.37145  21642776.867                    21642786.023
 107865277.463 8  84050958.746 8  20526072.086                    20526081.152
 109043876.400 8  84969335.542 7  20750363.695                    20750372.246
 11  8 15  1 39 30.0000000  0  8G30G25G29G02G04G10G05G12
 114254795.157 7  89029766.55345  21741966.680                    21741976.012
 116981446.763 7  91154439.758 7  22260838.109                    22260850.164
 127824139.578 6  99603274.136 6  24324132.773                    24324144.141
 109896724.845 8  85634000.47446  20912646.125                    20912653.250
 123430534.983 6  96179756.44543  23488031.789                    23488041.520
 113800344.474 7  88675715.66445  21655471.164                    21655480.121
 107826453.536 8  84020706.360 8  20518683.938                    20518692.953
 109046284.839 8  84971212.252 7  20750822.320                    20750830.801
 11  8 15  1 40  0.0000000  0  8G30G25G29G02G04G10G05G12
 114213842.077 7  88997855.04645  21734173.406                    21734182.844
 116920447.343 7  91106907.767 7  22249230.305                    22249242.434
 127743057.835 6  99540093.552 6  24308703.719                    24308715.348
 109922581.029 8  85654148.14346  20917566.305                    20917573.715
 123512740.315 7  96243812.52944  23503673.383                    23503685.723
 113867536.270 7  88728072.89945  21668257.133                    21668266.418
 107788183.195 7  83990885.335 8  20511401.594                    20511410.383
 109049278.393 8  84973544.888 7  20751391.508                    20751400.156
 11  8 15  1 40 30.0000000  0  8G30G25G29G02G04G10G05G12
 114173465.392 7  88966392.68845  21726489.758                    21726499.965
 116859920.736 8  91059744.187 7  22237712.313                    22237724.453
 127661913.822 6  99476864.406 5  24293262.469                    24293273.637
 109948595.865 8  85674419.44146  20922516.938                    20922523.961
 123594920.047 7  96307848.65744  23519312.508                    23519323.465
 113935209.362 7  88780805.16445  21681134.719                    21681144.266
 107750467.378 8  83961496.417 8  20504224.398                    20504233.238
 109052856.841 8  84976333.284 7  20752072.836                    20752081.762
 11  8 15  1 41  0.0000000  0  8G30G25G29G02G04G10G05G12
 114133666.233 8  88935380.33845  21718916.633                    21718925.922
 116799868.733 8  91012950.437 7  22226285.180                    22226296.906
 127580708.267 6  99413587.357 6  24277809.938                    24277820.598
 109974768.396 8  85694813.62546  20927497.430                    20927504.121
 123677073.133 6  96371864.03444  23534946.102                    23534956.332
 114003360.975 7  88833910.30145  21694103.547                    21694112.762
 107713307.118 8  83932540.402 8  20497153.031                    20497161.711
 109057020.162 8  84979577.428 7  20752864.883                    20752873.293
 11  8 15  1 41 30.0000000  0  8G30G25G29G02G04G10G05G12
 114094446.227 8  88904819.27445  21711453.039                    21711463.227
 116740293.770 8  90966528.399 7  22214947.914                    22214960.336
 127499441.939 6  99350262.978 6  24262345.758                    24262356.035
 110001098.010 8  85715330.20646  20932507.430                    20932514.645
 123759199.155 6  96435858.28043  23550573.758                    23550584.906
 114071988.718 7  88887386.44545  21707163.266                    21707172.414
 107676703.768 8  83904018.341 8  20490187.781                    20490196.602
 109061768.057 8  84983277.086 7  20753768.328                    20753776.637
 11  8 15  1 42  0.0000000  0  8G30G25G29G02G04G10G05G12
 114055806.481 7  88874710.36945  21704100.172                    21704110.223
 116681197.634 7  90920479.455 7  22203702.180                    22203714.137
 127418115.560 6  99286891.773 6  24246869.125                    24246880.066
 110027583.324 8  85735968.10446  20937547.852                    20937554.719
 123841297.017 6  96499830.60443  23566196.273                    23566207.164
 114141089.912 7  88941231.51845  21720312.391                    21720321.563
 107640657.975 7  83875930.750 8  20483328.055                    20483337.098
 109067100.613 8  84987432.314 7  20754782.859                    20754791.477
 11  8 15  1 42 30.0000000  0  8G30G25G29G02G04G10G05G12
 114017748.470 7  88845054.76245  21696858.266                    21696867.898
 116622582.650 7  90874805.450 7  22192549.016                    22192560.379
 127336729.816 6  99223474.317 6  24231381.539                    24231393.082
 110054223.761 8  85756726.87646  20942617.305                    20942623.898
 123923365.991 6  96563780.42643  23581813.852                    23581824.434
 114210662.394 7  88995443.82545  21733551.500                    21733561.059
 107605171.155 8  83848278.709 8  20476575.242                    20476584.176
 109073017.653 8  84992042.987 7  20755908.859                    20755917.402
 11  8 15  1 43  0.0000000  0  8G30G25G29G02G04G10G05G12
 113980273.535 7  88815853.50245  21689727.234                    21689736.648
 116564450.837 8  90829507.927 7  22181486.273                    22181498.410
 127255285.452 6  99160011.191 6  24215883.250                    24215894.664
 110081018.381 8  85777605.79146  20947716.469                    20947722.977
 124005405.599 6  96627707.33344  23597425.148                    23597436.270
 114280703.660 7  89050021.41945  21746880.648                    21746889.352
 107570244.023 8  83821062.791 8  20469928.648                    20469937.922
 109079519.051 8  84997109.009 7  20757146.148                    20757155.008
 11  8 15  1 43 30.0000000  0  8G30G25G29G02G04G10G05G12
 113943382.369 7  88787107.12645  21682706.836                    21682716.684
 116506803.693 7  90784588.078 7  22170516.758                    22170528.441
 127173783.155 6  99096502.932 6  24200374.242                    24200385.293
 110107965.518 8  85798603.54546  20952844.188                    20952850.695
 124087414.445 6  96691610.30843  23613031.664                    23613041.566
 114351210.561 7  89104961.84745  21760297.273                    21760306.777
 107535877.165 7  83794283.457 8  20463389.008                    20463397.824
 109086604.705 8  85002630.295 7  20758494.539                    20758503.613
 11  8 15  1 44  0.0000000  0  8G30G25G29G02G04G10G05G12
 113907076.458 7  88758816.79345  21675798.164                    21675807.602
 116449643.476 8  90740047.645 7  22159639.359                    22159651.707
 127092224.138 6  99032950.431 5  24184854.250                    24184864.578
 110135064.746 8  85819719.81046  20958001.039                    20958007.809
 124169392.155 6  96755488.97643  23628631.109                    23628641.934
 114422180.732 7  89160263.26945  21773802.516                    21773812.137
 107502071.830 8  83767941.669 8  20456956.188                    20456965.258
 109094274.045 8  85008606.389 7  20759953.813                    20759962.629
 11  8 15  1 44 30.0000000  0  8G30G25G29G02G04G10G05G12
 113871356.923 7  88730983.37845  21669000.422                    21669010.445
 116392972.099 8  90695888.127 7  22148854.922                    22148867.371
 127010608.769 7  98969353.994 6  24169323.820                    24169335.227
 110162314.929 8  85840953.70846  20963186.508                    20963193.195
 124251337.743 6  96819342.64943  23644224.625                    23644235.238
 114493611.452 7  89215923.55345  21787395.172                    21787404.840
 107468828.820 8  83742038.051 8  20450630.055                    20450639.516
 109102526.952 8  85015037.224 7  20761524.266                    20761533.141
 11  8 15  1 45  0.0000000  0  8G30G25G29G02G04G10G05G12
 113836224.646 8  88703607.55745  21662315.422                    21662325.242
 116336791.301 8  90652110.886 7  22138164.320                    22138176.602
 126928937.613 6  98905714.145 6  24153781.727                    24153793.422
 110189714.663 8  85862304.13446  20968400.484                    20968407.355
 124333250.185 6  96883170.50543  23659812.469                    23659822.375
 114565500.021 7  89271940.60945  21801075.195                    21801084.590
 107436148.717 8  83716573.066 8  20444411.352                    20444420.117
 109111362.995 8  85021922.448 7  20763205.797                    20763214.238
 11  8 15  1 45 30.0000000  0  8G30G25G29G02G04G10G05G12
 113801681.638 7  88676690.92045  21655742.422                    21655751.777
 116281103.838 8  90608718.062 7  22127567.781                    22127579.395
 126847212.267 6  98842032.067 6  24138229.992                    24138241.137
 110217264.409 8  85883771.45846  20973642.930                    20973650.145
 124415129.629 6  96946972.66443  23675393.039                    23675403.715
 114637844.830 7  89328313.16345  21814841.930                    21814851.344
 107404033.240 8  83691548.038 8  20438299.938                    20438308.293
 109120782.832 8  85029262.574 7  20764998.234                    20765007.203
 11  8 15  1 46  0.0000000  0  8G30G25G29G02G04G10G05G12
 113767728.291 7  88650233.75745  21649281.078                    21649290.777
 116225910.918 8  90565710.588 7  22117064.500                    22117076.309
 126765432.881 6  98778307.868 6  24122668.102                    24122679.305
 110244962.370 8  85905354.26946  20978913.844                    20978920.707
 124496974.947 7  97010748.19643  23690968.180                    23690977.957
 114710642.275 7  89385038.41745  21828695.000                    21828704.328
 107372482.275 7  83666962.899 8  20432295.953                    20432304.754
 109130785.370 8  85037056.755 7  20766901.844                    20766910.484
 11  8 15  1 46 30.0000000  0  8G30G25G29G02G04G10G05G12
 113734366.118 7  88624237.25545  21642932.383                    21642942.168
 116171214.854 8  90523090.269 7  22106655.719                    22106668.219
 126683600.458 6  98714542.414 6  24107095.719                    24107108.102
 110272807.798 7  85927051.99746  20984212.547                    20984219.629
 124578785.468 7  97074496.63943  23706536.148                    23706544.941
 114783890.217 7  89442114.72245  21842633.516                    21842642.672
 107341497.095 8  83642818.629 8  20426399.773                    20426408.578
 109141370.580 8  85045304.974 7  20768916.297                    20768924.996
 11  8 15  1 47  0.0000000  0  8G30G25G29G02G04G10G05G12
 113701595.956 7  88598702.05145  21636696.234                    21636706.082
 116117017.383 8  90480858.484 7  22096342.414                    22096354.324
 126601715.944 6  98650736.375 6  24091513.391                    24091524.918
 110300799.638 8  85948863.80846  20989539.539                    20989546.160
 124660560.385 7  97138217.32443  23722097.820                    23722107.578
 114857585.484 7  89499539.58745  21856657.539                    21856666.383
 107311078.521 8  83619115.871 8  20420611.141                    20420619.945
 109152537.992 8  85054006.845 7  20771041.164                    20771049.965
 11  8 15  1 47 30.0000000  0  8G30G25G29G02G04G10G05G12
 113669418.419 7  88573628.63745  21630572.938                    21630583.031
 116063319.970 8  90439016.347 7  22086124.625                    22086136.145
 126519779.884 6  98586890.120 6  24075921.938                    24075932.434
 110328936.859 8  85970788.90446  20994893.570                    20994900.629
 124742298.840 7  97201909.61043  23737652.000                    23737662.016
 114931725.531 7  89557311.03545  21870765.789                    21870774.680
 107281226.906 8  83595854.895 8  20414930.695                    20414939.035
 109164286.778 8  85063161.738 7  20773277.164                    20773285.824
 11  8 15  1 48  0.0000000  0  8G30G25G29G02G04G10G05G12
 113637835.162 7  88549018.31145  21624563.234                    21624572.836
 116010125.026 8  90397565.733 7  22076001.422                    22076013.273
 126437793.606 7  98523004.777 6  24060319.586                    24060331.027
 110357218.936 8  85992826.87346  21000275.430                    21000282.828
 124824000.351 7  97265573.13743  23753198.930                    23753209.043
 115006308.139 7  89615427.33745  21884958.688                    21884967.391
 107251943.416 8  83573036.614 8  20409358.156                    20409366.766
 109176617.054 8  85072769.734 7  20775623.281                    20775632.090
 11  8 15  1 48 30.0000000  0  8G30G25G29G02G04G10G05G12
 113606846.654 7  88524871.42245  21618665.844                    21618675.746
 115957433.955 8  90356507.752 7  22065975.000                    22065986.492
 126355757.609 7  98459080.676 6  24044709.188                    24044720.129
 110385644.229 8  86014976.44846  21005684.531                    21005691.645
 124905663.911 7  97329207.03744  23768739.219                    23768749.617
 115081330.122 7  89673886.01345  21899234.586                    21899243.465
 107223228.279 8  83550661.208 8  20403893.688                    20403902.770
 109189528.000 8  85082830.209 7  20778080.219                    20778089.340
 11  8 15  1 49  0.0000000  0  8G30G25G29G02G04G10G05G12
 113576454.363 7  88501189.11245  21612883.023                    21612892.293
 115905249.034 8  90315844.173 7  22056044.727                    22056056.406
 126273673.072 7  98395118.749 6  24029089.148                    24029099.270
 110414212.882 8  86037237.73946  21011121.406                    21011128.270
 124987289.314 7  97392811.25243  23784272.219                    23784283.281
 115156789.088 7  89732685.19745  21913593.875                    21913603.535
 107195082.705 8  83528729.619 8  20398537.813                    20398546.191
 109203019.855 8  85093343.338 7  20780647.781                    20780656.574
 11  8 15  1 49 30.0000000  0  8G30G25G29G02G04G10G05G12
 113546658.908 7  88477971.86945  21607212.961                    21607222.660
 115853571.839 8  90275576.227 7  22046210.781                    22046222.613
 126191540.589 7  98331119.438 6  24013459.672                    24013469.629
 110442923.441 8  86059609.60246  21016584.563                    21016591.492
 125068875.769 7  97456385.10643  23799797.367                    23799807.762
 115232682.497 7  89791822.89645  21928035.836                    21928045.680
 107167507.057 8  83507242.121 8  20393290.336                    20393298.785
 109217091.859 8  85104308.528 7  20783325.219                    20783334.102
 11  8 15  1 50  0.0000000  0  8G30G25G29G02G04G10G05G12
 113517461.190 7  88455220.39645  21601656.953                    21601667.023
 115802404.021 8  90235705.204 7  22036473.898                    22036485.570
 126109361.120 6  98267083.536 6  23997821.211                    23997832.715
 110471774.896 8  86082091.24546  21022074.805                    21022081.891
 125150422.456 7  97519927.96943  23815314.898                    23815326.141
 115309007.226 7  89851296.70845  21942559.703                    21942569.656
 107140501.916 8  83486199.179 8  20388151.500                    20388160.074
 109231742.824 8  85115724.854 7  20786113.523                    20786122.277
 11  8 15  1 50 30.0000000  0  8G30G25G29G02G04G10G05G12
 113488862.372 7  88432935.59445  21596214.414                    21596224.059
 115751747.765 8  90196232.779 7  22026834.313                    22026846.273
 126027135.754 6  98203011.876 6  23982174.141                    23982185.289
 110500766.911 8  86104682.42646  21027591.711                    21027598.551
 125231929.203 6  97583439.71843  23830825.813                    23830836.020
 115385761.072 7  89911104.87845  21957165.883                    21957175.133
 107114068.163 8  83465601.478 8  20383121.039                    20383129.730
 109246972.687 8  85127592.261 7  20789011.273                    20789020.074
 11  8 15  1 51  0.0000000  0  8G30G25G29G02G04G10G05G12
 113460863.158 7  88411118.01545  21590886.492                    21590896.113
 115701604.537 8  90157160.138 7  22017292.188                    22017304.328
 125944865.221 6  98138904.965 6  23966518.969                    23966529.609
 110529898.498 8  86127382.35946  21033135.148                    21033142.195
 125313395.158 6  97646919.65843  23846327.898                    23846338.824
 115462941.066 7  89971245.13245  21971852.664                    21971862.063
 107088205.991 8  83445449.154 8  20378199.930                    20378208.633
 109262780.852 8  85139910.296 7  20792019.891                    20792028.957
 11  8 15  1 51 30.0000000  0  8G30G25G29G02G04G10G05G12
 113433464.251 7  88389768.20046  21585672.594                    21585682.535
 115651976.056 8  90118488.588 7  22007848.445                    22007860.074
 125862550.698 6  98074763.806 6  23950855.367                    23950865.883
 110559168.575 8  86150190.20546  21038705.352                    21038712.047
 125394819.488 6  97710367.16943  23861822.617                    23861833.289
 115540544.500 7  90031715.32545  21986620.461                    21986630.035
 107062916.089 7  83425742.759 8  20373387.172                    20373395.961
 109279167.057 8  85152678.761 7  20795138.125                    20795146.789
 11  8 15  1 52  0.0000000  0  8G30G25G29G02G04G10G05G12
 113406666.201 7  88368886.59645  21580573.344                    21580582.883
 115602863.802 8  90080219.296 7  21998502.578                    21998514.430
 125780192.694 6  98010588.749 6  23935183.125                    23935193.625
 110588575.668 8  86173104.81846  21044301.281                    21044308.066
 125476201.399 6  97773781.66443  23877308.406                    23877319.395
 115618568.202 7  90092513.01045  22001467.680                    22001477.461
 107038198.868 8  83406482.612 8  20368683.750                    20368692.652
 109296130.663 8  85165897.139 7  20798365.945                    20798374.723
 11  8 15  1 52 30.0000000  0  8G30G25G29G02G04G10G05G12
 113380469.881 8  88348473.87045  21575588.086                    21575598.391
 115554269.489 8  90042353.594 7  21989255.172                    21989267.020
 125697792.581 6  97946380.900 6  23919501.617                    23919513.926
 110618119.520 8  86196125.99646  21049923.281                    21049930.215
 125557540.447 6  97837162.74543  23892787.242                    23892798.023
 115697009.563 7  90153636.15745  22016394.250                    22016404.313
 107014054.667 8  83387668.968 8  20364089.047                    20364097.906
 109313670.080 8  85179564.210 7  20801703.641                    20801712.563
 11  8 15  1 53  0.0000000  0  8G30G25G29G02G04G10G05G12
 113354876.706 7  88328531.14346  21570718.172                    21570727.957
 115506195.568 8  90004893.397 7  21980107.133                    21980118.980
 125615351.440 6  97882141.093 6  23903813.789                    23903825.055
 110647800.538 8  86219254.06046  21055571.680                    21055578.484
 125638836.554 6  97900510.38943  23908257.164                    23908267.613
 115775866.593 7  90215083.18845  22031400.406                    22031410.605
 106990484.803 8  83369302.867 8  20359604.180                    20359612.609
 109331785.937 8  85193680.449 7  20805150.992                    20805159.453
 11  8 15  1 53 30.0000000  0  8G30G25G29G02G04G10G05G12
 113329886.865 8  88309058.53745  21565962.500                    21565972.414
 115458643.022 8  89967839.471 7  21971058.492                    21971070.180
 125532869.490 7  97817869.464 6  23888118.547                    23888129.449
 110677616.424 8  86242487.21446  21061245.375                    21061252.191
 125720088.728 6  97963823.82643  23923718.383                    23923729.941
 115855136.137 7  90276851.65845  22046484.867                    22046494.285
 106967488.959 8  83351384.045 8  20355227.813                    20355236.449
 109350476.721 8  85208244.689 7  20808707.859                    20808716.539
 11  8 15  1 54  0.0000000  0  8G30G25G29G02G04G10G05G12
 113305500.906 8  88290056.49046  21561322.203                    21561331.961
 115411613.474 8  89931193.070 7  21962109.031                    21962120.934
 125450348.438 7  97753567.391 6  23872415.391                    23872426.039
 110707566.446 8  86265824.89946  21066944.602                    21066951.762
 125801296.291 6  98027102.48343  23939172.555                    23939183.172
 115934815.095 7  90338939.14845  22061647.523                    22061656.906
 106945067.640 8  83333912.906 8  20350961.625                    20350970.262
 109369741.925 8  85223256.529 7  20812373.836                    20812382.602
 11  8 15  1 54 30.0000000  0  8G30G25G29G02G04G10G05G12
 113281719.698 8  88271525.68246  21556797.039                    21556806.867
 115365108.672 8  89894955.579 7  21953259.133                    21953271.563
 125367788.975 6  97689235.372 6  23856704.781                    23856715.375
 110737650.035 8  86289266.65946  21072668.930                    21072675.840
 125882458.845 6  98090346.04743  23954617.484                    23954628.016
 116014901.084 7  90401343.82045  22076887.078                    22076896.832
 106923221.209 8  83316889.732 8  20346803.883                    20346812.605
 109389580.661 8  85238715.276 7  20816149.273                    20816157.902
 11  8 15  1 55  0.0000000  0  8G30G25G29G02G04G10G05G12
 113258543.926 8  88253466.64046  21552386.648                    21552396.391
 115319130.240 8  89859128.236 7  21944509.750                    21944522.133
 125285192.245 6  97624874.284 6  23840987.195                    23840997.352
 110767866.369 8  86312811.86046  21078419.031                    21078426.043
 125963575.741 6  98153554.07243  23970053.680                    23970063.867
 116095391.134 7  90464063.32845  22092203.703                    22092213.051
 106901950.155 8  83300314.909 8  20342756.375                    20342765.031
 109409992.166 8  85254620.338 7  20820033.352                    20820041.777
 11  8 15  1 55 30.0000000  0  8G30G25G29G02G04G10G05G12
 113235974.248 8  88235879.88146  21548091.430                    21548101.461
 115273679.903 8  89823712.397 7  21935860.789                    21935872.770
 125202559.091 6  97560484.849 6  23825262.664                    23825273.254
 110798214.818 8  86336460.01946  21084194.367                    21084201.434
 126044646.606 6  98216726.21943  23985480.258                    23985490.914
 116176282.316 7  90527095.40945  22107597.227                    22107606.719
 106881255.040 8  83284188.867 8  20338818.273                    20338826.934
 109430975.950 8  85270971.316 7  20824026.430                    20824035.578
 11  8 15  1 56  0.0000000  0  8G30G25G29G02G04G10G05G12
 113214010.958 8  88218765.64146  21543912.117                    21543922.008
 115228758.894 8  89788709.023 7  21927312.555                    21927324.617
 125119890.400 6  97496067.712 6  23809530.398                    23809541.590
 110828694.288 8  86360210.26046  21089994.453                    21090001.215
 126125670.746 6  98279861.93543  24000898.305                    24000909.137
 116257571.863 7  90590437.90545  22123065.813                    22123075.602
 106861135.833 8  83268511.580 8  20334989.617                    20334998.262
 109452530.845 8  85287767.327 7  20828127.805                    20828137.262
 11  8 15  1 56 30.0000000  0  8G30G25G29G02G04G10G05G12
 113192655.137 8  88202124.74846  21539848.203                    21539858.055
 115184369.183 8  89754119.650 7  21918865.516                    21918877.387
 125037187.740 6  97431624.116 6  23793793.453                    23793803.980
 110859304.393 8  86384062.29346  21095819.164                    21095826.379
 126206647.809 6  98342960.99443  24016308.070                    24016318.281
 116339257.735 7  90654089.22244  22138609.883                    22138619.484
 106841593.309 8  83253283.660 8  20331270.844                    20331279.660
 109474656.542 8  85305008.124 7  20832338.258                    20832347.445
 11  8 15  1 57  0.0000000  0  8G30G25G29G02G04G10G05G12
 113171906.885 8  88185957.28045  21535899.945                    21535909.504
 115140511.987 8  89719945.227 7  21910519.914                    21910531.871
 124954451.374 6  97367154.248 6  23778048.938                    23778060.074
 110890044.189 8  86408015.37446  21101669.094                    21101676.219
 126287577.246 6  98406022.94543  24031707.961                    24031718.625
 116421336.488 7  90718046.67045  22154229.617                    22154238.332
 106822627.248 8  83238504.938 8  20327661.516                    20327670.645
 109497351.529 8  85322692.523 7  20836656.992                    20836666.090
 11  8 15  1 57 30.0000000  0  8G30G25G29G02G04G10G05G12
 113151766.573 8  88170263.54346  21532067.297                    21532076.781
 115097188.575 8  89686186.740 7  21902275.523                    21902287.695
 124871682.828 7  97302659.315 6  23762298.352                    23762308.891
 110920912.229 8  86432068.38946  21107542.953                    21107549.738
 126368458.019 6  98469046.96243  24047099.883                    24047109.477
 116503805.073 7  90782307.90645  22169922.453                    22169932.051
 106804237.925 8  83224175.613 8  20324162.328                    20324170.836
 109520614.943 8  85340819.859 7  20841083.891                    20841092.746
 11  8 15  1 58  0.0000000  0  8G30G25G29G02G04G10G05G12
 113132234.759 8  88155043.95346  21528350.719                    21528360.215
 115054400.512 8  89652845.411 7  21894133.500                    21894145.363
 124788883.100 7  97238140.064 6  23746542.820                    23746552.793
 110951908.268 8  86456221.13046  21113441.508                    21113448.520
 126449290.002 6  98532032.95743  24062481.648                    24062491.910
 116586660.657 7  90846870.67744  22185689.758                    22185699.223
 106786425.494 8  83210295.818 8  20320772.641                    20320781.324
 109544446.198 8  85359389.654 7  20845618.977                    20845628.121
 11  8 15  1 58 30.0000000  0  8G30G25G29G02G04G10G05G12
 113113312.114 8  88140299.04246  21524749.695                    21524758.938
 115012149.554 8  89619922.603 7  21886093.500                    21886105.480
 124706053.491 7  97173597.542 6  23730780.125                    23730790.949
 110983031.714 8  86480473.15746  21119363.992                    21119370.590
 126530072.856 6  98594980.69143  24077853.906                    24077864.223
 116669900.828 7  90911733.11345  22201530.188                    22201539.316
 106769190.304 8  83196865.824 8  20317492.563                    20317501.148
 109568844.137 8  85378401.039 7  20850261.781                    20850270.625
 11  8 15  1 59  0.0000000  0  8G30G25G29G02G04G10G05G12
 113094999.060 8  88126029.13545  21521264.617                    21521274.586
 114970437.101 8  89587419.399 7  21878155.781                    21878167.660
 124623195.117 7  97109032.607 6  23715012.930                    23715023.730
 111014282.007 8  86504824.02646  21125310.281                    21125317.359
 126610805.995 6  98657889.67243  24093216.266                    24093227.535
 116753522.825 7  90976893.10145  22217442.727                    22217451.813
 106752532.819 8  83183885.996 8  20314323.055                    20314331.770
 109593807.738 8  85397853.194 7  20855012.250                    20855021.031
 11  8 15  1 59 30.0000000  0  8G30G25G29G02G04G10G05G12
 113077295.787 8  88112234.38845  21517896.281                    21517905.555
 114929264.387 8  89555336.784 7  21870320.727                    21870332.633
 124540308.577 7  97044445.718 6  23699239.656                    23699250.895
 111045658.061 8  86529272.88946  21131281.180                    21131288.055
 126691488.919 6  98720759.55144  24108569.703                    24108581.535
 116837523.293 7  91042347.99544  22233427.297                    22233436.098
 106736452.919 8  83171356.224 8  20311262.930                    20311271.848
 109619336.371 8  85417745.629 7  20859870.148                    20859878.988
 11  8 15  2  0  0.0000000  0  8G30G25G29G02G04G10G05G12
 113060202.721 7  88098915.12446  21514643.094                    21514653.008
 114888632.809 8  89523675.826 7  21862588.797                    21862600.887
 124457395.132 7  96979837.875 6  23683462.320                    23683473.254
 111077159.021 8  86553819.09946  21137275.344                    21137282.461
 126772121.237 6  98783589.97143  24123913.102                    24123924.387
 116921899.763 7  91108095.88044  22249483.531                    22249492.566
 106720950.467 7  83159276.419 8  20308313.039                    20308321.723
 109645428.825 8  85438077.416 7  20864835.352                    20864844.176
 11  8 15  2  0 30.0000000  0  8G30G25G29G02G04G10G05G12
 113043720.427 7  88086071.78746  21511506.516                    21511516.633
 114848543.983 8  89492437.804 7  21854960.313                    21854972.176
 124374456.208 7  96915210.180 6  23667679.391                    23667689.859
 111108784.073 8  86578461.99346  21143293.438                    21143300.445
 126852702.703 6  98846380.77243  24139248.000                    24139258.559
 117006649.420 7  91174134.56444  22265611.227                    22265619.852
 106706025.947 8  83147646.949 8  20305472.789                    20305481.488
 109672083.912 8  85458847.614 7  20869907.680                    20869916.273
 11  8 15  2  1  0.0000000  0  8G30G25G29G02G04G10G05G12
 113027849.241 8  88073704.62846  21508486.703                    21508496.328
 114808999.358 8  89461623.834 7  21847435.336                    21847447.238
 124291493.030 7  96850563.566 6  23651891.828                    23651902.277
 111140533.078 8  86603201.47846  21149335.328                    21149342.355
 126933232.709 7  98909131.45843  24154572.703                    24154582.238
 117091769.654 7  91240462.00244  22281808.906                    22281818.461
 106691679.721 8  83136468.099 8  20302743.086                    20302751.473
 109699301.097 8  85480055.812 7  20875087.125                    20875095.820
 11  8 15  2  1 30.0000000  0  8G30G25G29G02G04G10G05G12
 113012589.161 7  88061813.66745  21505582.938                    21505592.664
 114769999.933 8  89431234.701 7  21840013.547                    21840025.727
 124208506.333 7  96785898.631 6  23636100.508                    23636110.938
 111172405.003 8  86628036.74546  21155399.867                    21155407.305
 127013710.709 7  98971841.63243  24169887.078                    24169896.441
 117177257.388 7  91307075.80444  22298076.180                    22298085.891
 106677911.409 8  83125739.566 8  20300123.047                    20300131.570
 109727078.656 8  85501700.656 7  20880372.898                    20880381.504
 11  8 15  2  2  0.0000000  0  8G30G25G29G02G04G10G05G12
 112997940.427 8  88050399.07445  21502795.109                    21502804.816
 114731547.065 8  89401271.444 7  21832696.242                    21832708.477
 124125497.350 7  96721216.357 6  23620304.156                    23620315.094
 111204399.026 8  86652967.15546  21161488.656                    21161495.863
 127094136.153 6  99034510.82642  24185190.695                    24185200.672
 117263109.773 7  91373973.76544  22314413.484                    22314423.086
 106664720.729 8  83115461.136 8  20297612.656                    20297621.289
 109755415.414 8  85523781.243 7  20885765.070                    20885773.750
 11  8 15  2  2 30.0000000  0  8G30G25G29G02G04G10G05G12
 112983903.018 8  88039460.83246  21500123.813                    21500133.348
 114693641.677 8  89371734.799 7  21825483.172                    21825494.992
 124042466.857 7  96656517.326 6  23604504.117                    23604514.355
 111236514.063 8  86677991.85846  21167599.930                    21167607.004
 127174508.501 6  99097138.64242  24200484.891                    24200494.961
 117349323.596 7  91441153.34745  22330820.016                    22330828.840
 106652107.637 8  83105632.774 8  20295212.461                    20295221.152
 109784310.320 8  85546296.758 7  20891263.758                    20891272.191
 11  8 15  2  3  0.0000000  0  8G30G25G29G02G04G10G05G12
 112970477.680 8  88028999.52946  21497569.063                    21497578.844
 114656285.723 8  89342626.287 7  21818374.617                    21818386.602
 123959416.735 7  96591802.994 6  23588699.750                    23588710.387
 111268750.351 7  86703111.04346  21173734.234                    21173741.207
 127254827.800 6  99159725.13642  24215770.016                    24215779.188
 117435896.424 7  91508612.70244  22347293.891                    22347302.836
 106640072.708 8  83096254.933 8  20292922.383                    20292930.934
 109813762.566 7  85569246.554 7  20896868.148                    20896876.750
 11  8 15  2  3 30.0000000  0  8G30G25G29G02G04G10G05G12
 112957664.197 8  88019015.00245  21495131.078                    21495140.828
 114619479.880 8  89313946.422 7  21811370.648                    21811382.434
 123876347.700 7  96527073.925 6  23572892.125                    23572903.277
 111301106.591 8  86728323.69746  21179891.766                    21179898.527
 127335093.154 6  99222269.64743  24231043.289                    24231053.926
 117522824.962 6  91576349.21544  22363835.984                    22363844.984
 106628615.474 8  83087327.244 8  20290741.984                    20290750.324
 109843770.578 8  85592629.422 7  20902578.586                    20902587.359
 11  8 15  2  4  0.0000000  0  8G30G25G29G02G04G10G05G12
 112945463.028 8  88009507.59545  21492809.172                    21492819.059
 114583225.826 8  89285696.526 7  21804471.594                    21804484.152
 123793261.306 7  96462331.317 6  23557081.406                    23557092.020
 111333582.520 7  86753629.61846  21186071.063                    21186078.137
 127415304.667 6  99284772.10342  24246307.406                    24246317.664
 117610106.833 7  91644361.04744  22380445.102                    22380454.816
 106617735.990 8  83078849.742 8  20288671.563                    20288680.184
 109874333.542 8  85616444.716 7  20908394.406                    20908403.395
 11  8 15  2  4 30.0000000  0  8G30G25G29G02G04G10G05G12
 112933873.853 8  88000477.06746  21490603.672                    21490613.871
 114547524.293 8  89257877.168 7  21797677.703                    21797689.668
 123710158.295 6  96397575.770 6  23541267.172                    23541278.488
 111366176.591 7  86779027.59446  21192273.805                    21192280.805
 127495461.561 6  99347232.06143  24261560.281                    24261571.098
 117697738.616 7  91712645.53944  22397120.961                    22397130.344
 106607433.746 8  83070822.049 8  20286711.250                    20286719.859
 109905449.463 8  85640690.885 7  20914315.750                    20914324.578
 11  8 15  2  5  0.0000000  0  8G30G25G29G02G04G10G05G12
 112922896.628 8  87991923.39046  21488514.945                    21488524.738
 114512376.328 8  89230489.158 7  21790989.125                    21791001.508
 123627039.854 7  96332808.181 6  23525450.609                    23525461.348
 111398888.026 8  86804517.02546  21198498.516                    21198505.871
 127575563.211 6  99409648.91843  24276803.273                    24276813.754
 117785717.596 6  91781200.57744  22413862.055                    22413872.219
 106597708.686 8  83063244.103 8  20284860.477                    20284869.266
 109937117.132 8  85665366.983 7  20920342.023                    20920350.824
 11  8 15  2  5 30.0000000  0  9G30G25G26G29G02G04G10G05G12
 112912531.974 8  87983847.04046  21486542.422                    21486552.156
 114477783.631 8  89203533.821 7  21784406.672                    21784418.367
 130522006.39616                  24837520.039
 123543907.442 7  96268029.700 6  23509630.555                    23509642.375
 111431717.288 8  86830098.27446  21204745.766                    21204752.832
 127655609.828 6  99472022.93743  24292035.898                    24292046.105
 117874041.231 7  91850024.16744  22430670.188                    22430679.430
 106588561.071 8  83056116.116 8  20283119.969                    20283128.379
 109969335.841 8  85690472.469 7  20926472.766                    20926481.711
 11  8 15  2  6  0.0000000  0  9G30G25G26G29G02G04G10G05G12
 112902780.210 8  87976248.26246  21484686.453                    21484696.289
 114443747.566 8  89177012.219 7  21777929.406                    21777941.844
 130429285.496 6 101633281.49853  24819875.523                    24819887.461
 123460762.633 7  96203241.591 6  23493808.555                    23493819.516
 111464663.967 8  86855771.01546  21211015.305                    21211022.199
 127735601.169 6  99534353.80543  24307257.273                    24307268.438
 117962706.954 7  91919114.33844  22447542.531                    22447551.699
 106579991.057 8  83049438.209 8  20281488.922                    20281497.688
 110002104.880 8  85716006.780 7  20932708.773                    20932717.359
 11  8 15  2  6 30.0000000  0  9G30G25G26G29G02G04G10G05G12
 112893641.381 8  87969127.10146  21482947.789                    21482957.660
 114410269.421 8  89150925.368 7  21771559.273                    21771571.164
 130336433.029 6 101560928.98643  24802205.781                    24802217.953
 123377606.934 7  96138444.958 6  23477984.773                    23477995.316
 111497727.152 8  86881534.53846  21217306.961                    21217313.781
 127815537.320 6  99596641.71243  24322468.852                    24322478.988
 118051712.043 7  91988468.95344  22464479.602                    22464488.984
 106571998.540 8  83043210.298 8  20279967.828                    20279976.543
 110035423.031 8  85741968.973 7  20939048.922                    20939058.031
 11  8 15  2  7  0.0000000  0  9G30G25G26G29G02G04G10G05G12
 112885114.620 8  87962482.87346  21481324.852                    21481334.656
 114377349.335 8  89125273.357 7  21765294.656                    21765306.590
 130243450.845 6 101488475.44243  24784512.188                    24784524.359
 123294440.717 7  96073640.153 6  23462158.672                    23462169.027
 111530905.483 8  86907387.78746  21223620.688                    21223627.656
 127895416.749 6  99658885.37843  24337669.609                    24337679.711
 118141052.685 7  92058085.03644  22481480.781                    22481490.344
 106564582.159 8  83037431.317 8  20278556.961                    20278565.648
 110069287.306 8  85768356.720 7  20945493.023                    20945502.055
 11  8 15  2  7 30.0000000  0  9G30G25G26G29G02G04G10G05G12
 112877199.806 8  87956315.48646  21479818.938                    21479828.492
 114344988.431 8  89100057.090 7  21759136.469                    21759148.441
 130150341.671 6 101415922.85643  24766794.320                    24766806.090
 123211265.519 6  96008828.349 6  23446331.195                    23446341.891
 111564198.241 7  86933330.19646  21229956.234                    21229963.000
 127975239.244 6  99721084.72643  24352859.641                    24352869.566
 118230726.138 7  92127960.43545  22498545.156                    22498554.684
 106557742.126 8  83032101.444 8  20277255.039                    20277263.902
 110103696.763 8  85795169.281 7  20952040.531                    20952049.695
 11  8 15  2  8  0.0000000  0  9G30G25G26G29G02G04G10G05G12
 112869897.161 7  87950625.11745  21478429.141                    21478438.727
 114313187.874 8  89075277.448 7  21753084.992                    21753096.918
 130057108.765 6 101343273.87243  24749052.672                    24749064.277
 123128082.180 7  95944010.206 6  23430501.859                    23430513.117
 111597604.989 7  86959361.42946  21236312.828                    21236320.129
 128055004.621 6  99783239.51743  24368038.688                    24368048.523
 118320729.441 7  92198092.87744  22515671.867                    22515682.215
 106551478.005 8  83027220.344 8  20276063.039                    20276071.305
 110138649.959 8  85822405.534 7  20958692.117                    20958701.000
 11  8 15  2  8 30.0000000  0  9G30G25G26G29G02G04G10G05G12
 112863206.417 8  87945411.55945  21477156.180                    21477165.492
 114281948.684 8  89050935.237 7  21747140.305                    21747152.637
 129963754.996 6 101270530.72242  24731287.336                    24731299.496
 123044892.225 7  95879186.926 6  23414671.195                    23414682.086
 111631125.325 8  86985481.18146  21242691.703                    21242698.406
 128134712.622 6  99845349.61143  24383206.117                    24383216.188
 118411059.882 7  92268480.21544  22532861.508                    22532871.219
 106545789.623 8  83022787.863 8  20274980.516                    20274989.105
 110174145.737 8  85850064.583 7  20965446.930                    20965455.703
 11  8 15  2  9  0.0000000  0  9G30G25G26G29G02G04G10G05G12
 112857127.434 8  87940674.70545  21475999.258                    21476009.418
 114251271.709 8  89027031.112 7  21741302.516                    21741314.582
 129870282.996 5 101197695.52043  24713500.313                    24713512.012
 122961696.821 7  95814359.376 6  23398839.406                    23398850.512
 111664758.120 7  87011688.55346  21249091.742                    21249098.566
 128214362.774 6  99907414.65743  24398363.148                    24398373.043
 118501714.268 7  92339119.98344  22550112.719                    22550122.281
 106540676.351 8  83018803.512 8  20274007.352                    20274016.395
 110210182.392 7  85878145.088 7  20972304.383                    20972313.266
 11  8 15  2  9 30.0000000  0  9G30G25G26G29G02G04G10G05G12
 112851660.009 7  87936414.38546  21474958.750                    21474968.391
 114221158.022 8  89003565.920 7  21735572.523                    21735584.199
 129776695.858 6 101124770.57743  24695691.078                    24695702.938
 122878497.339 7  95749528.660 6  23383007.219                    23383017.695
 111698503.084 8  87037983.32946  21255513.289                    21255519.789
 128293954.833 6  99969434.41843  24413508.484                    24413519.496
 118592689.937 7  92410010.10344  22567424.563                    22567434.027
 106536138.041 7  83015267.196 8  20273143.922                    20273152.422
 110246758.334 8  85906645.823 7  20979264.672                    20979272.883
 11  8 15  2 10  0.0000000  0  9G30G25G26G29G02G04G10G05G12
 112846804.018 7  87932630.51145  21474034.742                    21474044.234
 114191608.498 8  88980540.328 7  21729949.344                    21729961.059
 129682996.375 6 101051758.10643  24677861.555                    24677872.305
 122795295.284 7  95684695.936 6  23367174.750                    23367185.039
 111732359.532 8  87064364.96846  21261956.516                    21261962.711
 128373488.597 6 100031408.75243  24428643.734                    24428654.301
 118683983.977 7  92481148.32744  22584797.172                    22584806.375
 106532174.230 8  83012178.530 8  20272389.883                    20272398.383
 110283872.730 8  85935566.127 7  20986327.328                    20986335.969
 11  8 15  2 10 30.0000000  0  9G30G25G26G29G02G04G10G05G12
 112842559.280 8  87929322.94046  21473226.766                    21473236.805
 114162624.230 8  88957955.204 7  21724433.953                    21724445.555
 129589187.697 6 100978660.53343  24660010.227                    24660020.816
 122712091.913 7  95619862.174 6  23351341.438                    23351352.020
 111766327.121 8  87090833.20846  21268420.102                    21268426.895
 128452963.637 6 100093337.28943  24443767.219                    24443778.121
 118775593.609 7  92552532.43944  22602229.859                    22602239.766
 106528784.399 8  83009537.125 8  20271744.797                    20271753.082
 110321523.620 8  85964904.485 7  20993492.055                    20993500.902
 11  8 15  2 11  0.0000000  0  9G30G25G26G29G02G04G10G05G12
 112838925.388 8  87926491.35246  21472535.680                    21472545.289
 114134205.888 8  88935811.061 7  21719025.648                    21719037.574
 129495272.422 6 100905479.86843  24642137.570                    24642148.922
 122628888.225 7  95555028.167 6  23335508.555                    23335518.582
 111800405.001 8  87117387.40046  21274904.750                    21274911.762
 128532380.018 6 100155220.15043  24458879.516                    24458890.645
 118867515.473 7  92624159.85844  22619722.188                    22619731.328
 106525968.322 8  83007342.801 8  20271208.641                    20271217.457
 110359709.515 8  85994659.726 7  21000758.664                    21000767.211
 11  8 15  2 11 30.0000000  0  9G30G25G26G29G02G04G10G05G12
 112835902.194 7  87924135.62345  21471960.336                    21471969.813
 114106354.569 8  88914108.754 7  21713726.211                    21713737.645
 129401253.857 6 100832218.74643  24624246.875                    24624258.016
 122545685.940 6  95490195.296 6  23319674.984                    23319685.922
 111834592.873 7  87144027.29246  21281410.383                    21281417.238
 128611737.174 6 100217056.87843  24473981.094                    24473991.195
 118959747.281 7  92696028.77944  22637272.859                    22637282.395
 106523725.670 8  83005595.300 8  20270781.844                    20270790.688
 110398428.668 8  86024830.491 7  21008126.547                    21008135.195
 11  8 15  2 12  0.0000000  0  9G30G25G26G29G02G04G10G05G12
 112833489.153 7  87922255.34245  21471500.656                    21471510.559
 114079070.832 8  88892848.721 7  21708534.148                    21708545.707
 129307134.699 6 100758879.21243  24606336.992                    24606346.832
 122462486.448 6  95425364.580 6  23303842.422                    23303853.637
 111868889.690 8  87170752.08146  21287937.195                    21287943.742
 128691034.713 6 100278847.12743  24489070.398                    24489081.379
 119052285.604 7  92768136.56844  22654882.531                    22654892.031
 106522055.485 8  83004293.879 8  20270463.977                    20270472.891
 110437679.197 8  86055415.311 7  21015595.563                    21015604.461
 11  8 15  2 12 30.0000000  0  9G30G25G26G29G02G04G10G05G12
 112831686.204 7  87920850.46645  21471157.633                    21471167.559
 114052355.717 8  88872031.779 7  21703450.164                    21703462.238
 129212918.126 6 100685463.72943  24588408.078                    24588419.051
 122379290.938 6  95360536.955 6  23288011.406                    23288021.598
 111903295.472 7  87197561.78446  21294483.961                    21294490.727
 128770272.696 6 100340590.94242  24504149.148                    24504160.684
 119145127.904 6  92840481.20044  22672549.938                    22672558.688
 106520957.768 8  83003438.537 8  20270255.406                    20270263.871
 110477460.135 8  86086413.444 7  21023165.852                    21023174.645
 11  8 15  2 13  0.0000000  0  9G30G25G26G29G02G04G10G05G12
 112830492.979 7  87919920.69745  21470930.883                    21470940.609
 114026210.114 8  88851658.610 7  21698475.086                    21698486.938
 129118607.061 6 100611974.64343  24570461.508                    24570472.156
 122296100.752 7  95295713.474 6  23272180.406                    23272191.113
 111937809.346 8  87224455.71646  21301051.680                    21301058.664
 128849450.782 6 100402288.09643  24519217.141                    24519227.848
 119238271.453 6  92913060.57344  22690274.570                    22690283.699
 106520431.783 8  83003028.701 8  20270155.141                    20270163.402
 110517769.830 8  86117823.592 7  21030836.336                    21030844.934
 11  8 15  2 13 30.0000000  0  9G30G25G26G29G02G04G10G05G12
 112829908.974 8  87919465.64446  21470819.516                    21470829.355
 114000634.668 8  88831729.710 7  21693608.156                    21693619.793
 129024204.378 6 100538414.12343  24552496.695                    24552507.766
 122212917.341 7  95230895.263 6  23256351.508                    23256361.605
 111972430.867 8  87251433.52646  21307640.031                    21307646.738
 128928568.694 6 100463938.36442  24534272.047                    24534282.445
 119331713.254 7  92985872.35344  22708055.859                    22708064.988
 106520476.923 8  83003063.896 8  20270163.766                    20270172.145
 110558606.431 8  86149644.319 7  21038607.531                    21038616.129
 11  8 15  2 14  0.0000000  0  9G30G25G26G29G02G04G10G05G12
 112829933.760 8  87919484.97345  21470824.297                    21470834.035
 113975630.126 8  88812245.675 7  21688849.617                    21688861.684
 128929713.119 6 100464784.62043  24534515.547                    24534526.879
 122129742.224 7  95166083.528 6  23240523.188                    23240533.730
 112007159.493 8  87278494.79646  21314248.555                    21314255.535
 129007626.389 6 100525541.73543  24549316.047                    24549325.973
 119425450.333 6  93058914.22444  22725893.773                    22725903.105
 106521092.685 8  83003543.734 8  20270280.883                    20270289.301
 110599968.495 8  86181874.499 7  21046478.516                    21046486.906
 11  8 15  2 14 30.0000000  0  9G30G25G26G29G02G04G10G05G12
 112830567.045 7  87919978.45545  21470945.023                    21470954.688
 113951197.301 8  88793207.130 7  21684200.391                    21684212.598
 128835136.608 6 100391088.65743  24516518.563                    24516528.977
 122046576.613 7  95101279.198 6  23224697.586                    23224708.367
 112041994.690 8  87305639.11346  21320877.797                    21320884.406
 129086623.163 6 100587097.62443  24564348.883                    24564358.230
 119519479.860 6  93132183.96144  22743786.422                    22743796.426
 106522278.473 8  83004467.741 8  20270506.375                    20270514.859
 110641854.010 8  86214512.565 7  21054448.969                    21054457.352
 11  8 15  2 15  0.0000000  0  9G30G25G26G29G02G04G10G05G12
 112831808.109 7  87920945.53045  21471181.055                    21471190.328
 113927336.733 8  88774614.506 7  21679659.531                    21679671.848
 128740477.571 6 100317328.47643  24498504.461                    24498516.063
 121963422.151 7  95036483.573 6  23208873.906                    23208884.445
 112076935.757 7  87332865.91646  21327526.508                    21327533.582
 129165559.083 6 100648606.07343  24579370.289                    24579380.410
 119613798.779 6  93205679.19244  22761734.719                    22761745.266
 106524033.602 8  83005835.399 8  20270840.367                    20270849.242
 110684261.287 8  86247557.191 7  21062518.617                    21062527.402
 11  8 15  2 15 30.0000000  0  9G30G25G26G29G02G04G10G05G12
 112833656.467 8  87922385.82145  21471532.477                    21471542.430
 113904049.136 8  88756468.350 7  21675228.344                    21675240.633
 128645739.155 6 100243506.47243  24480476.422                    24480488.281
 121880280.018 7  94971697.566 6  23193052.383                    23193063.340
 112111982.266 7  87360174.88546  21334196.156                    21334202.996
 129244433.865 6 100710066.88943  24594379.883                    24594389.750
 119708403.935 6  93279397.48044  22779737.492                    22779747.328
 106526357.478 8  83007646.234 8  20271282.602                    20271291.191
 110727188.631 8  86281007.066 7  21070687.391                    21070696.297
 11  8 15  2 16  0.0000000  0  9G30G25G26G29G02G04G10G05G12
 112836111.751 7  87924299.03346  21472000.055                    21472009.707
 113881335.315 8  88738769.295 7  21670906.117                    21670917.996
 128550924.560 6 100169625.06943  24462433.711                    24462444.746
 121797151.635 7  94906922.253 6  23177233.602                    23177244.547
 112147134.347 7  87387566.11546  21340885.313                    21340892.070
 129323247.649 6 100771480.21443  24609377.219                    24609387.781
 119803292.880 6  93353336.88244  22797794.391                    22797804.527
 106529249.440 8  83009899.733 8  20271833.188                    20271841.535
 110770634.563 8  86314861.036 7  21078955.180                    21078964.180
 11  8 15  2 16 30.0000000  0  9G30G25G26G29G02G04G10G05G12
 112839173.200 7  87926684.59346  21472582.492                    21472592.086
 113859195.650 8  88721517.625 7  21666693.133                    21666704.910
 128456036.626 6 100095686.53542  24444377.805                    24444388.031
 121714038.533 6  94842158.841 6  23161417.977                    23161427.965
 112182390.631 7  87415038.54446  21347594.258                    21347601.039
 129401999.816 6 100832845.47742  24624362.602                    24624374.367
 119898462.382 6  93427494.90544  22815905.164                    22815914.766
 106532708.789 8  83012595.342 8  20272491.359                    20272500.070
 110814596.951 8  86349117.435 7  21087320.711                    21087329.742
 11  8 15  2 17  0.0000000  0  9G30G25G26G29G02G04G10G05G12
 112842840.213 7  87929542.01345  21473280.234                    21473289.617
 113837630.733 8  88704713.816 7  21662589.398                    21662601.047
 128361078.215 6 100021693.08543  24426307.984                    24426318.273
 121630942.242 6  94777408.525 6  23145604.398                    23145615.176
 112217750.729 7  87442591.85946  21354323.172                    21354330.125
 129480690.219 6 100894162.62443  24639337.398                    24639349.250
 119993909.752 6  93501869.46444  22834068.086                    22834078.031
 106536734.587 8  83015732.352 8  20273257.508                    20273265.465
 110859073.799 8  86383774.721 7  21095784.484                    21095793.418
 11  8 15  2 17 30.0000000  0  9G30G25G26G29G02G04G10G05G12
 112847112.219 7  87932870.85545  21474093.188                    21474102.906
 113816641.208 8  88688358.368 7  21658595.125                    21658606.703
 128266052.591 6  99947647.25943  24408224.789                    24408236.367
 121547864.245 7  94712672.475 6  23129795.359                    23129805.688
 112253214.523 7  87470225.98546  21361071.461                    21361078.777
 129559318.716 6 100955431.51743  24654300.133                    24654311.031
 120089632.119 7  93576458.31544  22852283.695                    22852293.754
 106541326.138 8  83019310.198 8  20274131.125                    20274139.801
 110904063.313 8  86418831.467 7  21104345.555                    21104355.008
 11  8 15  2 18  0.0000000  0  9G30G25G26G29G02G04G10G05G12
 112851988.595 8  87936670.64546  21475020.891                    21475030.469
 113796227.662 8  88672451.728 7  21654710.656                    21654722.059
 128170963.007 6  99873551.56443  24390129.414                    24390140.270
 121464805.803 7  94647951.675 6  23113990.078                    23114000.113
 112288781.328 8  87497940.37546  21367839.727                    21367846.809
 129637885.196 6 101016652.13843  24669251.617                    24669262.020
 120185626.735 7  93651259.28244  22870550.734                    22870560.559
 106546482.867 8  83023328.445 8  20275112.164                    20275120.582
 110949563.988 8  86454286.542 7  21113004.008                    21113013.258
 11  8 15  2 18 30.0000000  0  8G30G25G26G29G02G10G05G12
 112857468.710 8  87940940.86545  21476063.813                    21476073.617
 113776390.630 8  88656994.317 7  21650935.695                    21650947.547
 128075812.415 7  99799408.32342  24372022.852                    24372033.773
 121381768.733 7  94583247.515 6  23098188.367                    23098198.797
 112324450.533 8  87525734.56046  21374627.391                    21374634.250
 120281890.568 7  93726270.08644  22888868.352                    22888878.387
 106552203.983 8  83027786.480 8  20276200.828                    20276209.980
 110995573.898 8  86490138.421 7  21121759.750                    21121768.402
 11  8 15  2 19  0.0000000  0  8G30G25G26G29G02G10G05G12
 112863551.763 8  87945680.91545  21477221.492                    21477231.078
 113757130.577 8  88641986.505 7  21647270.594                    21647282.203
 127980603.978 7  99725220.01442  24353905.125                    24353915.449
 121298754.241 7  94518560.988 7  23082391.711                    23082402.520
 112360221.891 8  87553608.34146  21381434.180                    21381440.938
 120378420.970 7  93801488.59144  22907238.078                    22907247.883
 106558488.578 8  83032683.583 8  20277396.930                    20277405.332
 111042091.157 8  86526385.641 7  21130611.625                    21130620.043
 11  8 15  2 19 30.0000000  0  8G30G25G26G29G02G10G05G12
 112870236.867 7  87950890.09046  21478493.633                    21478503.242
 113738447.835 8  88627428.535 7  21643715.141                    21643727.227
 127885340.779 7  99650988.95743  24335777.891                    24335787.000
 121215763.625 7  94453893.036 6  23066598.789                    23066609.152
 112396094.892 8  87581561.33246  21388260.516                    21388267.336
 120475214.606 7  93876912.19944  22925656.711                    22925667.020
 106565335.294 8  83038018.701 8  20278699.828                    20278708.375
 111089113.545 8  86563026.471 7  21139559.453                    21139568.113
 11  8 15  2 20  0.0000000  0  8G30G25G26G29G02G10G05G12
 112877523.391 7  87956567.90846  21479880.016                    21479889.832
 113720342.834 8  88613320.763 7  21640269.977                    21640281.238
 127790025.852 7  99576717.69743  24317639.867                    24317649.039
 121132798.673 7  94389245.118 6  23050811.320                    23050821.684
 112432068.956 7  87609593.06846  21395105.961                    21395113.414
 120572268.616 7  93952538.70344  22944125.641                    22944136.605
 106572743.943 8  83043791.694 8  20280109.695                    20280118.266
 111136639.226 8  86600059.475 7  21148603.297                    21148612.055
 11  8 15  2 20 30.0000000  0  8G30G25G26G29G02G10G05G12
 112885410.407 7  87962713.64645  21481380.797                    21481390.574
 113702816.083 8  88599663.571 7  21636934.688                    21636946.434
 127694662.456 7  99502408.60343  24299493.016                    24299502.375
 121049860.799 7  94324618.277 7  23035028.688                    23035038.648
 112468143.714 7  87637703.27846  21401971.281                    21401978.199
 120669580.398 7  94028366.03844  22962643.906                    22962653.953
 106580713.335 8  83050001.634 8  20281625.984                    20281634.324
 111184666.401 8  86637483.252 7  21157742.523                    21157751.285
 11  8 15  2 21  0.0000000  0  8G30G25G26G29G02G10G05G12
 112893897.388 7  87969326.87045  21482996.320                    21483006.000
 113685868.055 8  88586457.328 7  21633709.547                    21633721.094
 127599253.848 6  99428064.31443  24281336.742                    24281346.805
 120966951.894 7  94260014.017 7  23019251.648                    23019261.586
 112504318.659 8  87665891.55046  21408854.648                    21408862.176
 120767146.765 7  94104391.77444  22981210.203                    22981220.012
 106589242.734 8  83056647.940 8  20283249.008                    20283257.719
 111233193.374 8  86675296.479 7  21166976.883                    21166985.793
 11  8 15  2 21 30.0000000  0  8G30G25G26G29G02G10G05G12
 112902983.353 7  87976406.84645  21484725.250                    21484734.891
 113669499.104 8  88573702.314 7  21630594.906                    21630606.422
 127503802.906 6  99353687.16043  24263172.359                    24263183.816
 120884073.175 7  94195433.269 7  23003480.188                    23003490.473
 112540593.639 8  87694157.77046  21415758.297                    21415764.820
 120864964.999 6  94180613.76044  22999824.211                    22999833.906
 106598330.728 8  83063729.517 8  20284978.563                    20284986.754
 111282217.922 8  86713497.428 7  21176306.094                    21176314.945
 11  8 15  2 22  0.0000000  0  8G30G25G26G29G02G10G05G12
 112912667.858 8  87983953.20945  21486567.961                    21486577.918
 113653709.861 8  88561399.022 7  21627590.188                    21627601.895
 127408313.266 6  99279279.81643  24245001.258                    24245013.020
 120801226.554 7  94130877.542 7  22987714.484                    22987724.852
 112576968.428 8  87722501.76846  21422680.094                    21422686.492
 120963032.549 6  94257030.00244  23018485.883                    23018495.824
 106607977.472 8  83071246.475 8  20286814.180                    20286822.691
 111331738.170 8  86752084.635 7  21185728.867                    21185738.020
 11  8 15  2 22 30.0000000  0  8G30G25G26G29G02G10G05G12
 112922949.747 7  87991965.07945  21488524.477                    21488534.152
 113638500.599 8  88549547.656 7  21624696.125                    21624707.938
 127312788.153 6  99204844.78743  24226823.438                    24226834.453
 120718413.581 7  94066348.035 6  22971955.289                    22971966.234
 112613442.637 8  87750923.23346  21429620.695                    21429627.598
 121061346.614 6  94333638.34344  23037193.914                    23037203.805
 106618181.861 8  83079197.965 8  20288755.875                    20288764.359
 111381752.199 8  86791056.604 7  21195246.773                    21195255.797
 11  8 15  2 23  0.0000000  0  8G30G25G26G29G02G10G05G12
 112933827.602 7  88000441.32645  21490594.852                    21490604.461
 113623871.058 8  88538148.022 7  21621912.047                    21621923.902
 127217230.120 6  99130384.08643  24208638.344                    24208650.254
 120635635.381 7  94001845.633 6  22956203.711                    22956214.090
 112650015.005 7  87779421.19446  21436580.211                    21436586.676
 121159903.977 6  94410436.26144  23055949.344                    23055959.109
 106628942.000 8  83087582.510 8  20290803.375                    20290811.992
 111432257.321 8  86830411.241 7  21204857.805                    21204866.395
 11  8 15  2 23 30.0000000  0  8G30G25G26G29G02G10G05G12
 112945300.637 8  88009381.35945  21492777.891                    21492787.531
 113609821.602 8  88527200.400 7  21619238.617                    21619250.090
 127121642.565 6  99055900.39243  24190449.406                    24190460.828
 120552893.551 7  93937371.556 6  22940458.094                    22940468.676
 112686685.464 8  87807995.59946  21443558.180                    21443564.980
 121258701.610 6  94487421.38544  23074750.242                    23074759.375
 106640256.908 8  83096399.342 8  20292956.867                    20292965.043
 111483251.550 8  86870147.008 7  21214561.586                    21214570.328
 11  8 15  2 24  0.0000000  0  8G30G25G26G29G02G10G05G12
 112957368.186 8  88018784.64645  21495074.383                    21495084.113
 113596352.755 8  88516705.213 7  21616675.602                    21616686.977
 127026028.961 6  98981396.38843  24172255.523                    24172265.734
 120470189.895 7  93872927.213 6  22924719.813                    22924730.133
 112723454.288 8  87836646.64346  21450554.922                    21450561.922
 121357736.854 6  94564591.69444  23093595.336                    23093605.102
 106652126.131 8  83105648.104 8  20295215.172                    20295223.609
 111534733.271 8  86910262.635 7  21224357.836                    21224367.027
 11  8 15  2 24 30.0000000  0  8G30G25G26G29G02G10G05G12
 112970028.854 8  88028650.10545  21497483.148                    21497493.371
 113583464.447 8  88506662.382 7  21614222.938                    21614235.004
 126930392.374 6  98906874.45843  24154055.523                    24154066.930
 120387525.995 7  93808513.864 6  22908990.156                    22909000.473
 112760320.241 8  87865373.37446  21457570.227                    21457577.410
 121457006.842 6  94641944.89244  23112486.586                    23112495.586
 106664548.003 8  83115327.501 8  20297579.164                    20297587.691
 111586700.145 8  86950756.315 7  21234247.023                    21234255.719
 11  8 15  2 25  0.0000000  0  8G30G25G26G29G02G10G05G12
 112983281.798 8  88038977.07445  21500005.727                    21500015.211
 113571157.005 8  88497072.183 7  21611880.695                    21611892.176
 126834735.823 6  98832336.92644  24135852.578                    24135863.836
 120304903.439 7  93744132.713 6  22893266.734                    22893277.273
 112797283.152 8  87894175.66546  21464603.938                    21464611.070
 121556508.778 6  94719478.85144  23131420.883                    23131430.297
 106677521.782 8  83125436.949 8  20300047.883                    20300056.238
 111639149.934 8  86991626.270 7  21244228.016                    21244236.973
 11  8 15  2 25 30.0000000  0  8G30G25G26G29G02G10G05G12
 112997125.563 8  88049764.42745  21502639.813                    21502649.266
 113559430.193 8  88487934.428 7  21609649.453                    21609660.875
 126739062.559 7  98757786.40343  24117646.867                    24117657.055
 120222323.633 7  93679784.896 6  22877552.945                    22877563.184
 112834342.584 8  87923053.15646  21471656.023                    21471663.598
 121656239.479 7  94797191.06244  23150399.055                    23150408.547
 106691045.887 8  83135975.228 8  20302621.859                    20302629.711
 111692080.193 8  87032870.628 7  21254300.117                    21254309.129
 11  8 15  2 26  0.0000000  0  8G30G25G26G29G02G10G05G12
 113011559.592 8  88061011.73145  21505386.539                    21505396.332
 113548284.654 8  88479249.611 7  21607528.445                    21607539.871
 126643376.124 7  98683225.60643  24099439.016                    24099449.043
 120139788.381 7  93615471.794 6  22861846.609                    22861857.074
 112871498.390 8  87952005.73546  21478726.930                    21478734.078
 121756196.499 6  94875079.61744  23169420.281                    23169430.008
 106705119.423 8  83146941.637 8  20305299.516                    20305307.926
 111745489.450 8  87074488.228 7  21264463.625                    21264473.074
 11  8 15  2 26 30.0000000  0  8G30G25G26G29G02G10G05G12
 113026582.453 8  88072717.86145  21508245.250                    21508255.070
 113537720.255 8  88471017.625 7  21605517.961                    21605529.770
 126547679.693 7  98608657.02543  24081228.102                    24081238.195
 120057299.321 7  93551194.679 6  22846149.484                    22846159.652
 112908750.213 8  87981033.13746  21485816.094                    21485822.563
 121856376.687 6  94953142.05144  23188483.516                    23188494.105
 106719741.606 8  83158335.564 8  20308082.070                    20308090.848
 111799374.996 8  87116476.968 7  21274717.828                    21274726.598
 11  8 15  2 27  0.0000000  0  8G30G25G26G29G02G10G05G12
 113042193.328 8  88084882.18645  21511215.844                    21511225.305
 113527737.315 8  88463238.719 7  21603617.961                    21603629.715
 126451976.696 6  98534083.33143  24063016.070                    24063026.742
 119974858.178 7  93486954.884 6  22830461.641                    22830470.926
 112946097.959 8  88010135.28546  21492922.727                    21492929.801
 121956777.493 6  95031376.40244  23207589.414                    23207599.340
 106734911.164 8  83170156.014 8  20310968.570                    20310976.785
 111853735.405 8  87158835.731 7  21285062.109                    21285070.934
 11  8 15  2 27 30.0000000  0  8G30G25G26G29G02G10G05G12
 113058390.854 8  88097503.64345  21514298.313                    21514308.227
 113518335.789 8  88455912.874 7  21601829.461                    21601840.977
 126356270.307 6  98459506.95343  24044804.250                    24044813.816
 119892466.546 7  93422753.687 6  22814782.625                    22814792.871
 112983540.958 8  88039311.65846  21500047.445                    21500054.703
 122057396.072 6  95109780.46344  23226736.211                    23226746.359
 106750626.914 8  83182402.067 8  20313959.117                    20313967.500
 111908568.099 8  87201562.506 7  21295496.461                    21295505.176
 11  8 15  2 28  0.0000000  0  8G30G25G26G29G02G10G05G12
 113075173.847 8  88110581.30645  21517492.023                    21517501.781
 113509515.595 8  88449040.009 7  21600150.781                    21600162.359
 126260563.584 6  98384930.36043  24026590.930                    24026601.488
 119810126.186 7  93358592.438 6  22799113.602                    22799123.922
 113021078.722 8  88068561.86646  21507190.922                    21507198.086
 122158229.437 7  95188351.90744  23245924.172                    23245934.328
 106766887.629 8  83195072.772 8  20317053.703                    20317062.359
 111963870.393 8  87244655.198 7  21306020.281                    21306028.941
 11  8 15  2 28 30.0000000  0  8G30G25G26G29G02G10G05G12
 113092540.854 8  88124114.04645  21520796.656                    21520806.410
 113501276.561 8  88442619.999 7  21598583.219                    21598594.539
 126164859.863 6  98310356.01343  24008379.844                    24008389.418
 119727838.550 7  93294472.268 7  22783455.188                    22783465.348
 113058711.002 8  88097885.72746  21514352.117                    21514359.012
 122259274.696 7  95267088.43344  23265152.352                    23265163.043
 106783691.431 8  83208166.661 8  20320251.117                    20320260.090
 112019640.228 7  87288112.217 7  21316632.750                    21316641.863
 11  8 15  2 29  0.0000000  0  8G30G25G26G29G02G10G05G12
 113110490.628 8  88138100.89245  21524212.414                    21524222.008
 113493618.714 8  88436652.852 7  21597125.531                    21597137.422
 126069162.638 6  98235786.79043  23990168.367                    23990178.859
 119645605.383 7  93230394.547 7  22767806.844                    22767816.453
 113096437.303 8  88127282.84446  21521531.031                    21521538.488
 122360528.854 7  95345987.77943  23284421.219                    23284430.539
 106801037.062 8  83221682.758 8  20323552.156                    20323560.574
 112075875.341 8  87331931.784 7  21327333.930                    21327342.961
 11  8 15  2 29 30.0000000  0  8G30G25G26G29G02G10G05G12
 113129022.112 7  88152541.02645  21527738.969                    21527748.406
 113486542.191 8  88431138.688 7  21595779.203                    21595790.531
 125973475.156 6  98161225.21143  23971959.641                    23971970.180
 119563428.452 7  93166360.654 7  22752169.359                    22752178.836
 113134257.611 8  88156753.22246  21528728.172                    21528735.168
 122461989.638 7  95425048.10744  23303728.547                    23303738.543
 106818924.040 8  83235620.678 8  20326955.570                    20326964.219
 112132573.797 8  87376112.408 7  21338123.289                    21338132.133
 11  8 15  2 30  0.0000000  0  8G30G25G26G29G02G10G05G12
 113148133.836 7  88167433.29245  21531375.695                    21531385.449
 113480046.832 8  88426077.385 7  21594542.930                    21594554.453
 125877800.765 6  98086673.78743  23953753.430                    23953764.578
 119481309.663 7  93102372.061 7  22736542.094                    22736551.996
 113172171.609 8  88186296.59946  21535943.227                    21535950.254
 122563654.061 7  95504267.11544  23323074.258                    23323083.953
 106837350.885 8  83249979.278 8  20330462.430                    20330471.113
 112189733.014 7  87420652.053 7  21349000.117                    21349008.926
 11  8 15  2 30 30.0000000  0  8G30G25G26G29G02G10G05G12
 113167824.547 7  88182776.71845  21535122.656                    21535132.328
 113474132.427 8  88421468.778 7  21593417.789                    21593428.723
 125782142.705 6  98012135.13243  23935550.273                    23935561.680
 119399250.482 7  93038429.937 7  22720926.336                    22720936.609
 113210179.029 8  88215912.77646  21543175.242                    21543182.727
 122665519.313 7  95583642.61243  23342458.188                    23342468.293
 106856316.007 8  83264757.309 8  20334071.141                    20334079.273
 112247350.787 8  87465549.018 7  21359964.750                    21359973.508
 11  8 15  2 31  0.0000000  0  8G30G25G26G29G02G10G05G12
 113188092.827 8  88198570.21145  21538979.508                    21538989.453
 113468798.835 8  88417312.749 7  21592402.531                    21592414.250
 125686504.330 6  97937611.82843  23917350.922                    23917361.941
 119317252.445 7  92974535.438 7  22705322.305                    22705332.801
 113248279.483 8  88245601.45746  21550425.906                    21550432.797
 122767582.410 7  95663172.26043  23361881.031                    23361890.664
 106875818.168 8  83279953.815 8  20337782.461                    20337791.074
 112305424.418 8  87510801.191 7  21371015.359                    21371024.172
 11  8 15  2 31 30.0000000  0  8G30G25G26G29G02G10G05G12
 113208937.314 8  88214812.69345  21542945.922                    21542955.660
 113464045.985 8  88413609.246 7  21591498.344                    21591509.594
 125590889.079 6  97863106.55544  23899155.766                    23899166.684
 119235317.555 7  92910690.152 7  22689731.102                    22689741.023
 113286472.643 8  88275362.36945  21557693.656                    21557700.855
 122869840.469 7  95742853.81643  23381339.875                    23381349.102
 106895856.038 8  83295567.755 8  20341595.438                    20341603.605
 112363951.790 7  87556406.938 7  21382153.234                    21382161.969
 11  8 15  2 32  0.0000000  0  8G30G25G26G29G02G10G05G12
 113230357.063 8  88231503.42446  21547022.273                    21547031.785
 113459874.082 8  88410358.430 7  21590704.195                    21590715.934
 125495300.599 6  97788622.11044  23880965.891                    23880976.672
 119153447.883 7  92846895.692 7  22674151.398                    22674161.094
 113324758.894 8  88305195.81845  21564979.281                    21564986.598
 122972291.364 7  95822685.66643  23400836.063                    23400844.664
 106916428.681 8  83311598.405 8  20345510.078                    20345518.789
 112422931.108 7  87602364.855 7  21393376.688                    21393385.633
 11  8 15  2 32 30.0000000  0  8G30G25G26G29G02G10G05G12
 113252349.730 7  88248640.59545  21551207.266                    21551216.738
 113456282.150 8  88407559.547 7  21590020.625                    21590032.563
 125399741.785 6  97714160.79744  23862782.156                    23862793.203
 119071644.647 7  92783152.996 7  22658584.859                    22658594.758
 113363136.886 8  88335100.75046  21572282.633                    21572289.047
 123074931.442 7  95902664.91443  23420367.859                    23420376.727
 106937533.608 8  83328043.822 8  20349526.695                    20349534.500
 112482359.306 7  87648672.549 7  21404685.070                    21404694.375
 11  8 15  2 33  0.0000000  0  8G30G25G26G29G02G10G05G12
 113274914.135 7  88266223.26745  21555501.000                    21555511.027
 113453270.082 8  88405212.504 7  21589447.578                    21589459.273
 125304216.062 6  97639725.28244  23844604.211                    23844614.668
 118989909.714 7  92719463.527 7  22643031.031                    22643041.410
 113401606.587 8  88365077.14546  21579602.875                    21579610.016
 123177758.196 7  95982789.64943  23439934.391                    23439943.707
 106959169.723 8  83344903.152 8  20353643.711                    20353651.898
 112542233.595 7  87695327.839 7  21416078.820                    21416087.688
 11  8 15  2 33 30.0000000  0  8G30G25G26G29G02G10G05G12
 113298049.221 8  88284250.61745  21559903.445                    21559913.473
 113450838.052 8  88403317.444 7  21588984.469                    21588996.121
 125208726.948 6  97565318.27543  23826432.555                    23826443.645
 118908245.069 7  92655828.825 7  22627491.094                    22627501.285
 113440168.418 8  88395125.30946  21586941.414                    21586947.406
 123280769.375 7  96063058.07543  23459537.164                    23459546.551
 106981336.175 8  83362175.720 8  20357861.914                    20357869.988
 112602552.465 8  87742329.550 7  21427557.320                    21427566.598
 11  8 15  2 34  0.0000000  0  8G30G25G26G29G02G10G05G12
 113321753.245 7  88302721.30345  21564414.242                    21564424.004
 113448985.605 8  88401874.013 7  21588632.070                    21588644.012
 125113277.990 7  97490942.51944  23808269.195                    23808279.730
 118826652.328 7  92592250.151 7  22611964.406                    22611974.664
 113478821.720 8  88425244.76446  21594296.859                    21594303.574
 123383961.611 7  96143467.61543  23479173.898                    23479183.172
 107004031.134 8  83379860.113 8  20362180.547                    20362188.781
 112663313.248 7  87789675.615 7  21439119.531                    21439128.684
 11  8 15  2 34 30.0000000  0  8G30G25G26G29G02G10G05G12
 113346024.733 7  88321634.16245  21569032.750                    21569042.969
 113447712.454 8  88400881.972 7  21588389.773                    21588401.461
 125017872.573 7  97416600.68843  23790114.469                    23790124.637
 118745133.342 7  92528728.941 7  22596451.719                    22596461.637
 113517566.556 8  88455435.54046  21601669.625                    21601676.613
 123487332.444 6  96224016.30443  23498844.844                    23498854.180
 107027253.310 7  83397955.334 8  20366599.375                    20366607.668
 112724513.575 7  87837364.185 7  21450765.844                    21450774.516
 11  8 15  2 35  0.0000000  0  8G30G25G26G29G02G10G05G12
 113370862.038 8  88340987.90946  21573759.203                    21573768.785
 113447018.110 8  88400340.953 7  21588257.547                    21588269.188
 124922513.935 7  97342295.33344  23771968.430                    23771978.867
 118663689.890 7  92465266.594 7  22580953.320                    22580963.418
 113556402.374 8  88485697.23646  21609059.633                    21609066.867
 123590879.237 6  96304702.13143  23518549.266                    23518558.520
 107051001.064 8  83416460.086 8  20371118.320                    20371126.871
 112786150.913 7  87885393.278 7  21462494.961                    21462503.629
 11  8 15  2 35 30.0000000  0  8G30G25G26G29G02G10G05G12
 113396263.628 8  88360781.36145  21578593.195                    21578602.629
 113446902.306 8  88400250.746 7  21588235.383                    21588247.051
 124827205.443 7  97268029.04044  23753832.125                    23753841.383
 118582323.983 7  92401864.655 7  22565470.508                    22565480.230
 113595328.948 8  88516029.63646  21616467.414                    21616474.152
 123694599.086 7  96385522.78943  23538286.195                    23538296.094
 107075273.017 8  83435373.310 8  20375737.141                    20375745.691
 112848222.708 7  87933760.911 7  21474306.570                    21474315.691
 11  8 15  2 36  0.0000000  0  8G30G25G26G29G02G10G05G12
 113422227.504 8  88381012.95745  21583533.695                    21583543.527
 113447364.259 8  88400610.738 7  21588323.484                    21588334.855
 124731950.609 7  97193804.56544  23735705.227                    23735714.957
 118501037.099 7  92338524.311 7  22550001.398                    22550011.141
 113634345.859 8  88546432.44046  21623892.016                    21623898.867
 123798488.954 7  96466475.95743  23558055.555                    23558066.035
 107100067.092 8  83454693.383 8  20380455.258                    20380463.723
 112910726.229 7  87982464.950 7  21486200.570                    21486209.766
 11  8 15  2 36 30.0000000  0  9G30G25G15G26G29G02G10G05G12
 113448752.505 8  88401681.79445  21588581.203                    21588590.938
 113448403.937 8  88401420.908 7  21588521.484                    21588532.996
 129475775.98216 100890264.60815  24638428.313
 124636752.919 6  97119624.61544  23717588.945                    23717599.039
 118419831.341 7  92275247.167 7  22534548.797                    22534558.297
 113673453.181 8  88576905.67846  21631333.750                    21631340.770
 123902546.472 7  96547559.75743  23577857.398                    23577867.207
 107125382.347 8  83474419.563 8  20385272.516                    20385281.117
 112973659.473 7  88031503.836 7  21498176.859                    21498185.531
 11  8 15  2 37  0.0000000  0  9G30G25G15G26G29G02G10G05G12
 113475837.024 8  88422786.61145  21593735.281                    21593745.090
 113450020.978 8  88402680.959 7  21588829.156                    21588840.355
 129382309.807 6 100817433.891 5  24620642.070                    24620652.887
 124541616.095 6  97045492.10443  23699485.406                    23699495.645
 118338708.666 7  92212034.770 7  22519111.352                    22519120.727
 113712650.979 8  88607449.40146  21638793.063                    21638799.629
 124006768.937 7  96628772.07343  23597690.906                    23597699.785
 107151217.082 8  83494550.541 8  20390188.633                    20390197.250
 113037020.196 7  88080875.833 7  21510234.141                    21510242.785
 11  8 15  2 37 30.0000000  0  9G30G25G15G26G29G02G10G05G12
 113503479.681 8  88444326.33845  21598995.953                    21599005.219
 113452215.185 8  88404390.762 7  21589246.641                    21589258.145
 129288715.054 6 100744503.031 5  24602831.469                    24602842.887
 124446543.703 6  96971409.82243  23681394.047                    23681403.992
 118257671.142 7  92148888.715 7  22503690.539                    22503700.129
 113751939.243 8  88638063.62746  21646269.352                    21646276.082
 124111153.776 7  96710110.92843  23617554.438                    23617563.625
 107177570.128 8  83515085.389 8  20395203.281                    20395212.168
 113100805.425 8  88130578.611 7  21522371.555                    21522380.703
 11  8 15  2 38  0.0000000  0  9G30G25G15G26G29G02G10G05G12
 113531678.370 8  88466299.33445  21604361.617                    21604371.105
 113454985.748 8  88406549.657 7  21589773.539                    21589785.223
 129194993.820 6 100671473.590 5  24584996.406                    24585007.430
 124351538.893 6  96897380.19743  23663314.383                    23663324.738
 118176720.092 7  92085810.052 7  22488286.227                    22488295.281
 113791317.489 8  88668747.95645  21653762.805                    21653769.363
 124215698.146 7  96791574.08943  23637448.109                    23637457.309
 107204439.669 8  83536022.706 8  20400316.711                    20400325.195
 113165012.442 7  88180610.051 7  21534589.797                    21534598.543
 11  8 15  2 38 30.0000000  0  9G30G25G15G26G29G02G10G05G12
 113560431.244 8  88488704.17145  21609833.281                    21609842.996
 113458331.884 8  88409157.051 7  21590410.453                    21590421.887
 129101148.299 6 100598347.293 6  24567138.477                    24567148.949
 124256605.058 6  96823405.84843  23645249.680                    23645259.715
 118095857.396 7  92022800.227 6  22472898.336                    22472907.582
 113830785.273 8  88699502.06745  21661273.273                    21661279.898
 124320399.110 6  96873159.24343  23657372.297                    23657382.355
 107231823.715 8  83557360.937 8  20405527.539                    20405536.160
 113229638.848 8  88230968.294 7  21546887.781                    21546896.832
 11  8 15  2 39  0.0000000  0  9G30G25G15G26G29G02G10G05G12
 113589736.526 8  88511539.44645  21615409.836                    21615419.355
 113462253.071 8  88412212.535 7  21591156.578                    21591168.063
 129007181.072 6 100525126.180 6  24549256.922                    24549268.137
 124161745.539 6  96749489.41043  23627197.641                    23627208.480
 118015085.002 7  91959860.756 7  22457527.820                    22457536.684
 113870342.554 8  88730325.91945  21668800.555                    21668807.246
 124425253.909 6  96954864.29143  23677324.750                    23677334.305
 107259720.422 8  83579098.641 8  20410836.336                    20410844.426
 113294682.162 8  88281651.391 7  21559264.859                    21559273.879
 11  8 15  2 39 30.0000000  0  9G30G25G15G26G29G02G10G05G12
 113619592.419 8  88534803.77845  21621091.086                    21621100.648
 113466748.695 8  88415715.618 7  21592012.070                    21592023.469
 128913094.564 7 100451812.105 6  24531352.633                    24531363.641
 124066963.955 6  96675633.69243  23609161.406                    23609171.965
 117934404.791 7  91896993.119 7  22442174.977                    22442184.000
 113909989.024 8  88761219.27745  21676345.148                    21676352.254
 124530259.811 6  97036687.10943  23697307.523                    23697315.871
 107288128.360 8  83601234.698 8  20416242.195                    20416250.594
 113360139.662 8  88332657.235 7  21571721.422                    21571730.340
 11  8 15  2 40  0.0000000  0  9G30G25G15G26G29G02G10G05G12
 113649996.972 8  88558495.63245  21626877.008                    21626886.621
 113471818.039 8  88419665.770 7  21592976.586                    21592988.141
 128818891.247 7 100378407.041 6  24513426.117                    24513436.902
 123972263.567 7  96601841.24544  23591140.844                    23591150.773
 117853818.603 7  91834198.737 7  22426839.289                    22426848.891
 113949724.268 8  88792181.80946  21683906.523                    21683913.535
 124635414.160 6  97118625.58743  23717317.961                    23717326.387
 107317045.699 8  83623767.700 8  20421744.813                    20421753.098
 113426008.685 8  88383983.744 7  21584255.570                    21584264.598
 11  8 15  2 40 30.0000000  0  9G30G25G15G26G29G02G10G05G12
 113680948.552 7  88582613.75445  21632766.828                    21632776.828
 113477460.608 8  88424062.569 7  21594050.500                    21594062.105
 128724574.031 6 100304913.228 6  24495478.570                    24495488.707
 123877648.157 7  96528114.98044  23573136.242                    23573145.969
 117773328.325 7  91771479.102 7  22411522.680                    22411532.223
 113989548.518 8  88823213.70246  21691484.602                    21691492.070
 124740714.251 6  97200677.61543  23737354.633                    23737364.371
 107346470.853 8  83646696.400 8  20427344.711                    20427352.602
 113492286.744 8  88435628.978 7  21596868.219                    21596877.195
 11  8 15  2 41  0.0000000  0  9G30G25G15G26G29G02G10G05G12
 113712445.294 7  88607156.66045  21638760.438                    21638770.371
 113483675.853 8  88428905.616 7  21595233.633                    21595244.797
 128630145.301 7 100231332.520 6  24477509.250                    24477519.289
 123783121.171 7  96454457.61044  23555147.906                    23555158.363
 117692935.928 7  91708835.731 7  22396224.570                    22396234.305
 114029461.697 7  88854314.88946  21699080.078                    21699087.094
 124846157.505 6  97282841.20643  23757419.523                    23757430.383
 107376402.299 7  83670019.611 8  20433040.000                    20433047.980
 113558971.026 8  88487590.761 7  21609557.891                    21609566.781
 11  8 15  2 41 30.0000000  0  9G30G25G15G26G29G02G10G05G12
 113744485.490 8  88632123.05045  21644857.508                    21644866.980
 113490462.978 8  88434194.278 7  21596524.750                    21596536.199
 128535607.690 7 100157666.973 6  24459519.492                    24459529.813
 123688686.214 7  96380871.98044  23537177.695                    23537187.543
 117612643.452 7  91646270.223 7  22380945.422                    22380954.789
 114069463.688 7  88885485.29246  21706691.906                    21706699.004
 124951741.242 6  97365114.25743  23777511.344                    23777521.703
 107406838.338 8  83693736.006 8  20438831.680                    20438840.297
 113626059.092 8  88539867.175 7  21622324.219                    21622333.109
 11  8 15  2 42  0.0000000  0  9G30G25G15G26G29G02G10G05G12
 113777066.894 7  88657511.15645  21651057.547                    21651067.215
 113497821.085 8  88439927.869 7  21597925.203                    21597936.719
 128440963.489 6 100083918.399 6  24441509.016                    24441519.648
 123594346.560 7  96307360.58244  23519225.789                    23519235.672
 117532452.456 7  91583783.790 7  22365685.063                    22365694.707
 114109553.949 7  88916724.45845  21714320.508                    21714327.668
 125057462.616 6  97447494.53543  23797630.523                    23797640.559
 107437776.724 7  83717843.845 8  20444719.188                    20444727.625
 113693548.195 8  88592456.081 7  21635166.977                    21635176.141
 11  8 15  2 42 30.0000000  0  9G30G25G15G26G29G02G10G05G12
 113810187.921 7  88683319.74845  21657360.438                    21657369.813
 113505749.759 8  88446106.051 7  21599433.469                    21599445.531
 128346215.465 6 100010088.902 6  24423479.938                    24423489.074
 123500106.107 7  96233926.54344  23501292.109                    23501302.398
 117452365.254 7  91521378.238 7  22350445.328                    22350454.820
 114149732.983 7  88948032.81445  21721966.797                    21721973.746
 125163319.191 7  97529980.19243  23817773.945                    23817784.668
 107469216.364 7  83742342.263 8  20450702.297                    20450710.371
 113761435.876 8  88645355.578 7  21648085.336                    21648094.121
 11  8 15  2 43  0.0000000  0  9G30G25G15G26G29G02G10G05G12
 113843846.591 8  88709547.28145  21663765.461                    21663774.914
 113514248.105 8  88452728.126 7  21601050.898                    21601062.508
 128251366.057 6  99936180.403 6  24405429.242                    24405439.695
 123405968.179 6  96160572.36944  23483377.891                    23483388.414
 117372383.719 7  91459055.014 7  22335225.633                    22335234.750
 114190000.341 7  88979409.98045  21729629.133                    21729636.137
 125269308.280 7  97612569.07943  23837942.539                    23837952.988
 107501155.078 8  83767229.581 8  20456779.750                    20456788.242
 113829719.225 8  88698563.381 7  21661079.547                    21661088.230
 11  8 15  2 43 30.0000000  0  9G30G25G15G26G29G02G10G05G12
 113878040.847 8  88736192.17045  21670272.430                    21670281.570
 113523315.344 8  88459793.498 7  21602776.352                    21602787.809
 128156417.920 6  99862194.983 6  24387360.484                    24387371.695
 123311936.199 7  96087300.77443  23465484.406                    23465494.570
 117292509.693 7  91396815.566 7  22320026.039                    22320035.289
 114230355.642 8  89010855.67045  21737308.586                    21737315.832
 125375427.482 6  97695259.38843  23858137.078                    23858147.277
 107533591.202 8  83792504.482 8  20462952.242                    20462960.391
 113898395.824 8  88752077.602 7  21674148.414                    21674156.871
 11  8 15  2 44  0.0000000  0  9G30G25G15G26G29G02G10G05G12
 113912768.504 8  88763252.68745  21676880.578                    21676890.211
 113532950.349 8  88467301.276 7  21604610.070                    21604621.289
 128061373.613 6  99788134.637 6  24369274.211                    24369285.613
 123218013.567 6  96014114.32844  23447611.227                    23447621.262
 117212745.085 7  91334661.386 7  22304847.117                    22304856.500
 114270798.863 8  89042369.86645  21745005.211                    21745011.691
 125481673.979 6  97778048.84243  23878355.352                    23878364.832
 107566522.595 8  83818165.305 8  20469218.758                    20469227.191
 113967462.719 8  88805895.957 7  21687291.266                    21687300.078
 11  8 15  2 44 30.0000000  0  9G30G25G15G26G29G02G10G05G12
 113948027.762 8  88790727.45045  21683590.070                    21683599.609
 113543152.538 8  88475251.033 7  21606551.508                    21606563.242
 127966235.765 6  99714001.367 6  24351170.797                    24351181.191
 123124204.022 6  95941016.04744  23429760.023                    23429769.945
 117133092.020 7  91272594.134 7  22289689.594                    22289698.480
 114311330.049 8  89073952.61945  21752717.164                    21752724.688
 125588045.050 6  97860935.38343  23898597.016                    23898607.043
 107599947.820 8  83844210.931 8  20475579.430                    20475587.750
 114036917.337 8  88860016.429 7  21700507.906                    21700516.828
 11  8 15  2 45  0.0000000  0  9G30G25G15G26G29G02G10G05G12
 113983816.748 8  88818614.98345  21690400.461                    21690410.066
 113553921.180 8  88483642.176 7  21608600.273                    21608612.445
 127871007.082 6  99639797.322 6  24333049.273                    24333059.254
 123030511.492 6  95868008.94843  23411931.195                    23411941.250
 117053552.589 7  91210615.418 7  22274553.484                    22274562.664
 114351949.427 8  89105604.10045  21760447.641                    21760454.488
 125694538.048 6  97943916.93343  23918861.727                    23918871.785
 107633864.992 8  83870639.894 8  20482033.641                    20482042.039
 114106756.853 8  88914436.823 7  21713797.797                    21713806.859
 11  8 15  2 45 30.0000000  0  9G30G25G15G26G29G02G10G05G12
 114020133.265 8  88846913.58745  21697311.477                    21697321.023
 113565255.314 8  88492473.976 7  21610757.172                    21610768.945
 127775690.277 6  99565524.608 6  24314910.953                    24314920.879
 122936939.468 7  95795095.73244  23394125.180                    23394134.512
 116974128.525 7  91148726.605 7  22259439.680                    22259448.781
 114392656.641 7  89137324.02645  21768193.438                    21768200.688
 125801150.449 7  98026991.52843  23939149.563                    23939159.367
 107668272.258 8  83897450.755 8  20488581.227                    20488589.582
 114176978.605 8  88969155.071 7  21727160.625                    21727169.301
 11  8 15  2 46  0.0000000  0  9G30G25G15G26G29G02G10G05G12
 114056975.441 8  88875621.79145  21704322.250                    21704332.016
 113577153.996 8  88501745.680 7  21613021.633                    21613033.227
 127680287.805 6  99491185.128 6  24296756.852                    24296766.543
 122843491.117 7  95722278.85244  23376342.500                    23376352.148
 116894821.976 7  91086929.357 7  22244348.461                    22244357.281
 114433451.732 8  89169112.42745  21775956.578                    21775963.930
 125907879.809 6  98110157.23743  23959459.492                    23959469.230
 107703167.657 8  83924641.970 8  20495221.328                    20495229.941
 114247580.413 8  89024169.467 7  21740595.594                    21740604.078
 11  8 15  2 46 30.0000000  0  9G30G25G15G26G29G02G10G05G12
 114094340.701 8  88904737.59145  21711432.445                    21711441.902
 113589616.058 8  88511456.383 7  21615392.828                    21615404.328
 127584802.191 6  99416780.862 6  24278586.328                    24278596.168
 122750169.906 7  95649561.07844  23358583.813                    23358593.844
 116815634.873 7  91025225.184 7  22229279.383                    22229288.609
 114474334.170 7  89200968.88845  21783735.891                    21783743.512
 126014723.298 6  98193411.89143  23979791.133                    23979801.555
 107738549.091 8  83952211.919 8  20501954.398                    20501962.922
 114318558.563 8  89079477.116 7  21754102.258                    21754111.203
 11  8 15  2 47  0.0000000  0  9G30G25G15G26G29G02G10G05G12
 114132227.149 7  88934259.51545  21718642.133                    21718651.191
 113602640.590 8  88521605.387 7  21617871.156                    21617883.266
 127489236.288 7  99342314.037 6  24260400.547                    24260410.492
 122656979.585 7  95576945.29344  23340849.828                    23340859.625
 116736569.146 7  90963615.596 7  22214233.539                    22214242.934
 114515304.385 7  89232893.74845  21791532.641                    21791539.770
 126121678.411 6  98276753.48243  24000143.156                    24000153.668
 107774414.980 8  83980159.372 8  20508779.383                    20508787.934
 114389910.522 8  89135076.032 7  21767680.102                    21767688.930
 11  8 15  2 47 30.0000000  0  9G30G25G15G26G29G02G10G05G12
 114170632.960 8  88964186.13745  21725950.219                    21725960.258
 113616226.862 7  88532192.104 7  21620457.180                    21620468.719
 127393592.670 7  99267786.649 6  24242199.930                    24242210.023
 122563924.019 7  95504434.47844  23323142.250                    23323151.832
 116657626.964 7  90902102.268 7  22199211.227                    22199220.980
 114556362.301 7  89264886.93245  21799345.531                    21799352.543
 126228742.819 6  98360180.27143  24020516.914                    24020527.355
 107810763.395 8  84008482.816 8  20515696.445                    20515704.961
 114461634.237 7  89190964.644 7  21781328.828                    21781337.680
 11  8 15  2 48  0.0000000  0  9G30G25G15G26G29G02G10G05G12
 114209555.581 7  88994515.46045  21733357.523                    21733367.051
 113630373.589 8  88543215.544 7  21623148.859                    21623160.828
 127297873.967 7  99193200.759 6  24223985.625                    24223995.074
 122471006.747 7  95432031.45744  23305460.375                    23305470.680
 116578810.294 7  90840686.745 7  22184212.461                    22184221.984
 114597507.607 8  89296948.21745  21807175.250                    21807182.160
 126335913.484 6  98443689.80543  24040911.625                    24040921.719
 107847592.110 8  84037180.516 8  20522704.672                    20522713.180
 114533726.182 7  89247140.179 7  21795047.742                    21795056.426
 11  8 15  2 48 30.0000000  0  9G30G25G15G26G29G02G10G05G12
 114248992.969 7  89025245.91045  21740862.000                    21740871.762
 113645079.744 8  88554674.903 7  21625947.141                    21625959.125
 127202082.785 7  99118558.359 6  24205756.953                    24205766.703
 122378230.935 7  95359738.66644  23287805.844                    23287815.664
 116500121.018 7  90779370.490 7  22169238.977                    22169248.094
 114638740.102 7  89329077.44545  21815021.813                    21815028.535
 126443188.171 6  98527280.44043  24061325.484                    24061335.473
 107884899.473 8  84066251.201 8  20529803.914                    20529812.336
 114606183.777 7  89303600.645 7  21808835.805                    21808844.523
 11  8 15  2 49  0.0000000  0  9G30G25G15G26G29G02G10G05G12
 114288943.082 7  89056375.88145  21748464.125                    21748473.340
 113660344.426 8  88566569.480 7  21628852.063                    21628863.820
 127106221.979 7  99043861.731 6  24187515.195                    24187524.934
 122285600.913 7  95287559.48844  23270178.617                    23270188.816
 116421561.586 7  90718155.409 7  22154289.234                    22154298.648
 114680060.377 7  89361275.08745  21822884.984                    21822891.672
 126550564.282 6  98610950.09643  24081758.625                    24081769.305
 107922683.756 8  84095693.504 8  20536994.297                    20537002.797
 114679004.314 7  89360343.925 7  21822692.984                    21822701.652
 11  8 15  2 49 30.0000000  0  9G30G25G15G26G29G02G10G05G12
 114329403.617 7  89087903.57845  21756163.852                    21756173.031
 113676166.428 8  88578898.342 7  21631862.930                    21631874.145
 127010294.425 7  98969113.102 6  24169260.617                    24169270.691
 122193119.759 6  95215496.30644  23252580.930                    23252589.930
 116343133.635 7  90657042.775 7  22139365.117                    22139374.711
 114721467.920 7  89393540.72145  21830764.305                    21830770.809
 126658039.130 6  98694696.69643  24102209.938                    24102220.492
 107960942.613 8  84125505.608 8  20544274.336                    20544282.941
 114752185.008 7  89417367.848 7  21836619.023                    21836627.477
 11  8 15  2 50  0.0000000  0  9G30G25G15G26G29G02G10G05G12
 114370371.976 7  89119826.98745  21763959.477                    21763969.016
 113692544.319 8  88591660.355 7  21634979.461                    21634991.543
 126914302.216 7  98894314.120 6  24150993.648                    24151003.641
 122100790.998 7  95143551.85544  23235010.883                    23235020.363
 116264839.157 7  90596034.146 7  22124466.055                    22124475.238
 114762962.667 7  89425874.31445  21838660.008                    21838666.820
 126765610.062 6  98778518.12943  24122680.906                    24122690.547
 107999673.511 7  84155685.537 8  20551644.602                    20551653.027
 114825722.637 7  89474669.898 7  21850612.672                    21850621.727
 11  8 15  2 50 30.0000000  0  9G30G25G15G26G29G02G10G05G12
 114411846.435 7  89152144.75145  21771851.938                    21771861.281
 113709477.381 8  88604854.967 7  21638201.656                    21638213.594
 126818248.584 7  98819467.280 6  24132714.688                    24132725.250
 122008618.570 7  95071729.22944  23217470.813                    23217480.938
 116186680.653 7  90535131.469 7  22109592.656                    22109601.465
 114804545.120 7  89458276.25045  21846573.180                    21846580.176
 126873274.978 6  98862412.83343  24143168.336                    24143178.699
 108038875.365 7  84186232.448 8  20559104.531                    20559112.855
 114899615.359 7  89532248.642 7  21864673.898                    21864682.816
 11  8 15  2 51  0.0000000  0  9G30G25G15G26G29G02G10G05G12
 114453824.473 7  89184854.91445  21779840.000                    21779849.633
 113726964.327 8  88618481.185 7  21641529.195                    21641540.934
 126722136.186 7  98744574.619 6  24114426.172                    24114435.703
 121916605.985 7  95000031.14644  23199961.617                    23199970.938
 116108659.694 7  90474335.981 7  22094745.531                    22094754.801
 114846214.711 7  89490746.07645  21854502.820                    21854509.137
 126981031.239 6  98946378.70543  24163673.531                    24163683.938
 108078545.877 7  84217144.541 8  20566653.578                    20566662.016
 114973859.313 7  89590101.079 7  21878802.063                    21878810.719
 11  8 15  2 51 30.0000000  0  9G30G25G15G26G29G02G10G05G12
 114496303.642 7  89217955.57445  21787923.531                    21787932.949
 113745003.648 8  88632537.824 7  21644962.055                    21644973.703
 126625967.758 6  98669638.331 6  24096124.742                    24096135.141
 121824756.594 7  94928460.21744  23182483.664                    23182492.949
 116030778.641 7  90413649.493 7  22079925.297                    22079934.594
 114887971.451 8  89523283.81245  21862448.805                    21862455.199
 127088875.911 6  99030413.53342  24184195.648                    24184205.254
 108118682.983 8  84248420.215 8  20574291.391                    20574299.875
 115048451.678 7  89648225.005 7  21892996.594                    21893005.020
 11  8 15  2 52  0.0000000  0  9G30G25G15G26G29G02G10G05G12
 114539281.980 7  89251445.20145  21796102.148                    21796111.469
 113763594.550 8  88647024.248 7  21648499.898                    21648511.246
 126529745.684 6  98594660.231 6  24077814.250                    24077825.133
 121733074.455 7  94857019.60544  23165036.773                    23165046.352
 115953039.661 7  90353073.726 7  22065131.984                    22065141.727
 114929815.609 8  89555889.65545  21870411.539                    21870418.207
 127196807.053 6  99114515.66142  24204734.320                    24204743.344
 108159284.729 8  84280057.958 8  20582017.773                    20582026.141
 115123390.183 7  89706618.644 7  21907256.781                    21907265.234
 11  8 15  2 52 30.0000000  0  9G30G25G15G26G29G02G10G05G12
 114582757.044 7  89285321.87645  21804375.414                    21804384.840
 113782735.652 8  88661939.409 7  21652142.125                    21652154.063
 126433472.837 6  98519642.579 6  24059494.102                    24059504.418
 121641563.062 7  94785712.05244  23147622.664                    23147632.277
 115875444.877 7  90292610.321 7  22050366.680                    22050375.863
 114971747.282 7  89588563.70945  21878390.641                    21878397.461
 127304822.086 6  99198683.15642  24225288.563                    24225297.695
 108200349.065 8  84312056.152 8  20589831.766                    20589840.430
 115198671.650 7  89765279.533 7  21921582.789                    21921590.895
 11  8 15  2 53  0.0000000  0  9G30G25G15G26G29G02G10G05G12
 114626726.397 7  89319583.72045  21812742.070                    21812751.922
 113802425.557 8  88677282.204 7  21655889.094                    21655900.867
 126337152.213 6  98444587.692 6  24041164.445                    24041174.570
 121550226.016 7  94714540.35644  23130241.836                    23130251.574
 115797996.112 7  90232260.680 7  22035628.305                    22035637.539
 115013766.305 8  89621305.81845  21886386.523                    21886393.969
 127412918.128 6  99282913.78642  24245858.875                    24245867.996
 108241873.498 8  84344412.870 8  20597733.602                    20597741.844
 115274293.373 7  89824205.556 7  21935972.516                    21935981.391
 11  8 15  2 53 30.0000000  0  9G30G25G15G26G29G02G10G05G12
 114671187.696 7  89354228.89245  21821203.117                    21821212.875
 113822663.061 8  88693051.694 7  21659740.555                    21659751.891
 126240786.308 6  98369497.493 6  24022826.773                    24022836.840
 121459066.877 7  94643507.29044  23112894.898                    23112904.676
 115720695.755 7  90172026.686 7  22020918.555                    22020927.961
 115055872.891 7  89654116.15145  21894398.898                    21894406.031
 127521093.043 5  99367205.83242  24266443.742                    24266453.477
 108283856.380 8  84377126.810 8  20605722.617                    20605731.129
 115350252.272 7  89883394.298 7  21950427.445                    21950435.930
 11  8 15  2 54  0.0000000  0  9G30G25G15G26G29G02G10G05G12
 114716138.611 7  89389255.59545  21829756.867                    21829766.242
 113843446.803 8  88709246.816 7  21663695.219                    21663706.840
 126144377.886 6  98294374.118 6  24004481.633                    24004490.137
 121368089.453 7  94572615.79844  23095582.484                    23095591.551
 115643545.977 7  90111910.027 7  22006237.484                    22006246.852
 115098066.797 7  89686994.54845  21902428.391                    21902435.410
 127629344.455 6  99451557.53243  24287044.523                    24287052.930
 108326295.790 7  84410196.505 8  20613798.656                    20613807.105
 115426545.651 8  89942843.693 7  21964945.492                    21964954.293
 11  8 15  2 54 30.0000000  0  9G30G25G15G26G29G02G10G05G12
 114761576.627 7  89424661.84045  21838403.500                    21838413.074
 113864775.358 8  88725866.470 7  21667754.141                    21667765.762
 126047929.942 6  98219219.950 6  23986127.766                    23986136.754
 121277297.242 7  94501868.62644  23078305.352                    23078314.480
 115566548.453 7  90051912.017 7  21991585.273                    21991595.137
 115140348.078 7  89719941.02745  21910473.813                    21910481.031
 127737669.676 6  99535966.70043  24307657.383                    24307666.594
 108369189.076 8  84443619.853 8  20621960.922                    20621969.621
 115503170.451 8  90002551.332 7  21979526.531                    21979535.223
 11  8 15  2 55  0.0000000  0  9G30G25G15G26G29G02G10G05G12
 114807499.471 7  89460445.88845  21847142.031                    21847151.598
 113886647.618 8  88742909.798 7  21671916.203                    21671927.828
 125951445.027 7  98144037.000 6  23967767.148                    23967777.148
 121186694.086 7  94431268.77144  23061064.156                    23061073.543
 115489705.766 7  89992034.657 7  21976962.375                    21976971.887
 115182716.941 7  89752955.74745  21918536.828                    21918543.684
 127846066.281 6  99620431.53643  24328284.992                    24328295.016
 108412534.611 8  84477395.610 8  20630209.234                    20630217.359
 115580124.176 8  90062515.273 7  21994170.516                    21994179.324
 11  8 15  2 55 30.0000000  0  9G30G25G15G26G29G02G10G05G12
 114853904.527 7  89496605.68145  21855972.922                    21855982.574
 113909061.912 8  88760375.482 7  21676181.375                    21676192.891
 125854925.988 7  98068827.429 6  23949399.711                    23949409.164
 121096283.343 7  94360818.85044  23043859.242                    23043868.828
 115413019.786 7  89932279.397 7  21962369.445                    21962378.563
 115225173.101 8  89786038.47845  21926615.406                    21926622.203
 127954531.865 6  99704950.11543  24348925.617                    24348935.629
 108456330.188 8  84511522.048 8  20638543.438                    20638551.762
 115657403.534 8  90122732.959 7  22008876.203                    22008885.027
 11  8 15  2 56  0.0000000  0  9G30G25G15G26G29G02G10G05G12
 114900789.642 7  89533139.54945  21864894.758                    21864904.227
 113932017.128 8  88778262.661 7  21680550.031                    21680561.363
 125758375.980 6  97993593.731 6  23931026.914                    23931036.648
 121006068.945 7  94290521.91644  23026691.992                    23026701.867
 115336492.988 7  89872648.181 7  21947807.055                    21947815.695
 115267717.140 7  89819189.69945  21934711.891                    21934718.488
 128063064.067 6  99789520.61043  24369578.055                    24369588.867
 108500573.833 7  84545997.631 7  20646962.648                    20646970.691
 115735005.931 8  90183202.357 7  22023643.813                    22023652.359
 11  8 15  2 56 30.0000000  0  9G30G25G15G26G29G02G10G05G12
 114948152.062 7  89570045.33645  21873907.633                    21873916.965
 113955511.535 8  88796569.998 7  21685020.602                    21685032.102
 125661797.484 6  97918337.831 6  23912648.211                    23912658.086
 120916054.441 7  94220380.76844  23009563.047                    23009572.445
 115260127.029 7  89813142.298 7  21933274.539                    21933284.656
 115310348.636 8  89852409.05045  21942824.320                    21942830.738
 128171660.346 6  99874141.02943  24390243.328                    24390253.918
 108545262.922 8  84580820.311 8  20655466.766                    20655474.902
 115812928.024 8  90243920.868 7  22038471.242                    22038480.289
 11  8 15  2 57  0.0000000  0 10G30G25G15G26G29G02G21G10G05G12
 114995989.286 7  89607321.09445  21883010.594                    21883020.621
 113979543.693 8  88815296.358 7  21689593.453                    21689605.129
 125565193.277 6  97843061.871 6  23894265.656                    23894274.707
 120826243.665 7  94150398.33044  22992472.305                    22992481.652
 115183924.339 7  89753763.649 7  21918774.133                    21918783.469
 115353068.065 7  89885696.92545  21950953.945                    21950960.551
 132350512.36015                  25185513.867
 128280318.331 6  99958809.52143  24410920.352                    24410930.996
 108590395.538 7  84615988.601 8  20664055.289                    20664063.121
 115891166.714 7  90304886.086 7  22053359.883                    22053368.336
 11  8 15  2 57 30.0000000  0 10G30G25G15G26G29G02G21G10G05G12
 115044299.197 7  89644965.19245  21892203.563                    21892213.387
 114004112.541 8  88834440.918 7  21694268.820                    21694280.324
 125468566.474 6  97767768.312 6  23875878.211                    23875887.863
 120736640.310 7  94080577.54144  22975421.359                    22975430.773
 115107887.321 7  89694514.074 7  21904304.719                    21904314.066
 115395875.609 7  89919053.46945  21959099.414                    21959106.383
 132293475.908 6 103086073.17753  25174660.508                    25174671.742
 128389035.889 6 100043524.40443  24431609.133                    24431618.719
 108635969.925 7  84651501.121 7  20672727.914                    20672735.676
 115969719.840 8  90366096.308 7  22068308.047                    22068316.641
 11  8 15  2 58  0.0000000  0 10G30G25G15G26G29G02G21G10G05G12
 115093079.169 7  89682975.56345  21901486.453                    21901495.395
 114029216.488 8  88854002.432 7  21699045.719                    21699057.078
 125371920.019 6  97692459.444 6  23857486.008                    23857496.156
 120647248.152 7  94010921.32444  22958410.961                    22958420.359
 115032018.231 7  89635395.352 7  21889867.281                    21889876.387
 115438771.202 8  89952478.63845  21967261.961                    21967269.297
 132236452.535 6 103041639.49543  25163809.352                    25163820.070
 128497810.873 6 100128284.07442  24452308.758                    24452317.555
 108681983.703 7  84687356.023 7  20681483.938                    20681492.184
 116048584.386 8  90427549.200 7  22083315.430                    22083323.996
 11  8 15  2 58 30.0000000  0 10G30G25G15G26G29G02G21G10G05G12
 115142326.511 7  89721350.11645  21910857.742                    21910867.375
 114054853.695 8  88873979.483 7  21703924.500                    21703935.738
 125275256.190 6  97617137.041 6  23839091.703                    23839101.930
 120558070.572 7  93941432.30744  22941440.836                    22941450.531
 114956318.798 7  89576408.842 7  21875462.258                    21875471.078
 115481754.670 7  89985972.28245  21975441.633                    21975448.641
 132179440.999 6 102997215.04443  25152960.695                    25152971.023
 128606640.563 6 100213086.31542  24473017.875                    24473027.656
 108728434.531 7  84723551.486 7  20690322.992                    20690331.438
 116127757.249 8  90489242.351 7  22098381.500                    22098390.527
 11  8 15  2 59  0.0000000  0 10G30G25G15G26G29G02G21G10G05G12
 115192038.416 7  89760086.67245  21920317.367                    21920327.109
 114081022.522 8  88894370.773 7  21708904.289                    21708915.750
 125178577.942 6  97541803.352 6  23820694.406                    23820704.363
 120469111.097 7  93872113.23344  22924511.688                    22924521.508
 114880791.128 7  89517556.160 7  21861089.617                    21861098.898
 115524826.307 7  90019534.64445  21983637.664                    21983644.871
 132122440.632 6 102952799.31643  25142113.539                    25142124.086
 128715522.128 6 100297929.02042  24493737.273                    24493747.250
 108775320.003 8  84760085.632 8  20699245.102                    20699253.348
 116207234.744 8  90551172.868 7  22113505.414                    22113514.457
 11  8 15  2 59 30.0000000  0 10G30G25G15G26G29G02G21G10G05G12
 115242212.381 7  89799183.27245  21929865.148                    21929874.734
 114107721.328 8  88915175.043 7  21713984.875                    21713996.289
 125081888.093 6  97466460.636 6  23802295.930                    23802305.395
 120380373.375 7  93802966.94444  22907626.266                    22907635.695
 114805437.631 7  89458839.211 7  21846750.000                    21846759.402
 115567985.964 7  90053165.56545  21991851.086                    21991857.859
 132065450.816 6 102908391.80343  25131268.555                    25131279.160
 128824453.613 6 100382810.64542  24514465.695                    24514476.148
 108822637.919 8  84796956.733 7  20708249.586                    20708257.266
 116287014.471 7  90613338.885 7  22128687.016                    22128696.098
 11  8 15  3  0  0.0000000  0 10G30G25G15G26G29G02G21G10G05G12
 115292845.830 7  89838637.90945  21939500.180                    21939510.051
 114134948.558 8  88936391.080 7  21719166.453                    21719177.730
 124985189.460 6  97391111.067 6  23783894.094                    23783903.910
 120291861.236 7  93733996.43344  22890782.781                    22890792.301
 114730260.351 7  89400259.561 7  21832444.422                    21832453.465
 115611233.726 7  90086865.14745  22000080.648                    22000087.559
 132008470.997 7 102863992.07243  25120425.961                    25120436.090
 128933432.544 6 100467729.28142  24535203.859                    24535214.617
 108870385.857 8  84834162.931 7  20717335.523                    20717343.570
 116367093.111 7  90675737.822 7  22143925.453                    22143934.617
 11  8 15  3  0 30.0000000  0 10G30G25G15G26G29G02G21G10G05G12
 115343936.129 7  89878448.53745  21949222.656                    21949232.121
 114162702.648 8  88958017.655 7  21724447.750                    21724458.914
 124888484.939 7  97315756.947 6  23765491.953                    23765501.949
 120203578.155 7  93665204.41044  22873983.148                    22873992.613
 114655261.493 7  89341818.945 7  21818172.484                    21818181.543
 115654569.952 7  90120633.65445  22008327.578                    22008333.949
 131951500.700 7 102819599.72843  25109584.930                    25109594.715
 129042456.342 6 100552682.82842  24555949.617                    24555961.633
 108918561.802 7  84871702.631 7  20726503.391                    20726511.422
 116447467.887 7  90738367.511 7  22159220.414                    22159229.398
 11  8 15  3  1  0.0000000  0 10G30G25G15G26G29G02G21G10G05G12
 115395480.835 7  89918613.24245  21959031.430                    21959040.770
 114190982.033 8  88980053.549 7  21729828.906                    21729840.238
 124791777.820 7  97240400.807 6  23747089.094                    23747098.672
 120115528.101 7  93596593.99844  22857226.852                    22857237.207
 114580443.599 8  89283519.337 7  21803935.234                    21803943.941
 115697994.581 7  90154471.05745  22016591.266                    22016597.273
 131894539.408 6 102775214.42743  25098745.273                    25098755.766
 129151523.163 6 100637669.98243  24576705.797                    24576715.387
 108967164.082 8  84909574.542 7  20735751.828                    20735759.941
 116528136.043 7  90801225.809 7  22174570.898                    22174580.176
 11  8 15  3  1 30.0000000  0  9G30G25G15G26G29G02G21G05G12
 115447478.319 7  89959130.77445  21968925.789                    21968935.340
 114219786.069 8  89002498.260 7  21735310.547                    21735321.441
 124695071.589 7  97165045.339 6  23728686.766                    23728695.758
 120027715.781 7  93528168.81744  22840517.313                    22840527.418
 114505809.345 7  89225362.837 7  21789732.711                    21789741.602
 115741508.907 7  90188378.35645  22024871.359                    22024877.715
 131837587.528 6 102730836.47043  25087907.250                    25087918.164
 109016191.131 8  84947777.436 8  20745081.563                    20745089.629
 116609095.672 7  90864311.231 7  22189977.117                    22189986.094
 11  8 15  3  2  0.0000000  0  9G30G25G15G26G29G02G21G05G12
 115499925.033 7  89999998.35045  21978906.211                    21978915.973
 114249112.228 8  89025349.819 7  21740890.891                    21740902.281
 124598368.574 6  97089692.397 6  23710284.617                    23710294.090
 119940144.030 7  93459931.08744  22823853.242                    22823862.813
 114431360.439 7  89167350.746 7  21775565.281                    21775574.645
 115785112.066 7  90222354.88645  22033168.109                    22033175.195
 131780643.659 6 102686464.68442  25077070.563                    25077081.887
 109065639.624 8  84986308.730 7  20754491.250                    20754499.523
 116690342.785 7  90927620.669 7  22205438.227                    22205446.836
 11  8 15  3  2 30.0000000  0  9G30G25G15G26G29G02G21G05G12
 115552817.948 7  90041213.61745  21988971.289                    21988980.766
 114278958.349 8  89048606.552 7  21746570.422                    21746581.309
 124501671.252 6  97014343.883 6  23691883.898                    23691893.059
 119852816.127 7  93391883.38144  22807234.867                    22807244.781
 114357098.738 8  89109484.540 7  21761433.789                    21761443.402
 115828803.998 7  90256400.59145  22041482.570                    22041489.301
 131723706.904 5 102642098.51742  25066235.188                    25066247.125
 109115507.070 8  85025166.475 7  20763980.445                    20763988.906
 116771874.002 7  90991151.483 7  22220952.852                    22220961.563
 11  8 15  3  3  0.0000000  0  9G30G25G15G26G29G02G21G05G12
 115606154.469 7  90082774.53745  21999120.594                    21999130.426
 114309322.869 8  89072267.219 7  21752348.758                    21752360.043
 124404982.296 6  96939001.902 6  23673484.711                    23673493.824
 119765735.681 7  93324028.51744  22790664.477                    22790674.000
 114283026.746 8  89051766.149 7  21747338.297                    21747346.988
 115872584.801 7  90290515.56145  22049813.672                    22049820.621
 131666776.860 5 102597737.55642  25055402.047                    25055413.516
 109165791.185 8  85064348.908 7  20773549.547                    20773557.500
 116853686.239 7  91054901.278 7  22236521.336                    22236530.238
 11  8 15  3  3 30.0000000  0  9G30G25G15G26G29G02G21G05G12
 115659932.130 7  90124679.21945  22009354.594                    22009364.313
 114340204.169 8  89096330.594 7  21758224.641                    21758235.723
 124308305.009 7  96863669.009 6  23655086.930                    23655097.094
 119678906.710 7  93256369.62244  22774141.305                    22774151.063
 114209146.712 8  88994197.338 7  21733279.523                    21733288.129
 115916454.981 7  90324700.17345  22058162.000                    22058168.738
 131609852.846 6 102553381.34842  25044569.797                    25044580.930
 109216490.274 7  85103854.685 8  20783197.047                    20783205.160
 116935776.829 7  91118867.962 7  22252142.203                    22252150.969
 11  8 15  3  4  0.0000000  0  9G30G25G15G26G29G02G21G05G12
 115714147.888 7  90166925.27345  22019671.422                    22019680.918
 114371600.208 8  89120795.041 7  21764199.305                    21764210.680
 124211641.972 6  96788347.202 6  23636692.969                    23636702.125
 119592332.732 7  93188909.40544  22757666.727                    22757676.746
 114135460.432 8  88936779.499 7  21719257.617                    21719265.969
 115960414.436 7  90358954.33845  22066527.289                    22066534.055
 131552934.519 5 102509029.45542  25033738.180                    25033750.172
 109267601.628 8  85143681.710 8  20792923.289                    20792931.250
 117018142.675 7  91183049.150 7  22267816.422                    22267825.074
 11  8 15  3  4 30.0000000  0  9G30G25G15G26G29G02G21G05G12
 115768799.286 7  90209510.77645  22030071.508                    22030080.852
 114403509.443 8  89145659.390 7  21770271.656                    21770283.059
 124114996.478 7  96713039.093 6  23618302.102                    23618311.320
 119506017.612 7  93121650.91044  22741241.000                    22741250.875
 114061970.602 7  88879514.733 7  21705272.945                    21705282.102
 116004463.198 7  90393278.09645  22074909.477                    22074916.305
 131496021.007 6 102464681.47642  25022907.984                    25022920.332
 109319123.091 8  85183828.304 8  20802727.266                    20802735.875
 117100780.804 7  91247442.486 7  22283541.656                    22283550.859
 11  8 15  3  5  0.0000000  0  9G30G25G15G26G29G02G21G05G12
 115823883.338 7  90252433.41145  22040553.539                    22040562.988
 114435929.762 8  89170921.980 7  21776441.172                    21776452.000
 124018371.215 6  96637746.763 6  23599914.227                    23599924.152
 119419964.834 7  93054596.85144  22724866.281                    22724875.453
 113988679.123 8  88822404.541 7  21691325.914                    21691334.773
 116048601.416 7  90427671.56345  22083309.016                    22083315.023
 131439111.854 6 102420336.76842  25012079.617                    25012090.520
 109371052.029 8  85224292.403 7  20812609.438                    20812617.949
 117183688.042 7  91312045.526 7  22299318.055                    22299327.254
 11  8 15  3  5 30.0000000  0  9G30G25G15G26G29G02G21G05G12
 115879397.305 7  90295691.06445  22051117.141                    22051127.254
 114468859.355 8  89196581.417 7  21782707.297                    21782718.449
 123921769.089 6  96562472.440 6  23581531.711                    23581541.230
 119334178.111 7  92987750.12244  22708541.492                    22708550.941
 113915588.309 8  88765450.709 7  21677417.156                    21677426.211
 116092829.181 7  90462134.80645  22091724.891                    22091731.625
 131382206.316 6 102375994.90343  25001250.672                    25001260.891
 109423386.252 8  85265072.309 7  20822568.117                    20822576.258
 117266861.188 7  91376855.757 7  22315145.813                    22315154.313
 11  8 15  3  6  0.0000000  0  9G30G25G15G26G29G02G21G05G12
 115935338.697 7  90339281.75745  22061762.820                    22061771.941
 114502296.688 8  89222636.489 7  21789070.047                    21789081.438
 123825193.340 6  96487218.683 6  23563153.570                    23563163.211
 119248661.242 7  92921113.69244  22692268.531                    22692278.152
 113842700.916 8  88708655.384 7  21663546.859                    21663555.844
 116137147.074 7  90496668.26445  22100157.906                    22100164.824
 131325304.212 7 102331655.72443  24990423.023                    24990432.645
 109476123.812 8  85306166.514 8  20832603.555                    20832612.117
 117350298.236 7  91441871.631 7  22331023.602                    22331032.391
 11  8 15  3  6 30.0000000  0  9G30G25G15G26G29G02G21G05G12
 115991704.551 7  90383203.21245  22072488.695                    22072498.246
 114536239.566 8  89249085.496 7  21795529.281                    21795540.316
 123728646.399 7  96411987.388 6  23544780.531                    23544791.465
 119163417.813 7  92854690.31444  22676046.953                    22676056.492
 113770018.894 8  88652020.068 7  21649716.125                    21649725.000
 116181554.854 7  90531271.75345  22108608.102                    22108615.066
 131268404.750 6 102287318.61343  24979594.414                    24979604.457
 109529261.937 8  85347572.838 7  20842715.227                    20842723.875
 117433994.914 7  91507089.816 7  22346950.328                    22346958.906
 11  8 15  3  7  0.0000000  0  9G30G25G15G26G29G02G21G05G12
 116048491.739 7  90427452.96245  22083294.961                    22083304.563
 114570685.902 8  89275926.810 7  21802084.109                    21802095.496
 123632131.310 7  96336780.896 6  23526415.172                    23526425.168
 119078451.070 7  92788482.53944  22659878.164                    22659887.313
 113697544.130 8  88595546.275 7  21635924.570                    21635933.523
 116226052.722 7  90565945.42545  22117076.148                    22117082.559
 131211507.258 6 102242982.96043  24968767.531                    24968777.059
 109582797.990 8  85389289.251 8  20852902.820                    20852911.438
 117517948.234 7  91572507.984 7  22362925.813                    22362934.695
 11  8 15  3  7 30.0000000  0  9G30G25G15G26G29G02G21G05G12
 116105698.086 7  90472029.32945  22094181.445                    22094190.359
 114605634.329 8  89303159.358 7  21808734.813                    21808746.152
 123535651.432 7  96261601.832 6  23508055.047                    23508065.227
 118993765.504 7  92722493.87344  22643762.844                    22643772.582
 113625279.411 8  88539236.142 7  21622172.719                    21622181.875
 116270641.196 7  90600689.71645  22125560.906                    22125567.828
 131154611.636 5 102198648.83542  24957940.016                    24957950.090
 109636730.671 8  85431314.727 8  20863166.219                    20863174.512
 117602156.141 7  91638124.524 7  22378950.508                    22378958.879
 11  8 15  3  8  0.0000000  0  9G30G25G15G26G29G02G21G05G12
 116163320.592 7  90516929.98145  22105146.367                    22105155.762
 114641082.660 8  89330781.443 7  21815480.344                    21815491.496
 123439209.245 7  96186452.131 6  23489703.258                    23489713.328
 118909364.461 7  92656726.88144  22627702.016                    22627710.910
 113553226.997 8  88483091.451 7  21608462.156                    21608471.320
 116315320.590 7  90635504.83445  22134063.570                    22134069.777
 131097717.153 6 102154315.61443  24947112.945                    24947123.621
 109691057.078 8  85473646.991 7  20873504.281                    20873512.313
 117686614.998 7  91703936.622 7  22395022.414                    22395031.242
 11  8 15  3  8 30.0000000  0  9G30G25G15G26G29G02G21G05G12
 116221356.339 7  90562152.64345  22116190.219                    22116199.797
 114677028.850 8  89358791.463 7  21822320.727                    21822331.648
 123342808.319 7  96111334.588 6  23471359.195                    23471368.445
 118825251.420 7  92591184.31844  22611695.680                    22611704.770
 113481388.737 8  88427113.630 7  21594791.055                    21594800.500
 116360090.603 7  90670390.57445  22142582.695                    22142589.141
 131040823.264 6 102109982.79743  24936286.234                    24936297.434
 109745774.674 8  85516284.088 7  20883916.180                    20883924.449
 117771321.659 7  91769941.807 7  22411141.594                    22411150.207
 11  8 15  3  9  0.0000000  0  9G30G25G15G26G29G02G21G05G12
 116279802.521 7  90607695.11245  22127311.578                    22127321.598
 114713471.031 8  89387187.968 7  21829255.305                    21829266.652
 123246451.446 7  96036251.358 6  23453022.148                    23453031.871
 118741430.268 7  92525869.17644  22595745.203                    22595753.902
 113409767.403 8  88371304.844 7  21581162.094                    21581170.965
 116404951.789 7  90705347.36145  22151119.758                    22151126.109
 130983929.395 6 102065650.00442  24925459.125                    24925470.820
 109800881.584 8  85559224.544 7  20894402.977                    20894411.352
 117856273.434 7  91836137.985 7  22427307.148                    22427315.527
 11  8 15  3  9 30.0000000  0  9G30G25G15G26G29G02G21G05G12
 116338656.244 7  90653555.15545  22138511.922                    22138521.270
 114750407.061 8  89415969.298 7  21836283.891                    21836295.156
 123150141.114 7  95961204.376 6  23434695.570                    23434704.824
 118657904.522 7  92460784.21444  22579850.609                    22579860.004
 113338365.159 8  88315666.773 7  21567575.188                    21567583.941
 116449904.174 7  90740375.20445  22159673.961                    22159680.531
 130927035.245 6 102021316.95243  24914633.156                    24914644.055
 109856375.051 8  85602466.220 7  20904963.469                    20904971.051
 117941467.007 7  91902522.569 7  22443519.063                    22443527.668
 11  8 15  3 10  0.0000000  0  9G30G25G15G26G29G02G21G05G12
 116397914.502 7  90699730.42445  22149788.320                    22149797.848
 114787834.896 8  89445133.856 7  21843406.430                    21843417.406
 123053880.751 7  95886196.355 6  23416377.680                    23416387.168
 118574677.858 7  92395932.27444  22564012.984                    22564022.344
 113267184.071 8  88260201.026 7  21554029.414                    21554038.156
 116494947.971 7  90775474.28845  22168245.664                    22168252.477
 130870139.804 6 101976982.90142  24903807.188                    24903816.938
 109912252.551 7  85646007.141 7  20915595.953                    20915604.574
 118026899.353 7  91969093.227 7  22459775.984                    22459785.156
 11  8 15  3 10 30.0000000  0  9G30G25G15G26G29G02G21G05G12
 116457574.600 7  90746218.79545  22161140.727                    22161151.031
 114825752.658 8  89474680.171 7  21850621.875                    21850632.953
 122957673.416 7  95811229.662 6  23398070.281                    23398079.621
 118491754.301 7  92331316.51744  22548232.922                    22548242.109
 113196226.711 8  88204909.624 7  21540526.969                    21540536.172
 116540083.576 7  90810644.90545  22176834.672                    22176841.219
 130813242.807 5 101932647.66442  24892978.852                    24892989.637
 109968512.414 8  85689846.000 7  20926302.141                    20926310.484
 118112567.613 7  92035847.701 7  22476078.508                    22476087.184
 11  8 15  3 11  0.0000000  0  9G30G25G15G26G29G02G21G05G12
 116517634.112 7  90793018.41845  22172570.250                    22172579.398
 114864158.571 8  89504606.865 7  21857930.250                    21857941.680
 122861522.418 7  95736306.865 6  23379772.914                    23379782.234
 118409137.480 7  92266939.75644  22532511.828                    22532521.109
 113125495.652 8  88149794.565 7  21527066.922                    21527075.938
 116585311.292 8  90845887.32545  22185441.047                    22185448.031
 130756343.735 6 101888310.83643  24882151.453                    24882161.707
 110025152.136 8  85733980.862 7  20937080.414                    20937088.422
 118198469.007 7  92102783.846 7  22492425.016                    22492433.703
 11  8 15  3 11 30.0000000  0  9G30G25G15G26G29G02G21G05G12
 116578089.575 7  90840126.56545  22184074.414                    22184084.066
 114903050.148 8  89534911.993 7  21865330.695                    21865342.238
 122765430.170 7  95661429.844 6  23361487.172                    23361496.395
 118326830.585 7  92202804.49945  22516849.406                    22516859.074
 113054992.904 8  88094857.416 7  21513650.531                    21513659.852
 116630631.239 7  90881201.59645  22194065.156                    22194071.883
 130699442.090 6 101843971.99743  24871323.289                    24871334.441
 110082168.996 8  85778409.592 7  20947930.203                    20947938.367
 118284600.306 7  92169899.129 7  22508815.438                    22508823.711
 11  8 15  3 12  0.0000000  0  9G30G25G15G26G29G02G21G05G12
 116638937.749 7  90887540.72245  22195652.984                    22195662.969
 114942424.853 8  89565593.575 7  21872823.719                    21872835.180
 122669399.403 7  95586600.724 6  23343212.805                    23343222.395
 118244837.253 7  92138913.57945  22501246.375                    22501256.293
 112984720.105 8  88040099.440 7  21500278.633                    21500286.789
 116676043.218 7  90916587.57645  22202706.375                    22202713.453
 130642536.964 6 101799630.45943  24860494.672                    24860505.094
 110139560.112 8  85823129.955 7  20958851.320                    20958859.672
 118370957.493 7  92237190.424 7  22525248.133                    22525256.992
 11  8 15  3 12 30.0000000  0  9G30G25G15G26G29G02G21G05G12
 116700175.997 7  90935258.82845  22207306.461                    22207316.176
 114982280.962 8  89596650.278 7  21880408.188                    21880419.723
 122573433.494 7  95511822.120 6  23324951.344                    23324960.730
 118163161.372 7  92075270.02345  22485704.344                    22485713.781
 112914680.289 8  87985523.002 7  21486950.000                    21486959.090
 116721547.682 7  90952045.60545  22211365.430                    22211372.242
 130585628.254 6 101755286.09343  24849665.430                    24849675.594
 110197323.879 8  85868140.686 7  20969843.477                    20969851.617
 118457538.030 7  92304655.771 7  22541724.422                    22541732.977
 11  8 15  3 13  0.0000000  0  9G30G25G15G26G29G02G21G05G12
 116761801.745 7  90983278.88945  22219033.531                    22219043.602
 115022616.631 8  89628080.680 7  21888083.656                    21888095.094
 122477535.334 7  95437096.313 6  23306702.609                    23306711.750
 118081806.859 7  92011876.86544  22470222.852                    22470231.957
 112844876.116 8  87931130.191 7  21473666.891                    21473675.285
 116767145.219 7  90987576.16545  22220042.438                    22220049.348
 130528715.253 6 101710938.35743  24838835.320                    24838845.313
 110255457.654 8  85913439.739 7  20980905.883                    20980914.398
 118544339.265 7  92372293.093 7  22558241.617                    22558250.660
 11  8 15  3 13 30.0000000  0  9G30G25G15G26G29G02G21G05G12
 116823811.630 7  91031598.27845  22230833.688                    22230843.391
 115063429.333 8  89659882.773 7  21895849.836                    21895861.820
 122381708.280 7  95362425.924 6  23288466.953                    23288476.199
 118000776.992 7  91948736.66445  22454802.852                    22454812.656
 112775309.274 8  87876922.311 7  21460428.242                    21460437.824
 116812835.922 7  91023179.32545  22228737.469                    22228743.797
 130471797.179 6 101666586.72543  24828004.500                    24828014.367
 110313958.845 8  85959025.090 7  20992038.461                    20992046.578
 118631357.764 7  92440099.695 7  22574800.906                    22574810.000
 11  8 15  3 14  0.0000000  0  9G30G25G15G26G29G02G21G05G12
 116886203.006 7  91080214.93145  22242706.680                    22242716.047
 115104717.092 8  89692055.057 7  21903706.859                    21903718.098
 122285954.944 7  95287812.971 6  23270246.086                    23270255.078
 117920075.548 7  91885852.39444  22439446.352                    22439455.961
 112705982.298 8  87822901.334 7  21447236.016                    21447244.934
 116858620.131 8  91058855.33645  22237449.836                    22237456.617
 130414873.901 7 101622230.99444  24817172.273                    24817182.043
 110372825.303 8  86004895.056 7  21003240.297                    21003248.902
 118718590.836 7  92508073.501 7  22591400.953                    22591409.902
 11  8 15  3 14 30.0000000  0  9G30G25G15G26G29G02G21G05G12
 116948972.704 7  91129126.38145  22254650.883                    22254660.414
 115146477.583 8  89724595.701 7  21911653.641                    21911665.133
 122190278.699 7  95213260.105 6  23252039.344                    23252048.730
 117839706.377 7  91823227.04845  22424153.023                    22424162.434
 112636897.296 8  87769068.921 7  21434089.641                    21434098.531
 116904497.813 7  91094604.18345  22246180.188                    22246187.090
 130357944.660 7 101577870.61643  24806338.477                    24806348.625
 110432054.680 8  86051047.820 7  21014511.164                    21014519.469
 118806035.199 7  92576211.937 7  22608041.125                    22608049.973
 11  8 15  3 15  0.0000000  0  9G30G25G15G26G29G02G21G05G12
 117012117.825 7  91178330.34945  22266667.031                    22266676.520
 115188708.595 8  89757502.975 7  21919690.195                    21919701.824
 122094682.545 7  95138769.645 6  23233847.594                    23233856.789
 117759672.687 7  91760863.11045  22408922.750                    22408932.465
 112568056.913 8  87715427.110 7  21420989.469                    21420998.340
 116950469.288 8  91130426.12445  22254928.500                    22254935.047
 130301009.059 6 101533505.31143  24795503.719                    24795514.043
 110491644.367 8  86097481.352 7  21025850.359                    21025858.848
 118893687.715 7  92644512.587 7  22624721.039                    22624729.277
 11  8 15  3 15 30.0000000  0  9G30G25G15G26G29G02G21G05G12
 117075635.156 7  91227824.36845  22278754.102                    22278763.434
 115231407.849 8  89790775.119 7  21927815.234                    21927826.469
 121999169.391 7  95064343.826 6  23215672.219                    23215681.305
 117679978.459 7  91698763.69045  22393757.727                    22393767.039
 112499463.385 8  87661977.642 7  21407936.445                    21407945.480
 116996534.536 7  91166321.13945  22263693.953                    22263700.648
 130244066.568 6 101489134.61643  24784668.000                    24784677.883
 110551591.832 8  86144193.655 7  21037258.352                    21037266.609
 118981545.160 7  92712972.915 7  22641439.531                    22641448.262
 11  8 15  3 16  0.0000000  0  9G30G25G15G26G29G02G21G05G12
 117139522.164 7  91277606.44145  22290911.430                    22290920.641
 115274573.290 8  89824410.518 7  21936029.703                    21936040.777
 121903742.535 7  94989985.286 6  23197513.070                    23197522.047
 117600627.346 7  91636931.64444  22378657.477                    22378667.336
 112431118.899 8  87608722.242 7  21394931.047                    21394940.074
 117042694.533 7  91202289.98245  22272477.656                    22272484.680
 130187116.420 6 101444757.97443  24773830.656                    24773840.984
 110611894.681 8  86191182.897 7  21048733.648                    21048741.707
 119069604.729 7  92781590.750 7  22658196.539                    22658205.070
 11  8 15  3 16 30.0000000  0  9G30G25G15G26G29G02G21G05G12
 117203775.352 7  91327673.85445  22303138.320                    22303148.117
 115318202.417 8  89858407.231 7  21944331.523                    21944343.125
 121808404.681 7  94915696.089 6  23179370.797                    23179380.488
 117521622.590 7  91575369.49545  22363623.688                    22363632.914
 112363026.005 8  87555662.883 7  21381973.625                    21381982.641
 117088949.278 7  91238332.65745  22281279.625                    22281286.793
 130130158.332 6 101400375.13043  24762991.367                    24763002.363
 110672550.764 8  86238447.379 7  21060275.938                    21060284.051
 119157863.329 7  92850363.663 7  22674992.242                    22675000.660
 11  8 15  3 17  0.0000000  0  9G30G25G15G26G29G02G21G05G12
 117268392.224 7  91378024.66045  22315434.180                    22315443.492
 115362293.252 8  89892763.719 7  21952722.078                    21952733.281
 121713159.040 7  94841478.752 6  23161246.742                    23161255.570
 117442968.427 7  91514080.54845  22348655.930                    22348665.715
 112295187.177 8  87502801.505 7  21369064.406                    21369073.230
 117135299.146 7  91274449.44745  22290099.961                    22290106.227
 130073191.843 6 101355985.78943  24752150.797                    24752161.906
 110733557.633 8  86285985.207 7  21071885.422                    21071893.160
 119246317.975 7  92919289.352 7  22691824.023                    22691832.883
 11  8 15  3 17 30.0000000  0  9G30G25G15G26G29G02G21G05G12
 117333369.585 7  91428656.38145  22327799.227                    22327808.563
 115406843.484 8  89927478.183 7  21961199.594                    21961210.934
 121618008.957 7  94767335.866 6  23143139.609                    23143148.836
 117364668.334 7  91453067.50745  22333756.023                    22333765.383
 112227604.703 8  87450139.877 7  21356203.391                    21356212.082
 117181744.401 7  91310640.57145  22298938.578                    22298944.477
 130016216.590 6 101311589.53143  24741309.922                    24741319.418
 110794912.827 8  86333794.464 7  21083560.727                    21083569.070
 119334965.638 7  92988365.434 7  22708693.320                    22708702.305
 11  8 15  3 18  0.0000000  0  9G30G25G15G26G29G02G21G05G12
 117398704.208 7  91479566.45945  22340231.969                    22340241.348
 115451850.430 8  89962548.522 7  21969764.289                    21969775.742
 121522957.112 7  94693269.541 6  23125051.891                    23125060.777
 117286725.417 7  91392332.79744  22318923.492                    22318933.500
 112160280.546 8  87397679.533 7  21343392.289                    21343401.102
 117228285.210 8  91346906.14345  22307794.719                    22307800.691
 129959231.537 6 101267185.70343  24730464.352                    24730475.305
 110856613.666 7  86381873.043 7  21095301.695                    21095309.824
 119423802.902 7  93057589.264 7  22725598.523                    22725607.344
 11  8 15  3 18 30.0000000  0  9G30G25G15G26G29G02G21G05G12
 117464393.165 7  91530752.66245  22352732.289                    22352741.484
 115497311.965 8  89997973.098 7  21978414.992                    21978426.707
 121428006.577 7  94619282.156 6  23106982.969                    23106992.715
 117209143.717 7  91331879.57845  22304160.172                    22304170.074
 112093217.388 8  87345422.552 7  21330630.852                    21330639.207
 117274921.812 8  91383246.35545  22316669.391                    22316675.590
 129902236.629 6 101222774.17843  24719619.531                    24719628.973
 110918657.958 8  86430219.247 7  21107108.539                    21107116.598
 119512826.912 7  93126958.604 7  22742538.898                    22742548.277
 11  8 15  3 19  0.0000000  0  9G30G25G15G26G29G02G21G05G12
 117530433.597 7  91582212.73845  22365299.336                    22365308.930
 115543225.868 8  90033750.160 7  21987152.281                    21987163.379
 121333160.677 7  94545376.310 6  23088934.570                    23088943.855
 117131926.710 7  91271710.52145  22289466.102                    22289476.090
 112026417.732 8  87293370.911 7  21317919.070                    21317927.594
 117321654.658 7  91419661.56145  22325562.703                    22325568.969
 129845231.324 6 101178354.55442  24708771.547                    24708781.703
 110981043.300 7  86478831.207 7  21118980.086                    21118988.473
 119602034.597 7  93196471.074 7  22759514.484                    22759523.813
 11  8 15  3 19 30.0000000  0  9G30G25G15G26G29G02G21G05G12
 117596821.988 7  91633943.94245  22377932.352                    22377942.340
 115589589.444 8  90069877.618 7  21995974.891                    21995986.375
 121238422.080 7  94471554.075 6  23070906.367                    23070915.570
 117055077.745 7  91211828.25245  22274842.445                    22274852.402
 111959883.450 8  87241526.052 7  21305258.031                    21305267.098
 117368483.763 7  91456151.78145  22334473.930                    22334480.031
 129788214.831 5 101133926.23942  24697921.500                    24697931.430
 111043766.708 8  86527706.597 7  21130915.977                    21130924.254
 119691422.723 7  93266124.136 7  22776525.156                    22776533.754
 11  8 15  3 20  0.0000000  0  9G30G25G15G26G29G02G21G05G12
 117663556.102 7  91685944.54545  22390631.695                    22390640.820
 115636400.959 8  90106354.108 7  22004882.508                    22004894.410
 121143794.715 7  94397818.505 6  23052899.813                    23052908.613
 116978601.170 7  91152236.17145  22260289.734                    22260299.477
 111893617.646 8  87189890.387 7  21292648.008                    21292657.004
 117415410.085 7  91492717.77345  22343403.289                    22343409.582
 129731187.199 5 101089489.23442  24687068.508                    24687079.074
 111106826.855 8  86576844.381 7  21142915.828                    21142924.145
 119780988.817 7  93335915.889 7  22793568.570                    22793577.672
 11  8 15  3 20 30.0000000  0  9G30G25G15G26G29G02G21G05G12
 117730631.990 7  91738211.46245  22403395.742                    22403405.094
 115683657.227 8  90143177.174 7  22013875.273                    22013886.863
 121049280.720 7  94324171.270 6  23034914.414                    23034923.121
 116902499.705 7  91092936.37745  22245807.836                    22245817.465
 111827621.827 8  87138465.103 7  21280089.117                    21280098.332
 117462433.393 7  91529359.35345  22352351.289                    22352358.160
 129674147.45915 101045042.83852  24676214.555                    24676225.473
 111170220.236 8  86626241.834 7  21154979.500                    21154987.469
 119870728.999 7  93405843.293 7  22810645.914                    22810654.680
 11  8 15  3 21  0.0000000  0  9G30G25G15G26G29G02G21G05G12
 117798046.999 7  91790742.63045  22416224.086                    22416233.930
 115731356.210 8  90180345.204 7  22022952.398                    22022963.789
 120954883.644 7  94250615.167 6  23016951.406                    23016960.023
 116826777.281 7  91033931.94845  22231398.281                    22231408.066
 111761898.896 8  87087252.465 7  21267582.727                    21267591.273
 117509554.108 7  91566076.82945  22361318.031                    22361324.938
 129617095.285 5 101000586.66442  24665357.094                    24665368.820
 111233944.791 8  86675897.330 7  21167105.617                    21167114.371
 119960640.375 7  93475904.094 7  22827755.000                    22827764.234
 11  8 15  3 21 30.0000000  0  9G30G25G15G26G29G02G21G05G12
 117865797.549 7  91843535.25145  22429117.023                    22429126.434
 115779495.003 8  90217855.950 7  22032113.047                    22032123.961
 120860606.143 7  94177152.239 7  22999010.414                    22999019.883
 116751437.185 7  90975225.43845  22217061.727                    22217071.414
 111696450.641 8  87036253.853 7  21255128.125                    21255136.746
 117556772.267 7  91602870.21145  22370303.469                    22370309.941
 129560029.867 5 100956120.22942  24654498.172                    24654509.273
 111297997.515 8  86725808.551 7  21179294.555                    21179302.402
 120050719.655 7  93546095.731 7  22844896.891                    22844905.434
